<?xml version="1.0" encoding="UTF-8" standalone="no" ?>
<gpx xmlns="http://www.topografix.com/GPX/1/1" xmlns:xsi="http://www.w3.org/2001/XMLSchema-instance" xsi:schemaLocation="http://www.topografix.com/GPX/1/1 http://www.topografix.com/GPX/1/1/gpx.xsd" version="1.1" creator="VisuGPX - https://www.visugpx.com">
  <metadata>
    <name>Travanet 25-08-25</name>
    <desc><![CDATA[Sentier du Travanet]]></desc>
  </metadata>
  <trk>
    <name><![CDATA[Trace 1756209652000]]></name>
    <trkseg>
      <trkpt lat="43.7618" lon="2.28808">
        <ele>412</ele>
        <time>2025-08-26T12:00:52.000Z</time>
      </trkpt>
      <trkpt lat="43.76178" lon="2.28812">
        <ele>408</ele>
        <time>2025-08-26T12:00:57.000Z</time>
      </trkpt>
      <trkpt lat="43.76175" lon="2.2881">
        <ele>402</ele>
        <time>2025-08-26T12:01:02.000Z</time>
      </trkpt>
      <trkpt lat="43.76175" lon="2.2881">
        <ele>402</ele>
        <time>2025-08-26T12:01:07.000Z</time>
      </trkpt>
      <trkpt lat="43.76175" lon="2.2881">
        <ele>402</ele>
        <time>2025-08-26T12:01:12.000Z</time>
      </trkpt>
      <trkpt lat="43.76175" lon="2.2881">
        <ele>402</ele>
        <time>2025-08-26T12:01:17.000Z</time>
      </trkpt>
      <trkpt lat="43.76175" lon="2.28813">
        <ele>401</ele>
        <time>2025-08-26T12:01:22.000Z</time>
      </trkpt>
      <trkpt lat="43.76174" lon="2.28811">
        <ele>401</ele>
        <time>2025-08-26T12:01:27.000Z</time>
      </trkpt>
      <trkpt lat="43.76173" lon="2.28809">
        <ele>400</ele>
        <time>2025-08-26T12:01:32.000Z</time>
      </trkpt>
      <trkpt lat="43.76173" lon="2.28809">
        <ele>401</ele>
        <time>2025-08-26T12:01:37.000Z</time>
      </trkpt>
      <trkpt lat="43.76173" lon="2.28809">
        <ele>401</ele>
        <time>2025-08-26T12:01:42.000Z</time>
      </trkpt>
      <trkpt lat="43.76173" lon="2.28809">
        <ele>400</ele>
        <time>2025-08-26T12:01:47.000Z</time>
      </trkpt>
      <trkpt lat="43.76175" lon="2.28815">
        <ele>400</ele>
        <time>2025-08-26T12:01:52.000Z</time>
      </trkpt>
      <trkpt lat="43.76176" lon="2.2882">
        <ele>400</ele>
        <time>2025-08-26T12:01:57.000Z</time>
      </trkpt>
      <trkpt lat="43.76172" lon="2.28823">
        <ele>398</ele>
        <time>2025-08-26T12:02:02.000Z</time>
      </trkpt>
      <trkpt lat="43.76171" lon="2.28828">
        <ele>399</ele>
        <time>2025-08-26T12:02:07.000Z</time>
      </trkpt>
      <trkpt lat="43.76174" lon="2.28834">
        <ele>400</ele>
        <time>2025-08-26T12:02:12.000Z</time>
      </trkpt>
      <trkpt lat="43.76177" lon="2.28835">
        <ele>399</ele>
        <time>2025-08-26T12:02:17.000Z</time>
      </trkpt>
      <trkpt lat="43.76182" lon="2.28835">
        <ele>399</ele>
        <time>2025-08-26T12:02:22.000Z</time>
      </trkpt>
      <trkpt lat="43.76186" lon="2.28835">
        <ele>398</ele>
        <time>2025-08-26T12:02:27.000Z</time>
      </trkpt>
      <trkpt lat="43.76191" lon="2.28834">
        <ele>399</ele>
        <time>2025-08-26T12:02:32.000Z</time>
      </trkpt>
      <trkpt lat="43.76195" lon="2.28834">
        <ele>399</ele>
        <time>2025-08-26T12:02:37.000Z</time>
      </trkpt>
      <trkpt lat="43.76201" lon="2.28834">
        <ele>400</ele>
        <time>2025-08-26T12:02:42.000Z</time>
      </trkpt>
      <trkpt lat="43.76206" lon="2.28831">
        <ele>400</ele>
        <time>2025-08-26T12:02:47.000Z</time>
      </trkpt>
      <trkpt lat="43.76212" lon="2.28831">
        <ele>400</ele>
        <time>2025-08-26T12:02:52.000Z</time>
      </trkpt>
      <trkpt lat="43.76217" lon="2.28833">
        <ele>400</ele>
        <time>2025-08-26T12:02:57.000Z</time>
      </trkpt>
      <trkpt lat="43.76223" lon="2.28835">
        <ele>400</ele>
        <time>2025-08-26T12:03:02.000Z</time>
      </trkpt>
      <trkpt lat="43.76229" lon="2.28836">
        <ele>399</ele>
        <time>2025-08-26T12:03:07.000Z</time>
      </trkpt>
      <trkpt lat="43.76235" lon="2.2884">
        <ele>401</ele>
        <time>2025-08-26T12:03:12.000Z</time>
      </trkpt>
      <trkpt lat="43.76238" lon="2.28845">
        <ele>403</ele>
        <time>2025-08-26T12:03:17.000Z</time>
      </trkpt>
      <trkpt lat="43.76238" lon="2.28845">
        <ele>404</ele>
        <time>2025-08-26T12:03:22.000Z</time>
      </trkpt>
      <trkpt lat="43.76238" lon="2.28845">
        <ele>404</ele>
        <time>2025-08-26T12:03:27.000Z</time>
      </trkpt>
      <trkpt lat="43.76239" lon="2.28845">
        <ele>405</ele>
        <time>2025-08-26T12:03:32.000Z</time>
      </trkpt>
      <trkpt lat="43.76242" lon="2.28844">
        <ele>408</ele>
        <time>2025-08-26T12:03:37.000Z</time>
      </trkpt>
      <trkpt lat="43.76244" lon="2.28841">
        <ele>408</ele>
        <time>2025-08-26T12:03:42.000Z</time>
      </trkpt>
      <trkpt lat="43.76248" lon="2.28836">
        <ele>408</ele>
        <time>2025-08-26T12:03:47.000Z</time>
      </trkpt>
      <trkpt lat="43.76252" lon="2.28835">
        <ele>407</ele>
        <time>2025-08-26T12:03:52.000Z</time>
      </trkpt>
      <trkpt lat="43.76257" lon="2.28833">
        <ele>408</ele>
        <time>2025-08-26T12:03:57.000Z</time>
      </trkpt>
      <trkpt lat="43.76261" lon="2.2883">
        <ele>407</ele>
        <time>2025-08-26T12:04:02.000Z</time>
      </trkpt>
      <trkpt lat="43.76266" lon="2.28828">
        <ele>405</ele>
        <time>2025-08-26T12:04:07.000Z</time>
      </trkpt>
      <trkpt lat="43.7627" lon="2.28824">
        <ele>404</ele>
        <time>2025-08-26T12:04:12.000Z</time>
      </trkpt>
      <trkpt lat="43.76274" lon="2.28822">
        <ele>403</ele>
        <time>2025-08-26T12:04:17.000Z</time>
      </trkpt>
      <trkpt lat="43.76281" lon="2.28819">
        <ele>401</ele>
        <time>2025-08-26T12:04:22.000Z</time>
      </trkpt>
      <trkpt lat="43.76287" lon="2.28815">
        <ele>401</ele>
        <time>2025-08-26T12:04:27.000Z</time>
      </trkpt>
      <trkpt lat="43.76293" lon="2.28813">
        <ele>400</ele>
        <time>2025-08-26T12:04:32.000Z</time>
      </trkpt>
      <trkpt lat="43.76299" lon="2.28813">
        <ele>400</ele>
        <time>2025-08-26T12:04:37.000Z</time>
      </trkpt>
      <trkpt lat="43.76305" lon="2.2881">
        <ele>400</ele>
        <time>2025-08-26T12:04:42.000Z</time>
      </trkpt>
      <trkpt lat="43.76312" lon="2.28812">
        <ele>400</ele>
        <time>2025-08-26T12:04:47.000Z</time>
      </trkpt>
      <trkpt lat="43.76317" lon="2.28812">
        <ele>399</ele>
        <time>2025-08-26T12:04:52.000Z</time>
      </trkpt>
      <trkpt lat="43.76324" lon="2.28814">
        <ele>400</ele>
        <time>2025-08-26T12:04:57.000Z</time>
      </trkpt>
      <trkpt lat="43.7633" lon="2.28817">
        <ele>401</ele>
        <time>2025-08-26T12:05:02.000Z</time>
      </trkpt>
      <trkpt lat="43.76336" lon="2.28819">
        <ele>400</ele>
        <time>2025-08-26T12:05:07.000Z</time>
      </trkpt>
      <trkpt lat="43.76341" lon="2.28822">
        <ele>400</ele>
        <time>2025-08-26T12:05:12.000Z</time>
      </trkpt>
      <trkpt lat="43.76349" lon="2.28826">
        <ele>401</ele>
        <time>2025-08-26T12:05:17.000Z</time>
      </trkpt>
      <trkpt lat="43.76355" lon="2.28828">
        <ele>401</ele>
        <time>2025-08-26T12:05:22.000Z</time>
      </trkpt>
      <trkpt lat="43.76359" lon="2.28832">
        <ele>402</ele>
        <time>2025-08-26T12:05:27.000Z</time>
      </trkpt>
      <trkpt lat="43.76364" lon="2.28835">
        <ele>401</ele>
        <time>2025-08-26T12:05:32.000Z</time>
      </trkpt>
      <trkpt lat="43.7637" lon="2.28837">
        <ele>402</ele>
        <time>2025-08-26T12:05:37.000Z</time>
      </trkpt>
      <trkpt lat="43.76375" lon="2.28841">
        <ele>401</ele>
        <time>2025-08-26T12:05:42.000Z</time>
      </trkpt>
      <trkpt lat="43.7638" lon="2.28843">
        <ele>400</ele>
        <time>2025-08-26T12:05:47.000Z</time>
      </trkpt>
      <trkpt lat="43.76384" lon="2.28848">
        <ele>399</ele>
        <time>2025-08-26T12:05:52.000Z</time>
      </trkpt>
      <trkpt lat="43.76391" lon="2.28851">
        <ele>400</ele>
        <time>2025-08-26T12:05:57.000Z</time>
      </trkpt>
      <trkpt lat="43.76396" lon="2.28855">
        <ele>399</ele>
        <time>2025-08-26T12:06:02.000Z</time>
      </trkpt>
      <trkpt lat="43.76401" lon="2.2886">
        <ele>399</ele>
        <time>2025-08-26T12:06:07.000Z</time>
      </trkpt>
      <trkpt lat="43.76404" lon="2.28863">
        <ele>399</ele>
        <time>2025-08-26T12:06:12.000Z</time>
      </trkpt>
      <trkpt lat="43.76407" lon="2.28863">
        <ele>398</ele>
        <time>2025-08-26T12:06:17.000Z</time>
      </trkpt>
      <trkpt lat="43.76407" lon="2.28862">
        <ele>399</ele>
        <time>2025-08-26T12:06:22.000Z</time>
      </trkpt>
      <trkpt lat="43.76406" lon="2.28863">
        <ele>399</ele>
        <time>2025-08-26T12:06:27.000Z</time>
      </trkpt>
      <trkpt lat="43.76407" lon="2.28861">
        <ele>400</ele>
        <time>2025-08-26T12:06:32.000Z</time>
      </trkpt>
      <trkpt lat="43.7641" lon="2.28859">
        <ele>400</ele>
        <time>2025-08-26T12:06:37.000Z</time>
      </trkpt>
      <trkpt lat="43.76415" lon="2.28854">
        <ele>400</ele>
        <time>2025-08-26T12:06:42.000Z</time>
      </trkpt>
      <trkpt lat="43.7642" lon="2.28851">
        <ele>401</ele>
        <time>2025-08-26T12:06:47.000Z</time>
      </trkpt>
      <trkpt lat="43.76423" lon="2.28846">
        <ele>400</ele>
        <time>2025-08-26T12:06:52.000Z</time>
      </trkpt>
      <trkpt lat="43.76428" lon="2.28842">
        <ele>399</ele>
        <time>2025-08-26T12:06:57.000Z</time>
      </trkpt>
      <trkpt lat="43.76432" lon="2.28836">
        <ele>399</ele>
        <time>2025-08-26T12:07:02.000Z</time>
      </trkpt>
      <trkpt lat="43.76436" lon="2.28831">
        <ele>398</ele>
        <time>2025-08-26T12:07:07.000Z</time>
      </trkpt>
      <trkpt lat="43.76442" lon="2.28826">
        <ele>399</ele>
        <time>2025-08-26T12:07:12.000Z</time>
      </trkpt>
      <trkpt lat="43.76445" lon="2.28822">
        <ele>400</ele>
        <time>2025-08-26T12:07:17.000Z</time>
      </trkpt>
      <trkpt lat="43.76449" lon="2.28819">
        <ele>400</ele>
        <time>2025-08-26T12:07:22.000Z</time>
      </trkpt>
      <trkpt lat="43.76453" lon="2.28813">
        <ele>400</ele>
        <time>2025-08-26T12:07:27.000Z</time>
      </trkpt>
      <trkpt lat="43.76457" lon="2.2881">
        <ele>400</ele>
        <time>2025-08-26T12:07:32.000Z</time>
      </trkpt>
      <trkpt lat="43.76461" lon="2.28805">
        <ele>399</ele>
        <time>2025-08-26T12:07:37.000Z</time>
      </trkpt>
      <trkpt lat="43.76466" lon="2.288">
        <ele>398</ele>
        <time>2025-08-26T12:07:42.000Z</time>
      </trkpt>
      <trkpt lat="43.7647" lon="2.28794">
        <ele>399</ele>
        <time>2025-08-26T12:07:47.000Z</time>
      </trkpt>
      <trkpt lat="43.76476" lon="2.28789">
        <ele>399</ele>
        <time>2025-08-26T12:07:52.000Z</time>
      </trkpt>
      <trkpt lat="43.76481" lon="2.28784">
        <ele>398</ele>
        <time>2025-08-26T12:07:57.000Z</time>
      </trkpt>
      <trkpt lat="43.76485" lon="2.28779">
        <ele>398</ele>
        <time>2025-08-26T12:08:02.000Z</time>
      </trkpt>
      <trkpt lat="43.76488" lon="2.28774">
        <ele>397</ele>
        <time>2025-08-26T12:08:07.000Z</time>
      </trkpt>
      <trkpt lat="43.76492" lon="2.28769">
        <ele>397</ele>
        <time>2025-08-26T12:08:12.000Z</time>
      </trkpt>
      <trkpt lat="43.76495" lon="2.28764">
        <ele>398</ele>
        <time>2025-08-26T12:08:17.000Z</time>
      </trkpt>
      <trkpt lat="43.76499" lon="2.28758">
        <ele>398</ele>
        <time>2025-08-26T12:08:22.000Z</time>
      </trkpt>
      <trkpt lat="43.76503" lon="2.28752">
        <ele>397</ele>
        <time>2025-08-26T12:08:27.000Z</time>
      </trkpt>
      <trkpt lat="43.76506" lon="2.28745">
        <ele>396</ele>
        <time>2025-08-26T12:08:32.000Z</time>
      </trkpt>
      <trkpt lat="43.76508" lon="2.28739">
        <ele>395</ele>
        <time>2025-08-26T12:08:37.000Z</time>
      </trkpt>
      <trkpt lat="43.76512" lon="2.28733">
        <ele>396</ele>
        <time>2025-08-26T12:08:42.000Z</time>
      </trkpt>
      <trkpt lat="43.76515" lon="2.28726">
        <ele>395</ele>
        <time>2025-08-26T12:08:47.000Z</time>
      </trkpt>
      <trkpt lat="43.76519" lon="2.28721">
        <ele>396</ele>
        <time>2025-08-26T12:08:52.000Z</time>
      </trkpt>
      <trkpt lat="43.76523" lon="2.28714">
        <ele>396</ele>
        <time>2025-08-26T12:08:57.000Z</time>
      </trkpt>
      <trkpt lat="43.76527" lon="2.28706">
        <ele>396</ele>
        <time>2025-08-26T12:09:02.000Z</time>
      </trkpt>
      <trkpt lat="43.7653" lon="2.287">
        <ele>396</ele>
        <time>2025-08-26T12:09:07.000Z</time>
      </trkpt>
      <trkpt lat="43.76535" lon="2.28693">
        <ele>395</ele>
        <time>2025-08-26T12:09:12.000Z</time>
      </trkpt>
      <trkpt lat="43.76539" lon="2.28687">
        <ele>395</ele>
        <time>2025-08-26T12:09:17.000Z</time>
      </trkpt>
      <trkpt lat="43.76543" lon="2.28682">
        <ele>394</ele>
        <time>2025-08-26T12:09:22.000Z</time>
      </trkpt>
      <trkpt lat="43.76546" lon="2.28675">
        <ele>395</ele>
        <time>2025-08-26T12:09:27.000Z</time>
      </trkpt>
      <trkpt lat="43.76549" lon="2.28669">
        <ele>394</ele>
        <time>2025-08-26T12:09:32.000Z</time>
      </trkpt>
      <trkpt lat="43.76553" lon="2.28662">
        <ele>393</ele>
        <time>2025-08-26T12:09:37.000Z</time>
      </trkpt>
      <trkpt lat="43.76557" lon="2.28657">
        <ele>392</ele>
        <time>2025-08-26T12:09:42.000Z</time>
      </trkpt>
      <trkpt lat="43.76561" lon="2.2865">
        <ele>393</ele>
        <time>2025-08-26T12:09:47.000Z</time>
      </trkpt>
      <trkpt lat="43.76565" lon="2.28644">
        <ele>394</ele>
        <time>2025-08-26T12:09:52.000Z</time>
      </trkpt>
      <trkpt lat="43.76569" lon="2.28638">
        <ele>394</ele>
        <time>2025-08-26T12:09:57.000Z</time>
      </trkpt>
      <trkpt lat="43.76572" lon="2.28631">
        <ele>394</ele>
        <time>2025-08-26T12:10:02.000Z</time>
      </trkpt>
      <trkpt lat="43.76576" lon="2.28625">
        <ele>395</ele>
        <time>2025-08-26T12:10:07.000Z</time>
      </trkpt>
      <trkpt lat="43.7658" lon="2.28619">
        <ele>395</ele>
        <time>2025-08-26T12:10:12.000Z</time>
      </trkpt>
      <trkpt lat="43.76584" lon="2.28613">
        <ele>395</ele>
        <time>2025-08-26T12:10:17.000Z</time>
      </trkpt>
      <trkpt lat="43.76588" lon="2.28607">
        <ele>394</ele>
        <time>2025-08-26T12:10:22.000Z</time>
      </trkpt>
      <trkpt lat="43.76591" lon="2.28599">
        <ele>393</ele>
        <time>2025-08-26T12:10:27.000Z</time>
      </trkpt>
      <trkpt lat="43.76594" lon="2.28592">
        <ele>393</ele>
        <time>2025-08-26T12:10:32.000Z</time>
      </trkpt>
      <trkpt lat="43.76597" lon="2.28583">
        <ele>392</ele>
        <time>2025-08-26T12:10:37.000Z</time>
      </trkpt>
      <trkpt lat="43.76601" lon="2.28576">
        <ele>391</ele>
        <time>2025-08-26T12:10:42.000Z</time>
      </trkpt>
      <trkpt lat="43.76604" lon="2.28568">
        <ele>390</ele>
        <time>2025-08-26T12:10:47.000Z</time>
      </trkpt>
      <trkpt lat="43.76608" lon="2.28562">
        <ele>389</ele>
        <time>2025-08-26T12:10:52.000Z</time>
      </trkpt>
      <trkpt lat="43.76611" lon="2.28555">
        <ele>388</ele>
        <time>2025-08-26T12:10:57.000Z</time>
      </trkpt>
      <trkpt lat="43.76614" lon="2.28548">
        <ele>387</ele>
        <time>2025-08-26T12:11:02.000Z</time>
      </trkpt>
      <trkpt lat="43.76617" lon="2.2854">
        <ele>386</ele>
        <time>2025-08-26T12:11:07.000Z</time>
      </trkpt>
      <trkpt lat="43.76619" lon="2.28529">
        <ele>387</ele>
        <time>2025-08-26T12:11:12.000Z</time>
      </trkpt>
      <trkpt lat="43.76621" lon="2.2852">
        <ele>385</ele>
        <time>2025-08-26T12:11:17.000Z</time>
      </trkpt>
      <trkpt lat="43.76623" lon="2.28511">
        <ele>385</ele>
        <time>2025-08-26T12:11:22.000Z</time>
      </trkpt>
      <trkpt lat="43.76625" lon="2.28503">
        <ele>384</ele>
        <time>2025-08-26T12:11:27.000Z</time>
      </trkpt>
      <trkpt lat="43.76628" lon="2.28495">
        <ele>384</ele>
        <time>2025-08-26T12:11:32.000Z</time>
      </trkpt>
      <trkpt lat="43.76628" lon="2.28486">
        <ele>384</ele>
        <time>2025-08-26T12:11:37.000Z</time>
      </trkpt>
      <trkpt lat="43.76629" lon="2.28476">
        <ele>383</ele>
        <time>2025-08-26T12:11:42.000Z</time>
      </trkpt>
      <trkpt lat="43.7663" lon="2.28468">
        <ele>382</ele>
        <time>2025-08-26T12:11:47.000Z</time>
      </trkpt>
      <trkpt lat="43.76629" lon="2.28461">
        <ele>381</ele>
        <time>2025-08-26T12:11:52.000Z</time>
      </trkpt>
      <trkpt lat="43.7663" lon="2.28451">
        <ele>380</ele>
        <time>2025-08-26T12:11:57.000Z</time>
      </trkpt>
      <trkpt lat="43.76629" lon="2.28443">
        <ele>381</ele>
        <time>2025-08-26T12:12:02.000Z</time>
      </trkpt>
      <trkpt lat="43.76629" lon="2.28434">
        <ele>378</ele>
        <time>2025-08-26T12:12:07.000Z</time>
      </trkpt>
      <trkpt lat="43.76629" lon="2.28428">
        <ele>378</ele>
        <time>2025-08-26T12:12:12.000Z</time>
      </trkpt>
      <trkpt lat="43.76629" lon="2.2842">
        <ele>377</ele>
        <time>2025-08-26T12:12:17.000Z</time>
      </trkpt>
      <trkpt lat="43.76628" lon="2.28411">
        <ele>375</ele>
        <time>2025-08-26T12:12:22.000Z</time>
      </trkpt>
      <trkpt lat="43.76628" lon="2.28402">
        <ele>374</ele>
        <time>2025-08-26T12:12:27.000Z</time>
      </trkpt>
      <trkpt lat="43.76626" lon="2.28392">
        <ele>374</ele>
        <time>2025-08-26T12:12:32.000Z</time>
      </trkpt>
      <trkpt lat="43.76623" lon="2.28382">
        <ele>374</ele>
        <time>2025-08-26T12:12:37.000Z</time>
      </trkpt>
      <trkpt lat="43.76621" lon="2.28374">
        <ele>374</ele>
        <time>2025-08-26T12:12:42.000Z</time>
      </trkpt>
      <trkpt lat="43.7662" lon="2.28368">
        <ele>374</ele>
        <time>2025-08-26T12:12:47.000Z</time>
      </trkpt>
      <trkpt lat="43.76619" lon="2.2836">
        <ele>372</ele>
        <time>2025-08-26T12:12:52.000Z</time>
      </trkpt>
      <trkpt lat="43.76617" lon="2.28352">
        <ele>370</ele>
        <time>2025-08-26T12:12:57.000Z</time>
      </trkpt>
      <trkpt lat="43.76616" lon="2.28343">
        <ele>369</ele>
        <time>2025-08-26T12:13:02.000Z</time>
      </trkpt>
      <trkpt lat="43.76615" lon="2.28335">
        <ele>369</ele>
        <time>2025-08-26T12:13:07.000Z</time>
      </trkpt>
      <trkpt lat="43.76612" lon="2.28326">
        <ele>367</ele>
        <time>2025-08-26T12:13:12.000Z</time>
      </trkpt>
      <trkpt lat="43.7661" lon="2.28317">
        <ele>369</ele>
        <time>2025-08-26T12:13:17.000Z</time>
      </trkpt>
      <trkpt lat="43.76609" lon="2.28311">
        <ele>370</ele>
        <time>2025-08-26T12:13:22.000Z</time>
      </trkpt>
      <trkpt lat="43.76608" lon="2.28302">
        <ele>369</ele>
        <time>2025-08-26T12:13:27.000Z</time>
      </trkpt>
      <trkpt lat="43.76607" lon="2.28293">
        <ele>368</ele>
        <time>2025-08-26T12:13:32.000Z</time>
      </trkpt>
      <trkpt lat="43.76605" lon="2.28285">
        <ele>365</ele>
        <time>2025-08-26T12:13:37.000Z</time>
      </trkpt>
      <trkpt lat="43.76603" lon="2.28277">
        <ele>365</ele>
        <time>2025-08-26T12:13:42.000Z</time>
      </trkpt>
      <trkpt lat="43.766" lon="2.28268">
        <ele>365</ele>
        <time>2025-08-26T12:13:47.000Z</time>
      </trkpt>
      <trkpt lat="43.76598" lon="2.28261">
        <ele>363</ele>
        <time>2025-08-26T12:13:52.000Z</time>
      </trkpt>
      <trkpt lat="43.76595" lon="2.28253">
        <ele>363</ele>
        <time>2025-08-26T12:13:57.000Z</time>
      </trkpt>
      <trkpt lat="43.76593" lon="2.28245">
        <ele>363</ele>
        <time>2025-08-26T12:14:02.000Z</time>
      </trkpt>
      <trkpt lat="43.76591" lon="2.28237">
        <ele>364</ele>
        <time>2025-08-26T12:14:07.000Z</time>
      </trkpt>
      <trkpt lat="43.76589" lon="2.28229">
        <ele>364</ele>
        <time>2025-08-26T12:14:12.000Z</time>
      </trkpt>
      <trkpt lat="43.76588" lon="2.28222">
        <ele>364</ele>
        <time>2025-08-26T12:14:17.000Z</time>
      </trkpt>
      <trkpt lat="43.76588" lon="2.28214">
        <ele>365</ele>
        <time>2025-08-26T12:14:22.000Z</time>
      </trkpt>
      <trkpt lat="43.76588" lon="2.28206">
        <ele>363</ele>
        <time>2025-08-26T12:14:27.000Z</time>
      </trkpt>
      <trkpt lat="43.76587" lon="2.28201">
        <ele>360</ele>
        <time>2025-08-26T12:14:32.000Z</time>
      </trkpt>
      <trkpt lat="43.76587" lon="2.28194">
        <ele>359</ele>
        <time>2025-08-26T12:14:37.000Z</time>
      </trkpt>
      <trkpt lat="43.76587" lon="2.28185">
        <ele>359</ele>
        <time>2025-08-26T12:14:42.000Z</time>
      </trkpt>
      <trkpt lat="43.76587" lon="2.28178">
        <ele>358</ele>
        <time>2025-08-26T12:14:47.000Z</time>
      </trkpt>
      <trkpt lat="43.76587" lon="2.2817">
        <ele>358</ele>
        <time>2025-08-26T12:14:52.000Z</time>
      </trkpt>
      <trkpt lat="43.76587" lon="2.28161">
        <ele>358</ele>
        <time>2025-08-26T12:14:57.000Z</time>
      </trkpt>
      <trkpt lat="43.76588" lon="2.28153">
        <ele>356</ele>
        <time>2025-08-26T12:15:02.000Z</time>
      </trkpt>
      <trkpt lat="43.76589" lon="2.28144">
        <ele>354</ele>
        <time>2025-08-26T12:15:07.000Z</time>
      </trkpt>
      <trkpt lat="43.76591" lon="2.28136">
        <ele>353</ele>
        <time>2025-08-26T12:15:12.000Z</time>
      </trkpt>
      <trkpt lat="43.76594" lon="2.28129">
        <ele>352</ele>
        <time>2025-08-26T12:15:17.000Z</time>
      </trkpt>
      <trkpt lat="43.76597" lon="2.28122">
        <ele>351</ele>
        <time>2025-08-26T12:15:22.000Z</time>
      </trkpt>
      <trkpt lat="43.766" lon="2.28114">
        <ele>351</ele>
        <time>2025-08-26T12:15:27.000Z</time>
      </trkpt>
      <trkpt lat="43.76603" lon="2.28107">
        <ele>350</ele>
        <time>2025-08-26T12:15:32.000Z</time>
      </trkpt>
      <trkpt lat="43.76605" lon="2.28099">
        <ele>350</ele>
        <time>2025-08-26T12:15:37.000Z</time>
      </trkpt>
      <trkpt lat="43.76608" lon="2.28091">
        <ele>350</ele>
        <time>2025-08-26T12:15:42.000Z</time>
      </trkpt>
      <trkpt lat="43.76612" lon="2.28084">
        <ele>349</ele>
        <time>2025-08-26T12:15:47.000Z</time>
      </trkpt>
      <trkpt lat="43.76616" lon="2.28078">
        <ele>349</ele>
        <time>2025-08-26T12:15:52.000Z</time>
      </trkpt>
      <trkpt lat="43.76622" lon="2.28072">
        <ele>348</ele>
        <time>2025-08-26T12:15:57.000Z</time>
      </trkpt>
      <trkpt lat="43.76626" lon="2.28067">
        <ele>347</ele>
        <time>2025-08-26T12:16:02.000Z</time>
      </trkpt>
      <trkpt lat="43.76631" lon="2.28063">
        <ele>346</ele>
        <time>2025-08-26T12:16:07.000Z</time>
      </trkpt>
      <trkpt lat="43.76636" lon="2.2806">
        <ele>345</ele>
        <time>2025-08-26T12:16:12.000Z</time>
      </trkpt>
      <trkpt lat="43.76641" lon="2.28057">
        <ele>343</ele>
        <time>2025-08-26T12:16:17.000Z</time>
      </trkpt>
      <trkpt lat="43.76645" lon="2.28054">
        <ele>341</ele>
        <time>2025-08-26T12:16:22.000Z</time>
      </trkpt>
      <trkpt lat="43.7665" lon="2.28052">
        <ele>339</ele>
        <time>2025-08-26T12:16:27.000Z</time>
      </trkpt>
      <trkpt lat="43.76654" lon="2.2805">
        <ele>339</ele>
        <time>2025-08-26T12:16:32.000Z</time>
      </trkpt>
      <trkpt lat="43.7666" lon="2.28049">
        <ele>336</ele>
        <time>2025-08-26T12:16:37.000Z</time>
      </trkpt>
      <trkpt lat="43.76666" lon="2.28048">
        <ele>336</ele>
        <time>2025-08-26T12:16:42.000Z</time>
      </trkpt>
      <trkpt lat="43.76672" lon="2.28046">
        <ele>335</ele>
        <time>2025-08-26T12:16:47.000Z</time>
      </trkpt>
      <trkpt lat="43.76678" lon="2.28046">
        <ele>334</ele>
        <time>2025-08-26T12:16:52.000Z</time>
      </trkpt>
      <trkpt lat="43.76685" lon="2.28044">
        <ele>333</ele>
        <time>2025-08-26T12:16:57.000Z</time>
      </trkpt>
      <trkpt lat="43.76693" lon="2.28045">
        <ele>333</ele>
        <time>2025-08-26T12:17:02.000Z</time>
      </trkpt>
      <trkpt lat="43.76699" lon="2.28046">
        <ele>334</ele>
        <time>2025-08-26T12:17:07.000Z</time>
      </trkpt>
      <trkpt lat="43.76706" lon="2.28046">
        <ele>333</ele>
        <time>2025-08-26T12:17:12.000Z</time>
      </trkpt>
      <trkpt lat="43.76713" lon="2.28048">
        <ele>332</ele>
        <time>2025-08-26T12:17:17.000Z</time>
      </trkpt>
      <trkpt lat="43.76717" lon="2.2805">
        <ele>332</ele>
        <time>2025-08-26T12:17:22.000Z</time>
      </trkpt>
      <trkpt lat="43.76722" lon="2.28053">
        <ele>330</ele>
        <time>2025-08-26T12:17:27.000Z</time>
      </trkpt>
      <trkpt lat="43.76726" lon="2.28056">
        <ele>328</ele>
        <time>2025-08-26T12:17:32.000Z</time>
      </trkpt>
      <trkpt lat="43.7673" lon="2.28061">
        <ele>328</ele>
        <time>2025-08-26T12:17:37.000Z</time>
      </trkpt>
      <trkpt lat="43.76734" lon="2.28062">
        <ele>328</ele>
        <time>2025-08-26T12:17:42.000Z</time>
      </trkpt>
      <trkpt lat="43.76739" lon="2.28066">
        <ele>326</ele>
        <time>2025-08-26T12:17:47.000Z</time>
      </trkpt>
      <trkpt lat="43.76741" lon="2.2807">
        <ele>324</ele>
        <time>2025-08-26T12:17:52.000Z</time>
      </trkpt>
      <trkpt lat="43.76747" lon="2.28073">
        <ele>323</ele>
        <time>2025-08-26T12:17:57.000Z</time>
      </trkpt>
      <trkpt lat="43.76752" lon="2.28077">
        <ele>322</ele>
        <time>2025-08-26T12:18:02.000Z</time>
      </trkpt>
      <trkpt lat="43.76757" lon="2.28081">
        <ele>322</ele>
        <time>2025-08-26T12:18:07.000Z</time>
      </trkpt>
      <trkpt lat="43.76762" lon="2.28084">
        <ele>320</ele>
        <time>2025-08-26T12:18:12.000Z</time>
      </trkpt>
      <trkpt lat="43.76769" lon="2.28088">
        <ele>319</ele>
        <time>2025-08-26T12:18:17.000Z</time>
      </trkpt>
      <trkpt lat="43.76775" lon="2.28092">
        <ele>317</ele>
        <time>2025-08-26T12:18:22.000Z</time>
      </trkpt>
      <trkpt lat="43.76779" lon="2.28097">
        <ele>317</ele>
        <time>2025-08-26T12:18:27.000Z</time>
      </trkpt>
      <trkpt lat="43.76785" lon="2.28101">
        <ele>315</ele>
        <time>2025-08-26T12:18:32.000Z</time>
      </trkpt>
      <trkpt lat="43.7679" lon="2.28105">
        <ele>312</ele>
        <time>2025-08-26T12:18:37.000Z</time>
      </trkpt>
      <trkpt lat="43.76796" lon="2.28111">
        <ele>309</ele>
        <time>2025-08-26T12:18:42.000Z</time>
      </trkpt>
      <trkpt lat="43.76801" lon="2.28114">
        <ele>308</ele>
        <time>2025-08-26T12:18:47.000Z</time>
      </trkpt>
      <trkpt lat="43.76806" lon="2.28119">
        <ele>307</ele>
        <time>2025-08-26T12:18:52.000Z</time>
      </trkpt>
      <trkpt lat="43.76811" lon="2.28123">
        <ele>307</ele>
        <time>2025-08-26T12:18:57.000Z</time>
      </trkpt>
      <trkpt lat="43.76816" lon="2.28127">
        <ele>306</ele>
        <time>2025-08-26T12:19:02.000Z</time>
      </trkpt>
      <trkpt lat="43.76821" lon="2.28132">
        <ele>305</ele>
        <time>2025-08-26T12:19:07.000Z</time>
      </trkpt>
      <trkpt lat="43.76826" lon="2.28136">
        <ele>304</ele>
        <time>2025-08-26T12:19:12.000Z</time>
      </trkpt>
      <trkpt lat="43.76831" lon="2.2814">
        <ele>304</ele>
        <time>2025-08-26T12:19:17.000Z</time>
      </trkpt>
      <trkpt lat="43.76836" lon="2.28145">
        <ele>302</ele>
        <time>2025-08-26T12:19:22.000Z</time>
      </trkpt>
      <trkpt lat="43.7684" lon="2.2815">
        <ele>299</ele>
        <time>2025-08-26T12:19:27.000Z</time>
      </trkpt>
      <trkpt lat="43.76845" lon="2.28156">
        <ele>297</ele>
        <time>2025-08-26T12:19:32.000Z</time>
      </trkpt>
      <trkpt lat="43.76849" lon="2.28163">
        <ele>297</ele>
        <time>2025-08-26T12:19:37.000Z</time>
      </trkpt>
      <trkpt lat="43.76852" lon="2.28169">
        <ele>297</ele>
        <time>2025-08-26T12:19:42.000Z</time>
      </trkpt>
      <trkpt lat="43.76858" lon="2.28175">
        <ele>298</ele>
        <time>2025-08-26T12:19:47.000Z</time>
      </trkpt>
      <trkpt lat="43.76863" lon="2.28179">
        <ele>297</ele>
        <time>2025-08-26T12:19:52.000Z</time>
      </trkpt>
      <trkpt lat="43.76865" lon="2.28185">
        <ele>296</ele>
        <time>2025-08-26T12:19:57.000Z</time>
      </trkpt>
      <trkpt lat="43.76868" lon="2.28191">
        <ele>295</ele>
        <time>2025-08-26T12:20:02.000Z</time>
      </trkpt>
      <trkpt lat="43.76871" lon="2.28197">
        <ele>294</ele>
        <time>2025-08-26T12:20:07.000Z</time>
      </trkpt>
      <trkpt lat="43.76875" lon="2.28203">
        <ele>294</ele>
        <time>2025-08-26T12:20:12.000Z</time>
      </trkpt>
      <trkpt lat="43.76878" lon="2.2821">
        <ele>293</ele>
        <time>2025-08-26T12:20:17.000Z</time>
      </trkpt>
      <trkpt lat="43.76882" lon="2.28217">
        <ele>292</ele>
        <time>2025-08-26T12:20:22.000Z</time>
      </trkpt>
      <trkpt lat="43.76886" lon="2.2822">
        <ele>292</ele>
        <time>2025-08-26T12:20:27.000Z</time>
      </trkpt>
      <trkpt lat="43.76888" lon="2.28226">
        <ele>292</ele>
        <time>2025-08-26T12:20:32.000Z</time>
      </trkpt>
      <trkpt lat="43.76892" lon="2.28233">
        <ele>292</ele>
        <time>2025-08-26T12:20:37.000Z</time>
      </trkpt>
      <trkpt lat="43.76894" lon="2.28241">
        <ele>292</ele>
        <time>2025-08-26T12:20:42.000Z</time>
      </trkpt>
      <trkpt lat="43.76896" lon="2.28248">
        <ele>291</ele>
        <time>2025-08-26T12:20:47.000Z</time>
      </trkpt>
      <trkpt lat="43.76901" lon="2.28251">
        <ele>291</ele>
        <time>2025-08-26T12:20:52.000Z</time>
      </trkpt>
      <trkpt lat="43.76907" lon="2.28252">
        <ele>291</ele>
        <time>2025-08-26T12:20:57.000Z</time>
      </trkpt>
      <trkpt lat="43.76909" lon="2.28251">
        <ele>291</ele>
        <time>2025-08-26T12:21:02.000Z</time>
      </trkpt>
      <trkpt lat="43.76909" lon="2.28251">
        <ele>291</ele>
        <time>2025-08-26T12:21:07.000Z</time>
      </trkpt>
      <trkpt lat="43.76909" lon="2.28251">
        <ele>291</ele>
        <time>2025-08-26T12:21:12.000Z</time>
      </trkpt>
      <trkpt lat="43.76909" lon="2.28251">
        <ele>291</ele>
        <time>2025-08-26T12:21:17.000Z</time>
      </trkpt>
      <trkpt lat="43.76908" lon="2.28251">
        <ele>291</ele>
        <time>2025-08-26T12:21:22.000Z</time>
      </trkpt>
      <trkpt lat="43.76908" lon="2.28251">
        <ele>291</ele>
        <time>2025-08-26T12:21:27.000Z</time>
      </trkpt>
      <trkpt lat="43.76908" lon="2.28251">
        <ele>291</ele>
        <time>2025-08-26T12:21:32.000Z</time>
      </trkpt>
      <trkpt lat="43.76908" lon="2.28251">
        <ele>291</ele>
        <time>2025-08-26T12:21:37.000Z</time>
      </trkpt>
      <trkpt lat="43.76908" lon="2.28251">
        <ele>291</ele>
        <time>2025-08-26T12:21:42.000Z</time>
      </trkpt>
      <trkpt lat="43.76908" lon="2.28251">
        <ele>291</ele>
        <time>2025-08-26T12:21:47.000Z</time>
      </trkpt>
      <trkpt lat="43.76908" lon="2.28251">
        <ele>291</ele>
        <time>2025-08-26T12:21:52.000Z</time>
      </trkpt>
      <trkpt lat="43.76909" lon="2.28251">
        <ele>292</ele>
        <time>2025-08-26T12:21:57.000Z</time>
      </trkpt>
      <trkpt lat="43.76914" lon="2.28252">
        <ele>293</ele>
        <time>2025-08-26T12:22:02.000Z</time>
      </trkpt>
      <trkpt lat="43.76917" lon="2.28252">
        <ele>292</ele>
        <time>2025-08-26T12:22:07.000Z</time>
      </trkpt>
      <trkpt lat="43.76919" lon="2.28252">
        <ele>292</ele>
        <time>2025-08-26T12:22:12.000Z</time>
      </trkpt>
      <trkpt lat="43.76925" lon="2.2825">
        <ele>291</ele>
        <time>2025-08-26T12:22:17.000Z</time>
      </trkpt>
      <trkpt lat="43.76927" lon="2.28251">
        <ele>292</ele>
        <time>2025-08-26T12:22:22.000Z</time>
      </trkpt>
      <trkpt lat="43.76928" lon="2.28251">
        <ele>291</ele>
        <time>2025-08-26T12:22:27.000Z</time>
      </trkpt>
      <trkpt lat="43.76933" lon="2.28247">
        <ele>291</ele>
        <time>2025-08-26T12:22:32.000Z</time>
      </trkpt>
      <trkpt lat="43.76936" lon="2.28245">
        <ele>292</ele>
        <time>2025-08-26T12:22:37.000Z</time>
      </trkpt>
      <trkpt lat="43.76937" lon="2.28245">
        <ele>292</ele>
        <time>2025-08-26T12:22:42.000Z</time>
      </trkpt>
      <trkpt lat="43.76942" lon="2.28247">
        <ele>292</ele>
        <time>2025-08-26T12:22:47.000Z</time>
      </trkpt>
      <trkpt lat="43.76948" lon="2.28244">
        <ele>292</ele>
        <time>2025-08-26T12:22:52.000Z</time>
      </trkpt>
      <trkpt lat="43.76954" lon="2.28242">
        <ele>291</ele>
        <time>2025-08-26T12:22:57.000Z</time>
      </trkpt>
      <trkpt lat="43.76959" lon="2.28239">
        <ele>291</ele>
        <time>2025-08-26T12:23:02.000Z</time>
      </trkpt>
      <trkpt lat="43.76966" lon="2.28236">
        <ele>290</ele>
        <time>2025-08-26T12:23:07.000Z</time>
      </trkpt>
      <trkpt lat="43.7697" lon="2.28235">
        <ele>292</ele>
        <time>2025-08-26T12:23:12.000Z</time>
      </trkpt>
      <trkpt lat="43.76976" lon="2.28235">
        <ele>291</ele>
        <time>2025-08-26T12:23:17.000Z</time>
      </trkpt>
      <trkpt lat="43.76981" lon="2.28236">
        <ele>292</ele>
        <time>2025-08-26T12:23:22.000Z</time>
      </trkpt>
      <trkpt lat="43.76986" lon="2.28241">
        <ele>292</ele>
        <time>2025-08-26T12:23:27.000Z</time>
      </trkpt>
      <trkpt lat="43.76989" lon="2.28249">
        <ele>292</ele>
        <time>2025-08-26T12:23:32.000Z</time>
      </trkpt>
      <trkpt lat="43.7699" lon="2.28259">
        <ele>291</ele>
        <time>2025-08-26T12:23:37.000Z</time>
      </trkpt>
      <trkpt lat="43.76992" lon="2.28266">
        <ele>290</ele>
        <time>2025-08-26T12:23:42.000Z</time>
      </trkpt>
      <trkpt lat="43.76991" lon="2.28273">
        <ele>290</ele>
        <time>2025-08-26T12:23:47.000Z</time>
      </trkpt>
      <trkpt lat="43.76992" lon="2.28281">
        <ele>290</ele>
        <time>2025-08-26T12:23:52.000Z</time>
      </trkpt>
      <trkpt lat="43.76991" lon="2.28288">
        <ele>290</ele>
        <time>2025-08-26T12:23:57.000Z</time>
      </trkpt>
      <trkpt lat="43.76992" lon="2.28294">
        <ele>291</ele>
        <time>2025-08-26T12:24:02.000Z</time>
      </trkpt>
      <trkpt lat="43.76992" lon="2.28301">
        <ele>291</ele>
        <time>2025-08-26T12:24:07.000Z</time>
      </trkpt>
      <trkpt lat="43.76992" lon="2.28309">
        <ele>291</ele>
        <time>2025-08-26T12:24:12.000Z</time>
      </trkpt>
      <trkpt lat="43.76993" lon="2.28317">
        <ele>291</ele>
        <time>2025-08-26T12:24:17.000Z</time>
      </trkpt>
      <trkpt lat="43.76994" lon="2.28325">
        <ele>292</ele>
        <time>2025-08-26T12:24:22.000Z</time>
      </trkpt>
      <trkpt lat="43.76995" lon="2.28334">
        <ele>291</ele>
        <time>2025-08-26T12:24:27.000Z</time>
      </trkpt>
      <trkpt lat="43.76996" lon="2.28344">
        <ele>290</ele>
        <time>2025-08-26T12:24:32.000Z</time>
      </trkpt>
      <trkpt lat="43.76998" lon="2.28351">
        <ele>291</ele>
        <time>2025-08-26T12:24:37.000Z</time>
      </trkpt>
      <trkpt lat="43.77" lon="2.28359">
        <ele>290</ele>
        <time>2025-08-26T12:24:42.000Z</time>
      </trkpt>
      <trkpt lat="43.77" lon="2.28367">
        <ele>290</ele>
        <time>2025-08-26T12:24:47.000Z</time>
      </trkpt>
      <trkpt lat="43.77001" lon="2.28375">
        <ele>289</ele>
        <time>2025-08-26T12:24:52.000Z</time>
      </trkpt>
      <trkpt lat="43.77002" lon="2.28381">
        <ele>290</ele>
        <time>2025-08-26T12:24:57.000Z</time>
      </trkpt>
      <trkpt lat="43.77001" lon="2.2839">
        <ele>289</ele>
        <time>2025-08-26T12:25:02.000Z</time>
      </trkpt>
      <trkpt lat="43.77001" lon="2.28398">
        <ele>289</ele>
        <time>2025-08-26T12:25:07.000Z</time>
      </trkpt>
      <trkpt lat="43.76998" lon="2.28406">
        <ele>290</ele>
        <time>2025-08-26T12:25:12.000Z</time>
      </trkpt>
      <trkpt lat="43.76994" lon="2.28411">
        <ele>288</ele>
        <time>2025-08-26T12:25:17.000Z</time>
      </trkpt>
      <trkpt lat="43.7699" lon="2.28421">
        <ele>287</ele>
        <time>2025-08-26T12:25:22.000Z</time>
      </trkpt>
      <trkpt lat="43.76988" lon="2.28428">
        <ele>287</ele>
        <time>2025-08-26T12:25:27.000Z</time>
      </trkpt>
      <trkpt lat="43.76986" lon="2.28436">
        <ele>287</ele>
        <time>2025-08-26T12:25:32.000Z</time>
      </trkpt>
      <trkpt lat="43.76984" lon="2.28444">
        <ele>288</ele>
        <time>2025-08-26T12:25:37.000Z</time>
      </trkpt>
      <trkpt lat="43.76981" lon="2.2845">
        <ele>289</ele>
        <time>2025-08-26T12:25:42.000Z</time>
      </trkpt>
      <trkpt lat="43.76981" lon="2.28456">
        <ele>288</ele>
        <time>2025-08-26T12:25:47.000Z</time>
      </trkpt>
      <trkpt lat="43.7698" lon="2.28462">
        <ele>289</ele>
        <time>2025-08-26T12:25:52.000Z</time>
      </trkpt>
      <trkpt lat="43.76978" lon="2.28469">
        <ele>290</ele>
        <time>2025-08-26T12:25:57.000Z</time>
      </trkpt>
      <trkpt lat="43.76976" lon="2.28474">
        <ele>290</ele>
        <time>2025-08-26T12:26:02.000Z</time>
      </trkpt>
      <trkpt lat="43.76976" lon="2.2848">
        <ele>290</ele>
        <time>2025-08-26T12:26:07.000Z</time>
      </trkpt>
      <trkpt lat="43.76976" lon="2.28487">
        <ele>289</ele>
        <time>2025-08-26T12:26:12.000Z</time>
      </trkpt>
      <trkpt lat="43.76975" lon="2.28495">
        <ele>290</ele>
        <time>2025-08-26T12:26:17.000Z</time>
      </trkpt>
      <trkpt lat="43.76973" lon="2.28503">
        <ele>289</ele>
        <time>2025-08-26T12:26:22.000Z</time>
      </trkpt>
      <trkpt lat="43.76972" lon="2.2851">
        <ele>289</ele>
        <time>2025-08-26T12:26:27.000Z</time>
      </trkpt>
      <trkpt lat="43.76969" lon="2.28519">
        <ele>292</ele>
        <time>2025-08-26T12:26:32.000Z</time>
      </trkpt>
      <trkpt lat="43.76968" lon="2.28522">
        <ele>292</ele>
        <time>2025-08-26T12:26:37.000Z</time>
      </trkpt>
      <trkpt lat="43.76968" lon="2.28523">
        <ele>292</ele>
        <time>2025-08-26T12:26:42.000Z</time>
      </trkpt>
      <trkpt lat="43.76968" lon="2.28523">
        <ele>292</ele>
        <time>2025-08-26T12:26:47.000Z</time>
      </trkpt>
      <trkpt lat="43.76968" lon="2.28523">
        <ele>292</ele>
        <time>2025-08-26T12:26:52.000Z</time>
      </trkpt>
      <trkpt lat="43.76968" lon="2.28523">
        <ele>292</ele>
        <time>2025-08-26T12:26:57.000Z</time>
      </trkpt>
      <trkpt lat="43.76968" lon="2.28523">
        <ele>292</ele>
        <time>2025-08-26T12:27:02.000Z</time>
      </trkpt>
      <trkpt lat="43.76968" lon="2.28523">
        <ele>292</ele>
        <time>2025-08-26T12:27:07.000Z</time>
      </trkpt>
      <trkpt lat="43.76968" lon="2.28523">
        <ele>292</ele>
        <time>2025-08-26T12:27:12.000Z</time>
      </trkpt>
      <trkpt lat="43.76968" lon="2.28523">
        <ele>292</ele>
        <time>2025-08-26T12:27:17.000Z</time>
      </trkpt>
      <trkpt lat="43.76968" lon="2.28523">
        <ele>292</ele>
        <time>2025-08-26T12:27:22.000Z</time>
      </trkpt>
      <trkpt lat="43.76967" lon="2.28525">
        <ele>294</ele>
        <time>2025-08-26T12:27:27.000Z</time>
      </trkpt>
      <trkpt lat="43.76966" lon="2.28531">
        <ele>295</ele>
        <time>2025-08-26T12:27:32.000Z</time>
      </trkpt>
      <trkpt lat="43.76965" lon="2.28534">
        <ele>294</ele>
        <time>2025-08-26T12:27:37.000Z</time>
      </trkpt>
      <trkpt lat="43.76963" lon="2.28539">
        <ele>294</ele>
        <time>2025-08-26T12:27:42.000Z</time>
      </trkpt>
      <trkpt lat="43.7696" lon="2.28545">
        <ele>292</ele>
        <time>2025-08-26T12:27:47.000Z</time>
      </trkpt>
      <trkpt lat="43.76958" lon="2.28552">
        <ele>293</ele>
        <time>2025-08-26T12:27:52.000Z</time>
      </trkpt>
      <trkpt lat="43.76957" lon="2.2856">
        <ele>293</ele>
        <time>2025-08-26T12:27:57.000Z</time>
      </trkpt>
      <trkpt lat="43.76954" lon="2.28568">
        <ele>294</ele>
        <time>2025-08-26T12:28:02.000Z</time>
      </trkpt>
      <trkpt lat="43.76953" lon="2.28577">
        <ele>293</ele>
        <time>2025-08-26T12:28:07.000Z</time>
      </trkpt>
      <trkpt lat="43.76953" lon="2.28584">
        <ele>293</ele>
        <time>2025-08-26T12:28:12.000Z</time>
      </trkpt>
      <trkpt lat="43.7695" lon="2.28592">
        <ele>292</ele>
        <time>2025-08-26T12:28:17.000Z</time>
      </trkpt>
      <trkpt lat="43.76947" lon="2.286">
        <ele>292</ele>
        <time>2025-08-26T12:28:22.000Z</time>
      </trkpt>
      <trkpt lat="43.76945" lon="2.28609">
        <ele>293</ele>
        <time>2025-08-26T12:28:27.000Z</time>
      </trkpt>
      <trkpt lat="43.76944" lon="2.28617">
        <ele>293</ele>
        <time>2025-08-26T12:28:32.000Z</time>
      </trkpt>
      <trkpt lat="43.76942" lon="2.28625">
        <ele>293</ele>
        <time>2025-08-26T12:28:37.000Z</time>
      </trkpt>
      <trkpt lat="43.7694" lon="2.28633">
        <ele>294</ele>
        <time>2025-08-26T12:28:42.000Z</time>
      </trkpt>
      <trkpt lat="43.76938" lon="2.28641">
        <ele>294</ele>
        <time>2025-08-26T12:28:47.000Z</time>
      </trkpt>
      <trkpt lat="43.76936" lon="2.2865">
        <ele>294</ele>
        <time>2025-08-26T12:28:52.000Z</time>
      </trkpt>
      <trkpt lat="43.76935" lon="2.28657">
        <ele>295</ele>
        <time>2025-08-26T12:28:57.000Z</time>
      </trkpt>
      <trkpt lat="43.76933" lon="2.28666">
        <ele>295</ele>
        <time>2025-08-26T12:29:02.000Z</time>
      </trkpt>
      <trkpt lat="43.76932" lon="2.28674">
        <ele>296</ele>
        <time>2025-08-26T12:29:07.000Z</time>
      </trkpt>
      <trkpt lat="43.76932" lon="2.28684">
        <ele>295</ele>
        <time>2025-08-26T12:29:12.000Z</time>
      </trkpt>
      <trkpt lat="43.7693" lon="2.28692">
        <ele>294</ele>
        <time>2025-08-26T12:29:17.000Z</time>
      </trkpt>
      <trkpt lat="43.76928" lon="2.28698">
        <ele>293</ele>
        <time>2025-08-26T12:29:22.000Z</time>
      </trkpt>
      <trkpt lat="43.76926" lon="2.28704">
        <ele>291</ele>
        <time>2025-08-26T12:29:27.000Z</time>
      </trkpt>
      <trkpt lat="43.76924" lon="2.28713">
        <ele>290</ele>
        <time>2025-08-26T12:29:32.000Z</time>
      </trkpt>
      <trkpt lat="43.76924" lon="2.2872">
        <ele>291</ele>
        <time>2025-08-26T12:29:37.000Z</time>
      </trkpt>
      <trkpt lat="43.76924" lon="2.2873">
        <ele>290</ele>
        <time>2025-08-26T12:29:42.000Z</time>
      </trkpt>
      <trkpt lat="43.76925" lon="2.28739">
        <ele>291</ele>
        <time>2025-08-26T12:29:47.000Z</time>
      </trkpt>
      <trkpt lat="43.76926" lon="2.28747">
        <ele>291</ele>
        <time>2025-08-26T12:29:52.000Z</time>
      </trkpt>
      <trkpt lat="43.76927" lon="2.28754">
        <ele>292</ele>
        <time>2025-08-26T12:29:57.000Z</time>
      </trkpt>
      <trkpt lat="43.76926" lon="2.28764">
        <ele>291</ele>
        <time>2025-08-26T12:30:02.000Z</time>
      </trkpt>
      <trkpt lat="43.76927" lon="2.28772">
        <ele>290</ele>
        <time>2025-08-26T12:30:07.000Z</time>
      </trkpt>
      <trkpt lat="43.76927" lon="2.2878">
        <ele>291</ele>
        <time>2025-08-26T12:30:12.000Z</time>
      </trkpt>
      <trkpt lat="43.76929" lon="2.28789">
        <ele>290</ele>
        <time>2025-08-26T12:30:17.000Z</time>
      </trkpt>
      <trkpt lat="43.7693" lon="2.28797">
        <ele>291</ele>
        <time>2025-08-26T12:30:22.000Z</time>
      </trkpt>
      <trkpt lat="43.76931" lon="2.28805">
        <ele>291</ele>
        <time>2025-08-26T12:30:27.000Z</time>
      </trkpt>
      <trkpt lat="43.76932" lon="2.28812">
        <ele>291</ele>
        <time>2025-08-26T12:30:32.000Z</time>
      </trkpt>
      <trkpt lat="43.76933" lon="2.28821">
        <ele>291</ele>
        <time>2025-08-26T12:30:37.000Z</time>
      </trkpt>
      <trkpt lat="43.76934" lon="2.28829">
        <ele>291</ele>
        <time>2025-08-26T12:30:42.000Z</time>
      </trkpt>
      <trkpt lat="43.76934" lon="2.28836">
        <ele>291</ele>
        <time>2025-08-26T12:30:47.000Z</time>
      </trkpt>
      <trkpt lat="43.76937" lon="2.28844">
        <ele>291</ele>
        <time>2025-08-26T12:30:52.000Z</time>
      </trkpt>
      <trkpt lat="43.76938" lon="2.28852">
        <ele>292</ele>
        <time>2025-08-26T12:30:57.000Z</time>
      </trkpt>
      <trkpt lat="43.76939" lon="2.2886">
        <ele>293</ele>
        <time>2025-08-26T12:31:02.000Z</time>
      </trkpt>
      <trkpt lat="43.76941" lon="2.28868">
        <ele>294</ele>
        <time>2025-08-26T12:31:07.000Z</time>
      </trkpt>
      <trkpt lat="43.76943" lon="2.28877">
        <ele>294</ele>
        <time>2025-08-26T12:31:12.000Z</time>
      </trkpt>
      <trkpt lat="43.76945" lon="2.28885">
        <ele>294</ele>
        <time>2025-08-26T12:31:17.000Z</time>
      </trkpt>
      <trkpt lat="43.76948" lon="2.28892">
        <ele>295</ele>
        <time>2025-08-26T12:31:22.000Z</time>
      </trkpt>
      <trkpt lat="43.7695" lon="2.28899">
        <ele>296</ele>
        <time>2025-08-26T12:31:27.000Z</time>
      </trkpt>
      <trkpt lat="43.76951" lon="2.28905">
        <ele>295</ele>
        <time>2025-08-26T12:31:32.000Z</time>
      </trkpt>
      <trkpt lat="43.76955" lon="2.2891">
        <ele>295</ele>
        <time>2025-08-26T12:31:37.000Z</time>
      </trkpt>
      <trkpt lat="43.76959" lon="2.28915">
        <ele>294</ele>
        <time>2025-08-26T12:31:42.000Z</time>
      </trkpt>
      <trkpt lat="43.76962" lon="2.28921">
        <ele>296</ele>
        <time>2025-08-26T12:31:47.000Z</time>
      </trkpt>
      <trkpt lat="43.76966" lon="2.28926">
        <ele>295</ele>
        <time>2025-08-26T12:31:52.000Z</time>
      </trkpt>
      <trkpt lat="43.7697" lon="2.28932">
        <ele>294</ele>
        <time>2025-08-26T12:31:57.000Z</time>
      </trkpt>
      <trkpt lat="43.76974" lon="2.28938">
        <ele>295</ele>
        <time>2025-08-26T12:32:02.000Z</time>
      </trkpt>
      <trkpt lat="43.76977" lon="2.28945">
        <ele>294</ele>
        <time>2025-08-26T12:32:07.000Z</time>
      </trkpt>
      <trkpt lat="43.76981" lon="2.28951">
        <ele>294</ele>
        <time>2025-08-26T12:32:12.000Z</time>
      </trkpt>
      <trkpt lat="43.76983" lon="2.28957">
        <ele>295</ele>
        <time>2025-08-26T12:32:17.000Z</time>
      </trkpt>
      <trkpt lat="43.76985" lon="2.28965">
        <ele>294</ele>
        <time>2025-08-26T12:32:22.000Z</time>
      </trkpt>
      <trkpt lat="43.76989" lon="2.28972">
        <ele>294</ele>
        <time>2025-08-26T12:32:27.000Z</time>
      </trkpt>
      <trkpt lat="43.76993" lon="2.2898">
        <ele>294</ele>
        <time>2025-08-26T12:32:32.000Z</time>
      </trkpt>
      <trkpt lat="43.76998" lon="2.28985">
        <ele>294</ele>
        <time>2025-08-26T12:32:37.000Z</time>
      </trkpt>
      <trkpt lat="43.77002" lon="2.28991">
        <ele>294</ele>
        <time>2025-08-26T12:32:42.000Z</time>
      </trkpt>
      <trkpt lat="43.77004" lon="2.28997">
        <ele>294</ele>
        <time>2025-08-26T12:32:47.000Z</time>
      </trkpt>
      <trkpt lat="43.77007" lon="2.29002">
        <ele>295</ele>
        <time>2025-08-26T12:32:52.000Z</time>
      </trkpt>
      <trkpt lat="43.77011" lon="2.29007">
        <ele>295</ele>
        <time>2025-08-26T12:32:57.000Z</time>
      </trkpt>
      <trkpt lat="43.77013" lon="2.29014">
        <ele>295</ele>
        <time>2025-08-26T12:33:02.000Z</time>
      </trkpt>
      <trkpt lat="43.77016" lon="2.2902">
        <ele>294</ele>
        <time>2025-08-26T12:33:07.000Z</time>
      </trkpt>
      <trkpt lat="43.77019" lon="2.29026">
        <ele>294</ele>
        <time>2025-08-26T12:33:12.000Z</time>
      </trkpt>
      <trkpt lat="43.77022" lon="2.29031">
        <ele>293</ele>
        <time>2025-08-26T12:33:17.000Z</time>
      </trkpt>
      <trkpt lat="43.77026" lon="2.29037">
        <ele>293</ele>
        <time>2025-08-26T12:33:22.000Z</time>
      </trkpt>
      <trkpt lat="43.77028" lon="2.29044">
        <ele>294</ele>
        <time>2025-08-26T12:33:27.000Z</time>
      </trkpt>
      <trkpt lat="43.77031" lon="2.29052">
        <ele>295</ele>
        <time>2025-08-26T12:33:32.000Z</time>
      </trkpt>
      <trkpt lat="43.77034" lon="2.29061">
        <ele>295</ele>
        <time>2025-08-26T12:33:37.000Z</time>
      </trkpt>
      <trkpt lat="43.77036" lon="2.2907">
        <ele>295</ele>
        <time>2025-08-26T12:33:42.000Z</time>
      </trkpt>
      <trkpt lat="43.77038" lon="2.29079">
        <ele>296</ele>
        <time>2025-08-26T12:33:47.000Z</time>
      </trkpt>
      <trkpt lat="43.7704" lon="2.29088">
        <ele>297</ele>
        <time>2025-08-26T12:33:52.000Z</time>
      </trkpt>
      <trkpt lat="43.77043" lon="2.29096">
        <ele>297</ele>
        <time>2025-08-26T12:33:57.000Z</time>
      </trkpt>
      <trkpt lat="43.77044" lon="2.29102">
        <ele>297</ele>
        <time>2025-08-26T12:34:02.000Z</time>
      </trkpt>
      <trkpt lat="43.77047" lon="2.2911">
        <ele>298</ele>
        <time>2025-08-26T12:34:07.000Z</time>
      </trkpt>
      <trkpt lat="43.77049" lon="2.29118">
        <ele>299</ele>
        <time>2025-08-26T12:34:12.000Z</time>
      </trkpt>
      <trkpt lat="43.77051" lon="2.29125">
        <ele>300</ele>
        <time>2025-08-26T12:34:17.000Z</time>
      </trkpt>
      <trkpt lat="43.77053" lon="2.29132">
        <ele>299</ele>
        <time>2025-08-26T12:34:22.000Z</time>
      </trkpt>
      <trkpt lat="43.77055" lon="2.29139">
        <ele>299</ele>
        <time>2025-08-26T12:34:27.000Z</time>
      </trkpt>
      <trkpt lat="43.77058" lon="2.29145">
        <ele>299</ele>
        <time>2025-08-26T12:34:32.000Z</time>
      </trkpt>
      <trkpt lat="43.7706" lon="2.29153">
        <ele>300</ele>
        <time>2025-08-26T12:34:37.000Z</time>
      </trkpt>
      <trkpt lat="43.77063" lon="2.2916">
        <ele>300</ele>
        <time>2025-08-26T12:34:42.000Z</time>
      </trkpt>
      <trkpt lat="43.77064" lon="2.29168">
        <ele>301</ele>
        <time>2025-08-26T12:34:47.000Z</time>
      </trkpt>
      <trkpt lat="43.77066" lon="2.29175">
        <ele>301</ele>
        <time>2025-08-26T12:34:52.000Z</time>
      </trkpt>
      <trkpt lat="43.77067" lon="2.29184">
        <ele>300</ele>
        <time>2025-08-26T12:34:57.000Z</time>
      </trkpt>
      <trkpt lat="43.77067" lon="2.29191">
        <ele>300</ele>
        <time>2025-08-26T12:35:02.000Z</time>
      </trkpt>
      <trkpt lat="43.77068" lon="2.29199">
        <ele>301</ele>
        <time>2025-08-26T12:35:07.000Z</time>
      </trkpt>
      <trkpt lat="43.77069" lon="2.29206">
        <ele>303</ele>
        <time>2025-08-26T12:35:12.000Z</time>
      </trkpt>
      <trkpt lat="43.77071" lon="2.29213">
        <ele>303</ele>
        <time>2025-08-26T12:35:17.000Z</time>
      </trkpt>
      <trkpt lat="43.77073" lon="2.29221">
        <ele>303</ele>
        <time>2025-08-26T12:35:22.000Z</time>
      </trkpt>
      <trkpt lat="43.77076" lon="2.2923">
        <ele>303</ele>
        <time>2025-08-26T12:35:27.000Z</time>
      </trkpt>
      <trkpt lat="43.77078" lon="2.29237">
        <ele>303</ele>
        <time>2025-08-26T12:35:32.000Z</time>
      </trkpt>
      <trkpt lat="43.7708" lon="2.29244">
        <ele>304</ele>
        <time>2025-08-26T12:35:37.000Z</time>
      </trkpt>
      <trkpt lat="43.77082" lon="2.29252">
        <ele>303</ele>
        <time>2025-08-26T12:35:42.000Z</time>
      </trkpt>
      <trkpt lat="43.77083" lon="2.2926">
        <ele>302</ele>
        <time>2025-08-26T12:35:47.000Z</time>
      </trkpt>
      <trkpt lat="43.77085" lon="2.29268">
        <ele>301</ele>
        <time>2025-08-26T12:35:52.000Z</time>
      </trkpt>
      <trkpt lat="43.77087" lon="2.29275">
        <ele>301</ele>
        <time>2025-08-26T12:35:57.000Z</time>
      </trkpt>
      <trkpt lat="43.77088" lon="2.29281">
        <ele>301</ele>
        <time>2025-08-26T12:36:02.000Z</time>
      </trkpt>
      <trkpt lat="43.77089" lon="2.29289">
        <ele>300</ele>
        <time>2025-08-26T12:36:07.000Z</time>
      </trkpt>
      <trkpt lat="43.77091" lon="2.29297">
        <ele>299</ele>
        <time>2025-08-26T12:36:12.000Z</time>
      </trkpt>
      <trkpt lat="43.77092" lon="2.29306">
        <ele>299</ele>
        <time>2025-08-26T12:36:17.000Z</time>
      </trkpt>
      <trkpt lat="43.77093" lon="2.29314">
        <ele>300</ele>
        <time>2025-08-26T12:36:22.000Z</time>
      </trkpt>
      <trkpt lat="43.77093" lon="2.29322">
        <ele>300</ele>
        <time>2025-08-26T12:36:27.000Z</time>
      </trkpt>
      <trkpt lat="43.77093" lon="2.29329">
        <ele>300</ele>
        <time>2025-08-26T12:36:32.000Z</time>
      </trkpt>
      <trkpt lat="43.77092" lon="2.29336">
        <ele>299</ele>
        <time>2025-08-26T12:36:37.000Z</time>
      </trkpt>
      <trkpt lat="43.77092" lon="2.29343">
        <ele>300</ele>
        <time>2025-08-26T12:36:42.000Z</time>
      </trkpt>
      <trkpt lat="43.77093" lon="2.29352">
        <ele>301</ele>
        <time>2025-08-26T12:36:47.000Z</time>
      </trkpt>
      <trkpt lat="43.77094" lon="2.29361">
        <ele>301</ele>
        <time>2025-08-26T12:36:52.000Z</time>
      </trkpt>
      <trkpt lat="43.77093" lon="2.29369">
        <ele>302</ele>
        <time>2025-08-26T12:36:57.000Z</time>
      </trkpt>
      <trkpt lat="43.77093" lon="2.29376">
        <ele>302</ele>
        <time>2025-08-26T12:37:02.000Z</time>
      </trkpt>
      <trkpt lat="43.77092" lon="2.29383">
        <ele>304</ele>
        <time>2025-08-26T12:37:07.000Z</time>
      </trkpt>
      <trkpt lat="43.77092" lon="2.29391">
        <ele>303</ele>
        <time>2025-08-26T12:37:12.000Z</time>
      </trkpt>
      <trkpt lat="43.77091" lon="2.29398">
        <ele>305</ele>
        <time>2025-08-26T12:37:17.000Z</time>
      </trkpt>
      <trkpt lat="43.77089" lon="2.29405">
        <ele>304</ele>
        <time>2025-08-26T12:37:22.000Z</time>
      </trkpt>
      <trkpt lat="43.77088" lon="2.29413">
        <ele>305</ele>
        <time>2025-08-26T12:37:27.000Z</time>
      </trkpt>
      <trkpt lat="43.77087" lon="2.29423">
        <ele>304</ele>
        <time>2025-08-26T12:37:32.000Z</time>
      </trkpt>
      <trkpt lat="43.77084" lon="2.29431">
        <ele>303</ele>
        <time>2025-08-26T12:37:37.000Z</time>
      </trkpt>
      <trkpt lat="43.77082" lon="2.29439">
        <ele>302</ele>
        <time>2025-08-26T12:37:42.000Z</time>
      </trkpt>
      <trkpt lat="43.7708" lon="2.29448">
        <ele>302</ele>
        <time>2025-08-26T12:37:47.000Z</time>
      </trkpt>
      <trkpt lat="43.77078" lon="2.29456">
        <ele>303</ele>
        <time>2025-08-26T12:37:52.000Z</time>
      </trkpt>
      <trkpt lat="43.77075" lon="2.29465">
        <ele>306</ele>
        <time>2025-08-26T12:37:57.000Z</time>
      </trkpt>
      <trkpt lat="43.77073" lon="2.29471">
        <ele>306</ele>
        <time>2025-08-26T12:38:02.000Z</time>
      </trkpt>
      <trkpt lat="43.77071" lon="2.29478">
        <ele>306</ele>
        <time>2025-08-26T12:38:07.000Z</time>
      </trkpt>
      <trkpt lat="43.7707" lon="2.29487">
        <ele>305</ele>
        <time>2025-08-26T12:38:12.000Z</time>
      </trkpt>
      <trkpt lat="43.77068" lon="2.29493">
        <ele>306</ele>
        <time>2025-08-26T12:38:17.000Z</time>
      </trkpt>
      <trkpt lat="43.77064" lon="2.29501">
        <ele>307</ele>
        <time>2025-08-26T12:38:22.000Z</time>
      </trkpt>
      <trkpt lat="43.77063" lon="2.29507">
        <ele>307</ele>
        <time>2025-08-26T12:38:27.000Z</time>
      </trkpt>
      <trkpt lat="43.7706" lon="2.29516">
        <ele>306</ele>
        <time>2025-08-26T12:38:32.000Z</time>
      </trkpt>
      <trkpt lat="43.77057" lon="2.29525">
        <ele>304</ele>
        <time>2025-08-26T12:38:37.000Z</time>
      </trkpt>
      <trkpt lat="43.77055" lon="2.29532">
        <ele>302</ele>
        <time>2025-08-26T12:38:42.000Z</time>
      </trkpt>
      <trkpt lat="43.77053" lon="2.29539">
        <ele>301</ele>
        <time>2025-08-26T12:38:47.000Z</time>
      </trkpt>
      <trkpt lat="43.77051" lon="2.29546">
        <ele>299</ele>
        <time>2025-08-26T12:38:52.000Z</time>
      </trkpt>
      <trkpt lat="43.77047" lon="2.29553">
        <ele>299</ele>
        <time>2025-08-26T12:38:57.000Z</time>
      </trkpt>
      <trkpt lat="43.77045" lon="2.29559">
        <ele>298</ele>
        <time>2025-08-26T12:39:02.000Z</time>
      </trkpt>
      <trkpt lat="43.77042" lon="2.29566">
        <ele>299</ele>
        <time>2025-08-26T12:39:07.000Z</time>
      </trkpt>
      <trkpt lat="43.77039" lon="2.29574">
        <ele>299</ele>
        <time>2025-08-26T12:39:12.000Z</time>
      </trkpt>
      <trkpt lat="43.77036" lon="2.29581">
        <ele>300</ele>
        <time>2025-08-26T12:39:17.000Z</time>
      </trkpt>
      <trkpt lat="43.77034" lon="2.29587">
        <ele>299</ele>
        <time>2025-08-26T12:39:22.000Z</time>
      </trkpt>
      <trkpt lat="43.77033" lon="2.29594">
        <ele>299</ele>
        <time>2025-08-26T12:39:27.000Z</time>
      </trkpt>
      <trkpt lat="43.77032" lon="2.296">
        <ele>298</ele>
        <time>2025-08-26T12:39:32.000Z</time>
      </trkpt>
      <trkpt lat="43.7703" lon="2.29608">
        <ele>297</ele>
        <time>2025-08-26T12:39:37.000Z</time>
      </trkpt>
      <trkpt lat="43.77028" lon="2.29613">
        <ele>297</ele>
        <time>2025-08-26T12:39:42.000Z</time>
      </trkpt>
      <trkpt lat="43.77024" lon="2.29621">
        <ele>297</ele>
        <time>2025-08-26T12:39:47.000Z</time>
      </trkpt>
      <trkpt lat="43.77023" lon="2.29629">
        <ele>297</ele>
        <time>2025-08-26T12:39:52.000Z</time>
      </trkpt>
      <trkpt lat="43.77021" lon="2.29635">
        <ele>298</ele>
        <time>2025-08-26T12:39:57.000Z</time>
      </trkpt>
      <trkpt lat="43.77018" lon="2.29643">
        <ele>297</ele>
        <time>2025-08-26T12:40:02.000Z</time>
      </trkpt>
      <trkpt lat="43.77016" lon="2.2965">
        <ele>295</ele>
        <time>2025-08-26T12:40:07.000Z</time>
      </trkpt>
      <trkpt lat="43.77014" lon="2.29658">
        <ele>296</ele>
        <time>2025-08-26T12:40:12.000Z</time>
      </trkpt>
      <trkpt lat="43.77014" lon="2.29664">
        <ele>297</ele>
        <time>2025-08-26T12:40:17.000Z</time>
      </trkpt>
      <trkpt lat="43.77012" lon="2.29671">
        <ele>298</ele>
        <time>2025-08-26T12:40:22.000Z</time>
      </trkpt>
      <trkpt lat="43.77009" lon="2.29679">
        <ele>298</ele>
        <time>2025-08-26T12:40:27.000Z</time>
      </trkpt>
      <trkpt lat="43.77006" lon="2.29685">
        <ele>299</ele>
        <time>2025-08-26T12:40:32.000Z</time>
      </trkpt>
      <trkpt lat="43.77002" lon="2.2969">
        <ele>296</ele>
        <time>2025-08-26T12:40:37.000Z</time>
      </trkpt>
      <trkpt lat="43.76997" lon="2.29696">
        <ele>296</ele>
        <time>2025-08-26T12:40:42.000Z</time>
      </trkpt>
      <trkpt lat="43.76993" lon="2.29701">
        <ele>296</ele>
        <time>2025-08-26T12:40:47.000Z</time>
      </trkpt>
      <trkpt lat="43.7699" lon="2.29706">
        <ele>296</ele>
        <time>2025-08-26T12:40:52.000Z</time>
      </trkpt>
      <trkpt lat="43.76986" lon="2.29711">
        <ele>297</ele>
        <time>2025-08-26T12:40:57.000Z</time>
      </trkpt>
      <trkpt lat="43.76982" lon="2.29715">
        <ele>297</ele>
        <time>2025-08-26T12:41:02.000Z</time>
      </trkpt>
      <trkpt lat="43.76978" lon="2.2972">
        <ele>295</ele>
        <time>2025-08-26T12:41:07.000Z</time>
      </trkpt>
      <trkpt lat="43.76974" lon="2.29726">
        <ele>293</ele>
        <time>2025-08-26T12:41:12.000Z</time>
      </trkpt>
      <trkpt lat="43.7697" lon="2.29732">
        <ele>294</ele>
        <time>2025-08-26T12:41:17.000Z</time>
      </trkpt>
      <trkpt lat="43.76966" lon="2.29738">
        <ele>294</ele>
        <time>2025-08-26T12:41:22.000Z</time>
      </trkpt>
      <trkpt lat="43.76963" lon="2.29745">
        <ele>295</ele>
        <time>2025-08-26T12:41:27.000Z</time>
      </trkpt>
      <trkpt lat="43.76958" lon="2.29751">
        <ele>295</ele>
        <time>2025-08-26T12:41:32.000Z</time>
      </trkpt>
      <trkpt lat="43.76954" lon="2.29757">
        <ele>294</ele>
        <time>2025-08-26T12:41:37.000Z</time>
      </trkpt>
      <trkpt lat="43.76949" lon="2.2976">
        <ele>295</ele>
        <time>2025-08-26T12:41:42.000Z</time>
      </trkpt>
      <trkpt lat="43.76945" lon="2.29767">
        <ele>297</ele>
        <time>2025-08-26T12:41:47.000Z</time>
      </trkpt>
      <trkpt lat="43.76941" lon="2.29774">
        <ele>298</ele>
        <time>2025-08-26T12:41:52.000Z</time>
      </trkpt>
      <trkpt lat="43.76937" lon="2.29782">
        <ele>297</ele>
        <time>2025-08-26T12:41:57.000Z</time>
      </trkpt>
      <trkpt lat="43.76935" lon="2.29788">
        <ele>299</ele>
        <time>2025-08-26T12:42:02.000Z</time>
      </trkpt>
      <trkpt lat="43.76933" lon="2.29795">
        <ele>299</ele>
        <time>2025-08-26T12:42:07.000Z</time>
      </trkpt>
      <trkpt lat="43.76931" lon="2.298">
        <ele>301</ele>
        <time>2025-08-26T12:42:12.000Z</time>
      </trkpt>
      <trkpt lat="43.76929" lon="2.29807">
        <ele>302</ele>
        <time>2025-08-26T12:42:17.000Z</time>
      </trkpt>
      <trkpt lat="43.76924" lon="2.29812">
        <ele>303</ele>
        <time>2025-08-26T12:42:22.000Z</time>
      </trkpt>
      <trkpt lat="43.7692" lon="2.29819">
        <ele>303</ele>
        <time>2025-08-26T12:42:27.000Z</time>
      </trkpt>
      <trkpt lat="43.76916" lon="2.29826">
        <ele>302</ele>
        <time>2025-08-26T12:42:32.000Z</time>
      </trkpt>
      <trkpt lat="43.76913" lon="2.29833">
        <ele>302</ele>
        <time>2025-08-26T12:42:37.000Z</time>
      </trkpt>
      <trkpt lat="43.76909" lon="2.29839">
        <ele>302</ele>
        <time>2025-08-26T12:42:42.000Z</time>
      </trkpt>
      <trkpt lat="43.76905" lon="2.29846">
        <ele>301</ele>
        <time>2025-08-26T12:42:47.000Z</time>
      </trkpt>
      <trkpt lat="43.76901" lon="2.29851">
        <ele>302</ele>
        <time>2025-08-26T12:42:52.000Z</time>
      </trkpt>
      <trkpt lat="43.76897" lon="2.29856">
        <ele>304</ele>
        <time>2025-08-26T12:42:57.000Z</time>
      </trkpt>
      <trkpt lat="43.76892" lon="2.29862">
        <ele>303</ele>
        <time>2025-08-26T12:43:02.000Z</time>
      </trkpt>
      <trkpt lat="43.76889" lon="2.29869">
        <ele>304</ele>
        <time>2025-08-26T12:43:07.000Z</time>
      </trkpt>
      <trkpt lat="43.76885" lon="2.29876">
        <ele>303</ele>
        <time>2025-08-26T12:43:12.000Z</time>
      </trkpt>
      <trkpt lat="43.76881" lon="2.29881">
        <ele>303</ele>
        <time>2025-08-26T12:43:17.000Z</time>
      </trkpt>
      <trkpt lat="43.76877" lon="2.29886">
        <ele>303</ele>
        <time>2025-08-26T12:43:22.000Z</time>
      </trkpt>
      <trkpt lat="43.76872" lon="2.29891">
        <ele>303</ele>
        <time>2025-08-26T12:43:27.000Z</time>
      </trkpt>
      <trkpt lat="43.76867" lon="2.29898">
        <ele>301</ele>
        <time>2025-08-26T12:43:32.000Z</time>
      </trkpt>
      <trkpt lat="43.76864" lon="2.29903">
        <ele>300</ele>
        <time>2025-08-26T12:43:37.000Z</time>
      </trkpt>
      <trkpt lat="43.7686" lon="2.29908">
        <ele>299</ele>
        <time>2025-08-26T12:43:42.000Z</time>
      </trkpt>
      <trkpt lat="43.76856" lon="2.29913">
        <ele>298</ele>
        <time>2025-08-26T12:43:47.000Z</time>
      </trkpt>
      <trkpt lat="43.76852" lon="2.2992">
        <ele>298</ele>
        <time>2025-08-26T12:43:52.000Z</time>
      </trkpt>
      <trkpt lat="43.76847" lon="2.29925">
        <ele>299</ele>
        <time>2025-08-26T12:43:57.000Z</time>
      </trkpt>
      <trkpt lat="43.76845" lon="2.29933">
        <ele>298</ele>
        <time>2025-08-26T12:44:02.000Z</time>
      </trkpt>
      <trkpt lat="43.76841" lon="2.29938">
        <ele>299</ele>
        <time>2025-08-26T12:44:07.000Z</time>
      </trkpt>
      <trkpt lat="43.76838" lon="2.29945">
        <ele>300</ele>
        <time>2025-08-26T12:44:12.000Z</time>
      </trkpt>
      <trkpt lat="43.76835" lon="2.29951">
        <ele>300</ele>
        <time>2025-08-26T12:44:17.000Z</time>
      </trkpt>
      <trkpt lat="43.76833" lon="2.29957">
        <ele>301</ele>
        <time>2025-08-26T12:44:22.000Z</time>
      </trkpt>
      <trkpt lat="43.76829" lon="2.29964">
        <ele>300</ele>
        <time>2025-08-26T12:44:27.000Z</time>
      </trkpt>
      <trkpt lat="43.76826" lon="2.29971">
        <ele>299</ele>
        <time>2025-08-26T12:44:32.000Z</time>
      </trkpt>
      <trkpt lat="43.76823" lon="2.29979">
        <ele>299</ele>
        <time>2025-08-26T12:44:37.000Z</time>
      </trkpt>
      <trkpt lat="43.76821" lon="2.29985">
        <ele>298</ele>
        <time>2025-08-26T12:44:42.000Z</time>
      </trkpt>
      <trkpt lat="43.76818" lon="2.29992">
        <ele>298</ele>
        <time>2025-08-26T12:44:47.000Z</time>
      </trkpt>
      <trkpt lat="43.76815" lon="2.29999">
        <ele>296</ele>
        <time>2025-08-26T12:44:52.000Z</time>
      </trkpt>
      <trkpt lat="43.76813" lon="2.30007">
        <ele>296</ele>
        <time>2025-08-26T12:44:57.000Z</time>
      </trkpt>
      <trkpt lat="43.76811" lon="2.30015">
        <ele>295</ele>
        <time>2025-08-26T12:45:02.000Z</time>
      </trkpt>
      <trkpt lat="43.76808" lon="2.30022">
        <ele>294</ele>
        <time>2025-08-26T12:45:07.000Z</time>
      </trkpt>
      <trkpt lat="43.76806" lon="2.30029">
        <ele>293</ele>
        <time>2025-08-26T12:45:12.000Z</time>
      </trkpt>
      <trkpt lat="43.76804" lon="2.30035">
        <ele>293</ele>
        <time>2025-08-26T12:45:17.000Z</time>
      </trkpt>
      <trkpt lat="43.76801" lon="2.30043">
        <ele>293</ele>
        <time>2025-08-26T12:45:22.000Z</time>
      </trkpt>
      <trkpt lat="43.76797" lon="2.3005">
        <ele>294</ele>
        <time>2025-08-26T12:45:27.000Z</time>
      </trkpt>
      <trkpt lat="43.76793" lon="2.30056">
        <ele>295</ele>
        <time>2025-08-26T12:45:32.000Z</time>
      </trkpt>
      <trkpt lat="43.76788" lon="2.30062">
        <ele>297</ele>
        <time>2025-08-26T12:45:37.000Z</time>
      </trkpt>
      <trkpt lat="43.76784" lon="2.30066">
        <ele>298</ele>
        <time>2025-08-26T12:45:42.000Z</time>
      </trkpt>
      <trkpt lat="43.7678" lon="2.30071">
        <ele>297</ele>
        <time>2025-08-26T12:45:47.000Z</time>
      </trkpt>
      <trkpt lat="43.76776" lon="2.30076">
        <ele>296</ele>
        <time>2025-08-26T12:45:52.000Z</time>
      </trkpt>
      <trkpt lat="43.76771" lon="2.30082">
        <ele>297</ele>
        <time>2025-08-26T12:45:57.000Z</time>
      </trkpt>
      <trkpt lat="43.76768" lon="2.30088">
        <ele>298</ele>
        <time>2025-08-26T12:46:02.000Z</time>
      </trkpt>
      <trkpt lat="43.76764" lon="2.30094">
        <ele>299</ele>
        <time>2025-08-26T12:46:07.000Z</time>
      </trkpt>
      <trkpt lat="43.7676" lon="2.301">
        <ele>299</ele>
        <time>2025-08-26T12:46:12.000Z</time>
      </trkpt>
      <trkpt lat="43.76757" lon="2.30104">
        <ele>296</ele>
        <time>2025-08-26T12:46:17.000Z</time>
      </trkpt>
      <trkpt lat="43.76753" lon="2.30106">
        <ele>294</ele>
        <time>2025-08-26T12:46:22.000Z</time>
      </trkpt>
      <trkpt lat="43.76748" lon="2.30111">
        <ele>294</ele>
        <time>2025-08-26T12:46:27.000Z</time>
      </trkpt>
      <trkpt lat="43.76742" lon="2.30115">
        <ele>293</ele>
        <time>2025-08-26T12:46:32.000Z</time>
      </trkpt>
      <trkpt lat="43.76737" lon="2.30118">
        <ele>292</ele>
        <time>2025-08-26T12:46:37.000Z</time>
      </trkpt>
      <trkpt lat="43.76733" lon="2.3012">
        <ele>292</ele>
        <time>2025-08-26T12:46:42.000Z</time>
      </trkpt>
      <trkpt lat="43.76727" lon="2.30122">
        <ele>292</ele>
        <time>2025-08-26T12:46:47.000Z</time>
      </trkpt>
      <trkpt lat="43.76723" lon="2.30125">
        <ele>291</ele>
        <time>2025-08-26T12:46:52.000Z</time>
      </trkpt>
      <trkpt lat="43.76717" lon="2.30125">
        <ele>290</ele>
        <time>2025-08-26T12:46:57.000Z</time>
      </trkpt>
      <trkpt lat="43.76712" lon="2.30124">
        <ele>291</ele>
        <time>2025-08-26T12:47:02.000Z</time>
      </trkpt>
      <trkpt lat="43.76706" lon="2.30127">
        <ele>291</ele>
        <time>2025-08-26T12:47:07.000Z</time>
      </trkpt>
      <trkpt lat="43.76701" lon="2.30131">
        <ele>291</ele>
        <time>2025-08-26T12:47:12.000Z</time>
      </trkpt>
      <trkpt lat="43.76694" lon="2.30132">
        <ele>291</ele>
        <time>2025-08-26T12:47:17.000Z</time>
      </trkpt>
      <trkpt lat="43.76689" lon="2.30132">
        <ele>292</ele>
        <time>2025-08-26T12:47:22.000Z</time>
      </trkpt>
      <trkpt lat="43.76683" lon="2.30134">
        <ele>291</ele>
        <time>2025-08-26T12:47:27.000Z</time>
      </trkpt>
      <trkpt lat="43.76677" lon="2.30135">
        <ele>293</ele>
        <time>2025-08-26T12:47:32.000Z</time>
      </trkpt>
      <trkpt lat="43.76671" lon="2.30136">
        <ele>294</ele>
        <time>2025-08-26T12:47:37.000Z</time>
      </trkpt>
      <trkpt lat="43.76665" lon="2.30134">
        <ele>296</ele>
        <time>2025-08-26T12:47:42.000Z</time>
      </trkpt>
      <trkpt lat="43.76659" lon="2.30136">
        <ele>296</ele>
        <time>2025-08-26T12:47:47.000Z</time>
      </trkpt>
      <trkpt lat="43.76653" lon="2.30136">
        <ele>295</ele>
        <time>2025-08-26T12:47:52.000Z</time>
      </trkpt>
      <trkpt lat="43.76648" lon="2.30136">
        <ele>294</ele>
        <time>2025-08-26T12:47:57.000Z</time>
      </trkpt>
      <trkpt lat="43.76642" lon="2.30135">
        <ele>295</ele>
        <time>2025-08-26T12:48:02.000Z</time>
      </trkpt>
      <trkpt lat="43.76636" lon="2.30133">
        <ele>295</ele>
        <time>2025-08-26T12:48:07.000Z</time>
      </trkpt>
      <trkpt lat="43.76631" lon="2.30129">
        <ele>294</ele>
        <time>2025-08-26T12:48:12.000Z</time>
      </trkpt>
      <trkpt lat="43.76625" lon="2.30124">
        <ele>293</ele>
        <time>2025-08-26T12:48:17.000Z</time>
      </trkpt>
      <trkpt lat="43.7662" lon="2.30119">
        <ele>294</ele>
        <time>2025-08-26T12:48:22.000Z</time>
      </trkpt>
      <trkpt lat="43.76616" lon="2.30114">
        <ele>293</ele>
        <time>2025-08-26T12:48:27.000Z</time>
      </trkpt>
      <trkpt lat="43.7661" lon="2.30109">
        <ele>295</ele>
        <time>2025-08-26T12:48:32.000Z</time>
      </trkpt>
      <trkpt lat="43.76605" lon="2.30105">
        <ele>294</ele>
        <time>2025-08-26T12:48:37.000Z</time>
      </trkpt>
      <trkpt lat="43.766" lon="2.30102">
        <ele>293</ele>
        <time>2025-08-26T12:48:42.000Z</time>
      </trkpt>
      <trkpt lat="43.76592" lon="2.30099">
        <ele>292</ele>
        <time>2025-08-26T12:48:47.000Z</time>
      </trkpt>
      <trkpt lat="43.76588" lon="2.30094">
        <ele>294</ele>
        <time>2025-08-26T12:48:52.000Z</time>
      </trkpt>
      <trkpt lat="43.76585" lon="2.30088">
        <ele>295</ele>
        <time>2025-08-26T12:48:57.000Z</time>
      </trkpt>
      <trkpt lat="43.76581" lon="2.30083">
        <ele>294</ele>
        <time>2025-08-26T12:49:02.000Z</time>
      </trkpt>
      <trkpt lat="43.76577" lon="2.30077">
        <ele>294</ele>
        <time>2025-08-26T12:49:07.000Z</time>
      </trkpt>
      <trkpt lat="43.76574" lon="2.3007">
        <ele>296</ele>
        <time>2025-08-26T12:49:12.000Z</time>
      </trkpt>
      <trkpt lat="43.76573" lon="2.30064">
        <ele>294</ele>
        <time>2025-08-26T12:49:17.000Z</time>
      </trkpt>
      <trkpt lat="43.7657" lon="2.30059">
        <ele>293</ele>
        <time>2025-08-26T12:49:22.000Z</time>
      </trkpt>
      <trkpt lat="43.76565" lon="2.30052">
        <ele>291</ele>
        <time>2025-08-26T12:49:27.000Z</time>
      </trkpt>
      <trkpt lat="43.76561" lon="2.30046">
        <ele>290</ele>
        <time>2025-08-26T12:49:32.000Z</time>
      </trkpt>
      <trkpt lat="43.76557" lon="2.30039">
        <ele>290</ele>
        <time>2025-08-26T12:49:37.000Z</time>
      </trkpt>
      <trkpt lat="43.76554" lon="2.30029">
        <ele>288</ele>
        <time>2025-08-26T12:49:42.000Z</time>
      </trkpt>
      <trkpt lat="43.7655" lon="2.30021">
        <ele>287</ele>
        <time>2025-08-26T12:49:47.000Z</time>
      </trkpt>
      <trkpt lat="43.76547" lon="2.30012">
        <ele>289</ele>
        <time>2025-08-26T12:49:52.000Z</time>
      </trkpt>
      <trkpt lat="43.76546" lon="2.30006">
        <ele>288</ele>
        <time>2025-08-26T12:49:57.000Z</time>
      </trkpt>
      <trkpt lat="43.76545" lon="2.29998">
        <ele>288</ele>
        <time>2025-08-26T12:50:02.000Z</time>
      </trkpt>
      <trkpt lat="43.76544" lon="2.29991">
        <ele>285</ele>
        <time>2025-08-26T12:50:07.000Z</time>
      </trkpt>
      <trkpt lat="43.76542" lon="2.29983">
        <ele>283</ele>
        <time>2025-08-26T12:50:12.000Z</time>
      </trkpt>
      <trkpt lat="43.76542" lon="2.29976">
        <ele>282</ele>
        <time>2025-08-26T12:50:17.000Z</time>
      </trkpt>
      <trkpt lat="43.76542" lon="2.29967">
        <ele>283</ele>
        <time>2025-08-26T12:50:22.000Z</time>
      </trkpt>
      <trkpt lat="43.76542" lon="2.29959">
        <ele>283</ele>
        <time>2025-08-26T12:50:27.000Z</time>
      </trkpt>
      <trkpt lat="43.76541" lon="2.2995">
        <ele>284</ele>
        <time>2025-08-26T12:50:32.000Z</time>
      </trkpt>
      <trkpt lat="43.76541" lon="2.2994">
        <ele>285</ele>
        <time>2025-08-26T12:50:37.000Z</time>
      </trkpt>
      <trkpt lat="43.7654" lon="2.29932">
        <ele>284</ele>
        <time>2025-08-26T12:50:42.000Z</time>
      </trkpt>
      <trkpt lat="43.76538" lon="2.29924">
        <ele>283</ele>
        <time>2025-08-26T12:50:47.000Z</time>
      </trkpt>
      <trkpt lat="43.76535" lon="2.29917">
        <ele>284</ele>
        <time>2025-08-26T12:50:52.000Z</time>
      </trkpt>
      <trkpt lat="43.76533" lon="2.29909">
        <ele>286</ele>
        <time>2025-08-26T12:50:57.000Z</time>
      </trkpt>
      <trkpt lat="43.7653" lon="2.29903">
        <ele>286</ele>
        <time>2025-08-26T12:51:02.000Z</time>
      </trkpt>
      <trkpt lat="43.76528" lon="2.29895">
        <ele>287</ele>
        <time>2025-08-26T12:51:07.000Z</time>
      </trkpt>
      <trkpt lat="43.76525" lon="2.29889">
        <ele>287</ele>
        <time>2025-08-26T12:51:12.000Z</time>
      </trkpt>
      <trkpt lat="43.76523" lon="2.29882">
        <ele>287</ele>
        <time>2025-08-26T12:51:17.000Z</time>
      </trkpt>
      <trkpt lat="43.76519" lon="2.29875">
        <ele>286</ele>
        <time>2025-08-26T12:51:22.000Z</time>
      </trkpt>
      <trkpt lat="43.76516" lon="2.29867">
        <ele>285</ele>
        <time>2025-08-26T12:51:27.000Z</time>
      </trkpt>
      <trkpt lat="43.76513" lon="2.2986">
        <ele>285</ele>
        <time>2025-08-26T12:51:32.000Z</time>
      </trkpt>
      <trkpt lat="43.7651" lon="2.29854">
        <ele>285</ele>
        <time>2025-08-26T12:51:37.000Z</time>
      </trkpt>
      <trkpt lat="43.76506" lon="2.29848">
        <ele>287</ele>
        <time>2025-08-26T12:51:42.000Z</time>
      </trkpt>
      <trkpt lat="43.76502" lon="2.29843">
        <ele>287</ele>
        <time>2025-08-26T12:51:47.000Z</time>
      </trkpt>
      <trkpt lat="43.76498" lon="2.29838">
        <ele>289</ele>
        <time>2025-08-26T12:51:52.000Z</time>
      </trkpt>
      <trkpt lat="43.76494" lon="2.29832">
        <ele>291</ele>
        <time>2025-08-26T12:51:57.000Z</time>
      </trkpt>
      <trkpt lat="43.7649" lon="2.29828">
        <ele>291</ele>
        <time>2025-08-26T12:52:02.000Z</time>
      </trkpt>
      <trkpt lat="43.76486" lon="2.29828">
        <ele>290</ele>
        <time>2025-08-26T12:52:07.000Z</time>
      </trkpt>
      <trkpt lat="43.76481" lon="2.29826">
        <ele>292</ele>
        <time>2025-08-26T12:52:12.000Z</time>
      </trkpt>
      <trkpt lat="43.76477" lon="2.29825">
        <ele>293</ele>
        <time>2025-08-26T12:52:17.000Z</time>
      </trkpt>
      <trkpt lat="43.76472" lon="2.29826">
        <ele>292</ele>
        <time>2025-08-26T12:52:22.000Z</time>
      </trkpt>
      <trkpt lat="43.76466" lon="2.29827">
        <ele>291</ele>
        <time>2025-08-26T12:52:27.000Z</time>
      </trkpt>
      <trkpt lat="43.76463" lon="2.2983">
        <ele>293</ele>
        <time>2025-08-26T12:52:32.000Z</time>
      </trkpt>
      <trkpt lat="43.76458" lon="2.29835">
        <ele>295</ele>
        <time>2025-08-26T12:52:37.000Z</time>
      </trkpt>
      <trkpt lat="43.76456" lon="2.29837">
        <ele>297</ele>
        <time>2025-08-26T12:52:42.000Z</time>
      </trkpt>
      <trkpt lat="43.76456" lon="2.29837">
        <ele>297</ele>
        <time>2025-08-26T12:52:47.000Z</time>
      </trkpt>
      <trkpt lat="43.76456" lon="2.29837">
        <ele>297</ele>
        <time>2025-08-26T12:52:52.000Z</time>
      </trkpt>
      <trkpt lat="43.76454" lon="2.29839">
        <ele>297</ele>
        <time>2025-08-26T12:52:57.000Z</time>
      </trkpt>
      <trkpt lat="43.7645" lon="2.29846">
        <ele>298</ele>
        <time>2025-08-26T12:53:02.000Z</time>
      </trkpt>
      <trkpt lat="43.76448" lon="2.29853">
        <ele>300</ele>
        <time>2025-08-26T12:53:07.000Z</time>
      </trkpt>
      <trkpt lat="43.76446" lon="2.29859">
        <ele>299</ele>
        <time>2025-08-26T12:53:12.000Z</time>
      </trkpt>
      <trkpt lat="43.76444" lon="2.29865">
        <ele>298</ele>
        <time>2025-08-26T12:53:17.000Z</time>
      </trkpt>
      <trkpt lat="43.76445" lon="2.2987">
        <ele>297</ele>
        <time>2025-08-26T12:53:22.000Z</time>
      </trkpt>
      <trkpt lat="43.76445" lon="2.29876">
        <ele>295</ele>
        <time>2025-08-26T12:53:27.000Z</time>
      </trkpt>
      <trkpt lat="43.76446" lon="2.29883">
        <ele>295</ele>
        <time>2025-08-26T12:53:32.000Z</time>
      </trkpt>
      <trkpt lat="43.76445" lon="2.2989">
        <ele>293</ele>
        <time>2025-08-26T12:53:37.000Z</time>
      </trkpt>
      <trkpt lat="43.76444" lon="2.29896">
        <ele>290</ele>
        <time>2025-08-26T12:53:42.000Z</time>
      </trkpt>
      <trkpt lat="43.76445" lon="2.29905">
        <ele>290</ele>
        <time>2025-08-26T12:53:47.000Z</time>
      </trkpt>
      <trkpt lat="43.76445" lon="2.29912">
        <ele>289</ele>
        <time>2025-08-26T12:53:52.000Z</time>
      </trkpt>
      <trkpt lat="43.76445" lon="2.2992">
        <ele>290</ele>
        <time>2025-08-26T12:53:57.000Z</time>
      </trkpt>
      <trkpt lat="43.76445" lon="2.29928">
        <ele>290</ele>
        <time>2025-08-26T12:54:02.000Z</time>
      </trkpt>
      <trkpt lat="43.76444" lon="2.29934">
        <ele>289</ele>
        <time>2025-08-26T12:54:07.000Z</time>
      </trkpt>
      <trkpt lat="43.76443" lon="2.29943">
        <ele>287</ele>
        <time>2025-08-26T12:54:12.000Z</time>
      </trkpt>
      <trkpt lat="43.76442" lon="2.29952">
        <ele>287</ele>
        <time>2025-08-26T12:54:17.000Z</time>
      </trkpt>
      <trkpt lat="43.76442" lon="2.2996">
        <ele>286</ele>
        <time>2025-08-26T12:54:22.000Z</time>
      </trkpt>
      <trkpt lat="43.76441" lon="2.29968">
        <ele>285</ele>
        <time>2025-08-26T12:54:27.000Z</time>
      </trkpt>
      <trkpt lat="43.76441" lon="2.29978">
        <ele>286</ele>
        <time>2025-08-26T12:54:32.000Z</time>
      </trkpt>
      <trkpt lat="43.7644" lon="2.29987">
        <ele>287</ele>
        <time>2025-08-26T12:54:37.000Z</time>
      </trkpt>
      <trkpt lat="43.76441" lon="2.29993">
        <ele>287</ele>
        <time>2025-08-26T12:54:42.000Z</time>
      </trkpt>
      <trkpt lat="43.76442" lon="2.30002">
        <ele>287</ele>
        <time>2025-08-26T12:54:47.000Z</time>
      </trkpt>
      <trkpt lat="43.76443" lon="2.30009">
        <ele>288</ele>
        <time>2025-08-26T12:54:52.000Z</time>
      </trkpt>
      <trkpt lat="43.76444" lon="2.30016">
        <ele>288</ele>
        <time>2025-08-26T12:54:57.000Z</time>
      </trkpt>
      <trkpt lat="43.76445" lon="2.30023">
        <ele>289</ele>
        <time>2025-08-26T12:55:02.000Z</time>
      </trkpt>
      <trkpt lat="43.76446" lon="2.30031">
        <ele>288</ele>
        <time>2025-08-26T12:55:07.000Z</time>
      </trkpt>
      <trkpt lat="43.76447" lon="2.30038">
        <ele>288</ele>
        <time>2025-08-26T12:55:12.000Z</time>
      </trkpt>
      <trkpt lat="43.76448" lon="2.30046">
        <ele>287</ele>
        <time>2025-08-26T12:55:17.000Z</time>
      </trkpt>
      <trkpt lat="43.76448" lon="2.30053">
        <ele>288</ele>
        <time>2025-08-26T12:55:22.000Z</time>
      </trkpt>
      <trkpt lat="43.76448" lon="2.30061">
        <ele>287</ele>
        <time>2025-08-26T12:55:27.000Z</time>
      </trkpt>
      <trkpt lat="43.76449" lon="2.30069">
        <ele>287</ele>
        <time>2025-08-26T12:55:32.000Z</time>
      </trkpt>
      <trkpt lat="43.76451" lon="2.30075">
        <ele>286</ele>
        <time>2025-08-26T12:55:37.000Z</time>
      </trkpt>
      <trkpt lat="43.76451" lon="2.30082">
        <ele>287</ele>
        <time>2025-08-26T12:55:42.000Z</time>
      </trkpt>
      <trkpt lat="43.76454" lon="2.30087">
        <ele>288</ele>
        <time>2025-08-26T12:55:47.000Z</time>
      </trkpt>
      <trkpt lat="43.76455" lon="2.30094">
        <ele>289</ele>
        <time>2025-08-26T12:55:52.000Z</time>
      </trkpt>
      <trkpt lat="43.76456" lon="2.30101">
        <ele>290</ele>
        <time>2025-08-26T12:55:57.000Z</time>
      </trkpt>
      <trkpt lat="43.76457" lon="2.30108">
        <ele>291</ele>
        <time>2025-08-26T12:56:02.000Z</time>
      </trkpt>
      <trkpt lat="43.76456" lon="2.30114">
        <ele>290</ele>
        <time>2025-08-26T12:56:07.000Z</time>
      </trkpt>
      <trkpt lat="43.76457" lon="2.3012">
        <ele>289</ele>
        <time>2025-08-26T12:56:12.000Z</time>
      </trkpt>
      <trkpt lat="43.76455" lon="2.30127">
        <ele>290</ele>
        <time>2025-08-26T12:56:17.000Z</time>
      </trkpt>
      <trkpt lat="43.76455" lon="2.30135">
        <ele>288</ele>
        <time>2025-08-26T12:56:22.000Z</time>
      </trkpt>
      <trkpt lat="43.76455" lon="2.30142">
        <ele>288</ele>
        <time>2025-08-26T12:56:27.000Z</time>
      </trkpt>
      <trkpt lat="43.76455" lon="2.3015">
        <ele>287</ele>
        <time>2025-08-26T12:56:32.000Z</time>
      </trkpt>
      <trkpt lat="43.76455" lon="2.30156">
        <ele>287</ele>
        <time>2025-08-26T12:56:37.000Z</time>
      </trkpt>
      <trkpt lat="43.76452" lon="2.30165">
        <ele>288</ele>
        <time>2025-08-26T12:56:42.000Z</time>
      </trkpt>
      <trkpt lat="43.76451" lon="2.30175">
        <ele>288</ele>
        <time>2025-08-26T12:56:47.000Z</time>
      </trkpt>
      <trkpt lat="43.76451" lon="2.30185">
        <ele>287</ele>
        <time>2025-08-26T12:56:52.000Z</time>
      </trkpt>
      <trkpt lat="43.76452" lon="2.30191">
        <ele>288</ele>
        <time>2025-08-26T12:56:57.000Z</time>
      </trkpt>
      <trkpt lat="43.76451" lon="2.30199">
        <ele>287</ele>
        <time>2025-08-26T12:57:02.000Z</time>
      </trkpt>
      <trkpt lat="43.76447" lon="2.30205">
        <ele>288</ele>
        <time>2025-08-26T12:57:07.000Z</time>
      </trkpt>
      <trkpt lat="43.76445" lon="2.30205">
        <ele>292</ele>
        <time>2025-08-26T12:57:12.000Z</time>
      </trkpt>
      <trkpt lat="43.76443" lon="2.30208">
        <ele>292</ele>
        <time>2025-08-26T12:57:17.000Z</time>
      </trkpt>
      <trkpt lat="43.76439" lon="2.30209">
        <ele>293</ele>
        <time>2025-08-26T12:57:22.000Z</time>
      </trkpt>
      <trkpt lat="43.76438" lon="2.30208">
        <ele>295</ele>
        <time>2025-08-26T12:57:27.000Z</time>
      </trkpt>
      <trkpt lat="43.76438" lon="2.30214">
        <ele>294</ele>
        <time>2025-08-26T12:57:32.000Z</time>
      </trkpt>
      <trkpt lat="43.76441" lon="2.30214">
        <ele>297</ele>
        <time>2025-08-26T12:57:37.000Z</time>
      </trkpt>
      <trkpt lat="43.76444" lon="2.30211">
        <ele>298</ele>
        <time>2025-08-26T12:57:42.000Z</time>
      </trkpt>
      <trkpt lat="43.76448" lon="2.30211">
        <ele>299</ele>
        <time>2025-08-26T12:57:47.000Z</time>
      </trkpt>
      <trkpt lat="43.7645" lon="2.30219">
        <ele>301</ele>
        <time>2025-08-26T12:57:52.000Z</time>
      </trkpt>
      <trkpt lat="43.76451" lon="2.30225">
        <ele>301</ele>
        <time>2025-08-26T12:57:57.000Z</time>
      </trkpt>
      <trkpt lat="43.76453" lon="2.3023">
        <ele>299</ele>
        <time>2025-08-26T12:58:02.000Z</time>
      </trkpt>
      <trkpt lat="43.76453" lon="2.30238">
        <ele>299</ele>
        <time>2025-08-26T12:58:07.000Z</time>
      </trkpt>
      <trkpt lat="43.76453" lon="2.30245">
        <ele>299</ele>
        <time>2025-08-26T12:58:12.000Z</time>
      </trkpt>
      <trkpt lat="43.76453" lon="2.30254">
        <ele>300</ele>
        <time>2025-08-26T12:58:17.000Z</time>
      </trkpt>
      <trkpt lat="43.76453" lon="2.30263">
        <ele>301</ele>
        <time>2025-08-26T12:58:22.000Z</time>
      </trkpt>
      <trkpt lat="43.76453" lon="2.3027">
        <ele>300</ele>
        <time>2025-08-26T12:58:27.000Z</time>
      </trkpt>
      <trkpt lat="43.76453" lon="2.30278">
        <ele>300</ele>
        <time>2025-08-26T12:58:32.000Z</time>
      </trkpt>
      <trkpt lat="43.76453" lon="2.30286">
        <ele>301</ele>
        <time>2025-08-26T12:58:37.000Z</time>
      </trkpt>
      <trkpt lat="43.76454" lon="2.30293">
        <ele>302</ele>
        <time>2025-08-26T12:58:42.000Z</time>
      </trkpt>
      <trkpt lat="43.76454" lon="2.30299">
        <ele>304</ele>
        <time>2025-08-26T12:58:47.000Z</time>
      </trkpt>
      <trkpt lat="43.76455" lon="2.30306">
        <ele>303</ele>
        <time>2025-08-26T12:58:52.000Z</time>
      </trkpt>
      <trkpt lat="43.76455" lon="2.30311">
        <ele>303</ele>
        <time>2025-08-26T12:58:57.000Z</time>
      </trkpt>
      <trkpt lat="43.76455" lon="2.30319">
        <ele>304</ele>
        <time>2025-08-26T12:59:02.000Z</time>
      </trkpt>
      <trkpt lat="43.76455" lon="2.30328">
        <ele>304</ele>
        <time>2025-08-26T12:59:07.000Z</time>
      </trkpt>
      <trkpt lat="43.76455" lon="2.30336">
        <ele>305</ele>
        <time>2025-08-26T12:59:12.000Z</time>
      </trkpt>
      <trkpt lat="43.76455" lon="2.30342">
        <ele>304</ele>
        <time>2025-08-26T12:59:17.000Z</time>
      </trkpt>
      <trkpt lat="43.76454" lon="2.30348">
        <ele>305</ele>
        <time>2025-08-26T12:59:22.000Z</time>
      </trkpt>
      <trkpt lat="43.76455" lon="2.30354">
        <ele>306</ele>
        <time>2025-08-26T12:59:27.000Z</time>
      </trkpt>
      <trkpt lat="43.76455" lon="2.3036">
        <ele>307</ele>
        <time>2025-08-26T12:59:32.000Z</time>
      </trkpt>
      <trkpt lat="43.76454" lon="2.30365">
        <ele>306</ele>
        <time>2025-08-26T12:59:37.000Z</time>
      </trkpt>
      <trkpt lat="43.76455" lon="2.30372">
        <ele>307</ele>
        <time>2025-08-26T12:59:42.000Z</time>
      </trkpt>
      <trkpt lat="43.76456" lon="2.30379">
        <ele>310</ele>
        <time>2025-08-26T12:59:47.000Z</time>
      </trkpt>
      <trkpt lat="43.76456" lon="2.30385">
        <ele>310</ele>
        <time>2025-08-26T12:59:52.000Z</time>
      </trkpt>
      <trkpt lat="43.76456" lon="2.3039">
        <ele>310</ele>
        <time>2025-08-26T12:59:57.000Z</time>
      </trkpt>
      <trkpt lat="43.76457" lon="2.30389">
        <ele>311</ele>
        <time>2025-08-26T13:00:02.000Z</time>
      </trkpt>
      <trkpt lat="43.76458" lon="2.30394">
        <ele>311</ele>
        <time>2025-08-26T13:00:07.000Z</time>
      </trkpt>
      <trkpt lat="43.76458" lon="2.30399">
        <ele>311</ele>
        <time>2025-08-26T13:00:12.000Z</time>
      </trkpt>
      <trkpt lat="43.76458" lon="2.304">
        <ele>310</ele>
        <time>2025-08-26T13:00:17.000Z</time>
      </trkpt>
      <trkpt lat="43.7646" lon="2.30403">
        <ele>312</ele>
        <time>2025-08-26T13:00:22.000Z</time>
      </trkpt>
      <trkpt lat="43.7646" lon="2.30408">
        <ele>311</ele>
        <time>2025-08-26T13:00:27.000Z</time>
      </trkpt>
      <trkpt lat="43.7646" lon="2.3041">
        <ele>309</ele>
        <time>2025-08-26T13:00:32.000Z</time>
      </trkpt>
      <trkpt lat="43.7646" lon="2.3041">
        <ele>309</ele>
        <time>2025-08-26T13:00:37.000Z</time>
      </trkpt>
      <trkpt lat="43.76462" lon="2.30411">
        <ele>310</ele>
        <time>2025-08-26T13:00:42.000Z</time>
      </trkpt>
      <trkpt lat="43.76467" lon="2.30414">
        <ele>313</ele>
        <time>2025-08-26T13:00:47.000Z</time>
      </trkpt>
      <trkpt lat="43.76472" lon="2.30416">
        <ele>315</ele>
        <time>2025-08-26T13:00:52.000Z</time>
      </trkpt>
      <trkpt lat="43.76478" lon="2.30417">
        <ele>315</ele>
        <time>2025-08-26T13:00:57.000Z</time>
      </trkpt>
      <trkpt lat="43.76482" lon="2.30416">
        <ele>315</ele>
        <time>2025-08-26T13:01:02.000Z</time>
      </trkpt>
      <trkpt lat="43.76487" lon="2.30417">
        <ele>317</ele>
        <time>2025-08-26T13:01:07.000Z</time>
      </trkpt>
      <trkpt lat="43.76491" lon="2.30419">
        <ele>318</ele>
        <time>2025-08-26T13:01:12.000Z</time>
      </trkpt>
      <trkpt lat="43.76497" lon="2.30419">
        <ele>318</ele>
        <time>2025-08-26T13:01:17.000Z</time>
      </trkpt>
      <trkpt lat="43.76502" lon="2.30421">
        <ele>320</ele>
        <time>2025-08-26T13:01:22.000Z</time>
      </trkpt>
      <trkpt lat="43.76507" lon="2.30424">
        <ele>321</ele>
        <time>2025-08-26T13:01:27.000Z</time>
      </trkpt>
      <trkpt lat="43.76511" lon="2.30427">
        <ele>321</ele>
        <time>2025-08-26T13:01:32.000Z</time>
      </trkpt>
      <trkpt lat="43.76517" lon="2.3043">
        <ele>320</ele>
        <time>2025-08-26T13:01:37.000Z</time>
      </trkpt>
      <trkpt lat="43.76522" lon="2.30434">
        <ele>320</ele>
        <time>2025-08-26T13:01:42.000Z</time>
      </trkpt>
      <trkpt lat="43.76526" lon="2.30438">
        <ele>320</ele>
        <time>2025-08-26T13:01:47.000Z</time>
      </trkpt>
      <trkpt lat="43.7653" lon="2.30442">
        <ele>319</ele>
        <time>2025-08-26T13:01:52.000Z</time>
      </trkpt>
      <trkpt lat="43.76534" lon="2.3045">
        <ele>318</ele>
        <time>2025-08-26T13:01:57.000Z</time>
      </trkpt>
      <trkpt lat="43.76538" lon="2.30456">
        <ele>319</ele>
        <time>2025-08-26T13:02:02.000Z</time>
      </trkpt>
      <trkpt lat="43.7654" lon="2.3046">
        <ele>318</ele>
        <time>2025-08-26T13:02:07.000Z</time>
      </trkpt>
      <trkpt lat="43.76544" lon="2.30467">
        <ele>318</ele>
        <time>2025-08-26T13:02:12.000Z</time>
      </trkpt>
      <trkpt lat="43.76548" lon="2.30474">
        <ele>319</ele>
        <time>2025-08-26T13:02:17.000Z</time>
      </trkpt>
      <trkpt lat="43.76552" lon="2.30482">
        <ele>318</ele>
        <time>2025-08-26T13:02:22.000Z</time>
      </trkpt>
      <trkpt lat="43.76555" lon="2.30488">
        <ele>318</ele>
        <time>2025-08-26T13:02:27.000Z</time>
      </trkpt>
      <trkpt lat="43.76559" lon="2.30494">
        <ele>320</ele>
        <time>2025-08-26T13:02:32.000Z</time>
      </trkpt>
      <trkpt lat="43.76562" lon="2.30501">
        <ele>319</ele>
        <time>2025-08-26T13:02:37.000Z</time>
      </trkpt>
      <trkpt lat="43.76566" lon="2.30508">
        <ele>318</ele>
        <time>2025-08-26T13:02:42.000Z</time>
      </trkpt>
      <trkpt lat="43.76569" lon="2.30514">
        <ele>317</ele>
        <time>2025-08-26T13:02:47.000Z</time>
      </trkpt>
      <trkpt lat="43.76571" lon="2.30523">
        <ele>316</ele>
        <time>2025-08-26T13:02:52.000Z</time>
      </trkpt>
      <trkpt lat="43.76574" lon="2.30531">
        <ele>315</ele>
        <time>2025-08-26T13:02:57.000Z</time>
      </trkpt>
      <trkpt lat="43.76576" lon="2.3054">
        <ele>315</ele>
        <time>2025-08-26T13:03:02.000Z</time>
      </trkpt>
      <trkpt lat="43.76578" lon="2.30547">
        <ele>314</ele>
        <time>2025-08-26T13:03:07.000Z</time>
      </trkpt>
      <trkpt lat="43.76578" lon="2.30555">
        <ele>313</ele>
        <time>2025-08-26T13:03:12.000Z</time>
      </trkpt>
      <trkpt lat="43.76575" lon="2.30563">
        <ele>312</ele>
        <time>2025-08-26T13:03:17.000Z</time>
      </trkpt>
      <trkpt lat="43.76575" lon="2.30571">
        <ele>311</ele>
        <time>2025-08-26T13:03:22.000Z</time>
      </trkpt>
      <trkpt lat="43.76574" lon="2.30578">
        <ele>312</ele>
        <time>2025-08-26T13:03:27.000Z</time>
      </trkpt>
      <trkpt lat="43.76575" lon="2.30584">
        <ele>311</ele>
        <time>2025-08-26T13:03:32.000Z</time>
      </trkpt>
      <trkpt lat="43.76576" lon="2.30591">
        <ele>309</ele>
        <time>2025-08-26T13:03:37.000Z</time>
      </trkpt>
      <trkpt lat="43.76576" lon="2.30597">
        <ele>307</ele>
        <time>2025-08-26T13:03:42.000Z</time>
      </trkpt>
      <trkpt lat="43.76576" lon="2.30603">
        <ele>307</ele>
        <time>2025-08-26T13:03:47.000Z</time>
      </trkpt>
      <trkpt lat="43.76576" lon="2.3061">
        <ele>306</ele>
        <time>2025-08-26T13:03:52.000Z</time>
      </trkpt>
      <trkpt lat="43.76574" lon="2.30619">
        <ele>305</ele>
        <time>2025-08-26T13:03:57.000Z</time>
      </trkpt>
      <trkpt lat="43.76574" lon="2.3063">
        <ele>304</ele>
        <time>2025-08-26T13:04:02.000Z</time>
      </trkpt>
      <trkpt lat="43.76573" lon="2.30638">
        <ele>305</ele>
        <time>2025-08-26T13:04:07.000Z</time>
      </trkpt>
      <trkpt lat="43.76572" lon="2.30646">
        <ele>304</ele>
        <time>2025-08-26T13:04:12.000Z</time>
      </trkpt>
      <trkpt lat="43.7657" lon="2.30654">
        <ele>307</ele>
        <time>2025-08-26T13:04:17.000Z</time>
      </trkpt>
      <trkpt lat="43.76569" lon="2.30663">
        <ele>306</ele>
        <time>2025-08-26T13:04:22.000Z</time>
      </trkpt>
      <trkpt lat="43.76567" lon="2.30671">
        <ele>307</ele>
        <time>2025-08-26T13:04:27.000Z</time>
      </trkpt>
      <trkpt lat="43.76566" lon="2.30678">
        <ele>307</ele>
        <time>2025-08-26T13:04:32.000Z</time>
      </trkpt>
      <trkpt lat="43.76564" lon="2.30686">
        <ele>307</ele>
        <time>2025-08-26T13:04:37.000Z</time>
      </trkpt>
      <trkpt lat="43.76564" lon="2.30693">
        <ele>307</ele>
        <time>2025-08-26T13:04:42.000Z</time>
      </trkpt>
      <trkpt lat="43.76562" lon="2.307">
        <ele>306</ele>
        <time>2025-08-26T13:04:47.000Z</time>
      </trkpt>
      <trkpt lat="43.7656" lon="2.30706">
        <ele>307</ele>
        <time>2025-08-26T13:04:52.000Z</time>
      </trkpt>
      <trkpt lat="43.76557" lon="2.30715">
        <ele>306</ele>
        <time>2025-08-26T13:04:57.000Z</time>
      </trkpt>
      <trkpt lat="43.76556" lon="2.30724">
        <ele>306</ele>
        <time>2025-08-26T13:05:02.000Z</time>
      </trkpt>
      <trkpt lat="43.76554" lon="2.30732">
        <ele>305</ele>
        <time>2025-08-26T13:05:07.000Z</time>
      </trkpt>
      <trkpt lat="43.7655" lon="2.3074">
        <ele>306</ele>
        <time>2025-08-26T13:05:12.000Z</time>
      </trkpt>
      <trkpt lat="43.76548" lon="2.30748">
        <ele>307</ele>
        <time>2025-08-26T13:05:17.000Z</time>
      </trkpt>
      <trkpt lat="43.76545" lon="2.30755">
        <ele>306</ele>
        <time>2025-08-26T13:05:22.000Z</time>
      </trkpt>
      <trkpt lat="43.76545" lon="2.30762">
        <ele>308</ele>
        <time>2025-08-26T13:05:27.000Z</time>
      </trkpt>
      <trkpt lat="43.76543" lon="2.30768">
        <ele>308</ele>
        <time>2025-08-26T13:05:32.000Z</time>
      </trkpt>
      <trkpt lat="43.76543" lon="2.30776">
        <ele>307</ele>
        <time>2025-08-26T13:05:37.000Z</time>
      </trkpt>
      <trkpt lat="43.76541" lon="2.30784">
        <ele>306</ele>
        <time>2025-08-26T13:05:42.000Z</time>
      </trkpt>
      <trkpt lat="43.76539" lon="2.3079">
        <ele>307</ele>
        <time>2025-08-26T13:05:47.000Z</time>
      </trkpt>
      <trkpt lat="43.76538" lon="2.30797">
        <ele>306</ele>
        <time>2025-08-26T13:05:52.000Z</time>
      </trkpt>
      <trkpt lat="43.76539" lon="2.30805">
        <ele>306</ele>
        <time>2025-08-26T13:05:57.000Z</time>
      </trkpt>
      <trkpt lat="43.76537" lon="2.30814">
        <ele>306</ele>
        <time>2025-08-26T13:06:02.000Z</time>
      </trkpt>
      <trkpt lat="43.76534" lon="2.30822">
        <ele>305</ele>
        <time>2025-08-26T13:06:07.000Z</time>
      </trkpt>
      <trkpt lat="43.76533" lon="2.30829">
        <ele>303</ele>
        <time>2025-08-26T13:06:12.000Z</time>
      </trkpt>
      <trkpt lat="43.76531" lon="2.30837">
        <ele>303</ele>
        <time>2025-08-26T13:06:17.000Z</time>
      </trkpt>
      <trkpt lat="43.76529" lon="2.30845">
        <ele>303</ele>
        <time>2025-08-26T13:06:22.000Z</time>
      </trkpt>
      <trkpt lat="43.76527" lon="2.30851">
        <ele>305</ele>
        <time>2025-08-26T13:06:27.000Z</time>
      </trkpt>
      <trkpt lat="43.76523" lon="2.30857">
        <ele>307</ele>
        <time>2025-08-26T13:06:32.000Z</time>
      </trkpt>
      <trkpt lat="43.76519" lon="2.30861">
        <ele>307</ele>
        <time>2025-08-26T13:06:37.000Z</time>
      </trkpt>
      <trkpt lat="43.76515" lon="2.30866">
        <ele>308</ele>
        <time>2025-08-26T13:06:42.000Z</time>
      </trkpt>
      <trkpt lat="43.76513" lon="2.30871">
        <ele>307</ele>
        <time>2025-08-26T13:06:47.000Z</time>
      </trkpt>
      <trkpt lat="43.7651" lon="2.30877">
        <ele>306</ele>
        <time>2025-08-26T13:06:52.000Z</time>
      </trkpt>
      <trkpt lat="43.76508" lon="2.30882">
        <ele>306</ele>
        <time>2025-08-26T13:06:57.000Z</time>
      </trkpt>
      <trkpt lat="43.76505" lon="2.30885">
        <ele>306</ele>
        <time>2025-08-26T13:07:02.000Z</time>
      </trkpt>
      <trkpt lat="43.76502" lon="2.30891">
        <ele>305</ele>
        <time>2025-08-26T13:07:07.000Z</time>
      </trkpt>
      <trkpt lat="43.76499" lon="2.30895">
        <ele>304</ele>
        <time>2025-08-26T13:07:12.000Z</time>
      </trkpt>
      <trkpt lat="43.76495" lon="2.309">
        <ele>305</ele>
        <time>2025-08-26T13:07:17.000Z</time>
      </trkpt>
      <trkpt lat="43.76492" lon="2.30906">
        <ele>305</ele>
        <time>2025-08-26T13:07:22.000Z</time>
      </trkpt>
      <trkpt lat="43.76488" lon="2.30911">
        <ele>305</ele>
        <time>2025-08-26T13:07:27.000Z</time>
      </trkpt>
      <trkpt lat="43.76483" lon="2.30918">
        <ele>306</ele>
        <time>2025-08-26T13:07:32.000Z</time>
      </trkpt>
      <trkpt lat="43.76478" lon="2.30923">
        <ele>306</ele>
        <time>2025-08-26T13:07:37.000Z</time>
      </trkpt>
      <trkpt lat="43.76474" lon="2.30928">
        <ele>306</ele>
        <time>2025-08-26T13:07:42.000Z</time>
      </trkpt>
      <trkpt lat="43.76469" lon="2.30932">
        <ele>304</ele>
        <time>2025-08-26T13:07:47.000Z</time>
      </trkpt>
      <trkpt lat="43.76465" lon="2.30937">
        <ele>304</ele>
        <time>2025-08-26T13:07:52.000Z</time>
      </trkpt>
      <trkpt lat="43.76461" lon="2.30941">
        <ele>305</ele>
        <time>2025-08-26T13:07:57.000Z</time>
      </trkpt>
      <trkpt lat="43.76456" lon="2.30946">
        <ele>303</ele>
        <time>2025-08-26T13:08:02.000Z</time>
      </trkpt>
      <trkpt lat="43.76449" lon="2.30951">
        <ele>304</ele>
        <time>2025-08-26T13:08:07.000Z</time>
      </trkpt>
      <trkpt lat="43.76444" lon="2.30955">
        <ele>303</ele>
        <time>2025-08-26T13:08:12.000Z</time>
      </trkpt>
      <trkpt lat="43.76439" lon="2.3096">
        <ele>304</ele>
        <time>2025-08-26T13:08:17.000Z</time>
      </trkpt>
      <trkpt lat="43.76435" lon="2.30963">
        <ele>303</ele>
        <time>2025-08-26T13:08:22.000Z</time>
      </trkpt>
      <trkpt lat="43.76429" lon="2.30965">
        <ele>302</ele>
        <time>2025-08-26T13:08:27.000Z</time>
      </trkpt>
      <trkpt lat="43.76425" lon="2.30968">
        <ele>301</ele>
        <time>2025-08-26T13:08:32.000Z</time>
      </trkpt>
      <trkpt lat="43.76421" lon="2.30975">
        <ele>300</ele>
        <time>2025-08-26T13:08:37.000Z</time>
      </trkpt>
      <trkpt lat="43.76417" lon="2.30984">
        <ele>303</ele>
        <time>2025-08-26T13:08:42.000Z</time>
      </trkpt>
      <trkpt lat="43.76416" lon="2.3099">
        <ele>304</ele>
        <time>2025-08-26T13:08:47.000Z</time>
      </trkpt>
      <trkpt lat="43.76416" lon="2.30998">
        <ele>303</ele>
        <time>2025-08-26T13:08:52.000Z</time>
      </trkpt>
      <trkpt lat="43.76415" lon="2.31007">
        <ele>303</ele>
        <time>2025-08-26T13:08:57.000Z</time>
      </trkpt>
      <trkpt lat="43.76415" lon="2.31015">
        <ele>304</ele>
        <time>2025-08-26T13:09:02.000Z</time>
      </trkpt>
      <trkpt lat="43.76415" lon="2.31021">
        <ele>303</ele>
        <time>2025-08-26T13:09:07.000Z</time>
      </trkpt>
      <trkpt lat="43.76415" lon="2.31028">
        <ele>302</ele>
        <time>2025-08-26T13:09:12.000Z</time>
      </trkpt>
      <trkpt lat="43.76415" lon="2.31036">
        <ele>302</ele>
        <time>2025-08-26T13:09:17.000Z</time>
      </trkpt>
      <trkpt lat="43.76414" lon="2.31044">
        <ele>302</ele>
        <time>2025-08-26T13:09:22.000Z</time>
      </trkpt>
      <trkpt lat="43.76414" lon="2.31051">
        <ele>302</ele>
        <time>2025-08-26T13:09:27.000Z</time>
      </trkpt>
      <trkpt lat="43.76413" lon="2.31059">
        <ele>302</ele>
        <time>2025-08-26T13:09:32.000Z</time>
      </trkpt>
      <trkpt lat="43.76413" lon="2.31066">
        <ele>303</ele>
        <time>2025-08-26T13:09:37.000Z</time>
      </trkpt>
      <trkpt lat="43.76412" lon="2.31074">
        <ele>302</ele>
        <time>2025-08-26T13:09:42.000Z</time>
      </trkpt>
      <trkpt lat="43.76413" lon="2.3108">
        <ele>303</ele>
        <time>2025-08-26T13:09:47.000Z</time>
      </trkpt>
      <trkpt lat="43.76413" lon="2.31089">
        <ele>300</ele>
        <time>2025-08-26T13:09:52.000Z</time>
      </trkpt>
      <trkpt lat="43.76415" lon="2.31096">
        <ele>300</ele>
        <time>2025-08-26T13:09:57.000Z</time>
      </trkpt>
      <trkpt lat="43.76417" lon="2.31103">
        <ele>300</ele>
        <time>2025-08-26T13:10:02.000Z</time>
      </trkpt>
      <trkpt lat="43.76418" lon="2.31112">
        <ele>302</ele>
        <time>2025-08-26T13:10:07.000Z</time>
      </trkpt>
      <trkpt lat="43.7642" lon="2.3112">
        <ele>301</ele>
        <time>2025-08-26T13:10:12.000Z</time>
      </trkpt>
      <trkpt lat="43.76422" lon="2.31127">
        <ele>302</ele>
        <time>2025-08-26T13:10:17.000Z</time>
      </trkpt>
      <trkpt lat="43.76424" lon="2.31135">
        <ele>303</ele>
        <time>2025-08-26T13:10:22.000Z</time>
      </trkpt>
      <trkpt lat="43.76427" lon="2.31139">
        <ele>303</ele>
        <time>2025-08-26T13:10:27.000Z</time>
      </trkpt>
      <trkpt lat="43.7643" lon="2.31143">
        <ele>303</ele>
        <time>2025-08-26T13:10:32.000Z</time>
      </trkpt>
      <trkpt lat="43.76434" lon="2.31148">
        <ele>302</ele>
        <time>2025-08-26T13:10:37.000Z</time>
      </trkpt>
      <trkpt lat="43.76439" lon="2.31155">
        <ele>301</ele>
        <time>2025-08-26T13:10:42.000Z</time>
      </trkpt>
      <trkpt lat="43.7644" lon="2.31161">
        <ele>302</ele>
        <time>2025-08-26T13:10:47.000Z</time>
      </trkpt>
      <trkpt lat="43.7644" lon="2.3117">
        <ele>302</ele>
        <time>2025-08-26T13:10:52.000Z</time>
      </trkpt>
      <trkpt lat="43.76442" lon="2.31178">
        <ele>303</ele>
        <time>2025-08-26T13:10:57.000Z</time>
      </trkpt>
      <trkpt lat="43.76443" lon="2.31187">
        <ele>303</ele>
        <time>2025-08-26T13:11:02.000Z</time>
      </trkpt>
      <trkpt lat="43.76447" lon="2.31195">
        <ele>304</ele>
        <time>2025-08-26T13:11:07.000Z</time>
      </trkpt>
      <trkpt lat="43.76449" lon="2.312">
        <ele>303</ele>
        <time>2025-08-26T13:11:12.000Z</time>
      </trkpt>
      <trkpt lat="43.76451" lon="2.31207">
        <ele>302</ele>
        <time>2025-08-26T13:11:17.000Z</time>
      </trkpt>
      <trkpt lat="43.76453" lon="2.31214">
        <ele>302</ele>
        <time>2025-08-26T13:11:22.000Z</time>
      </trkpt>
      <trkpt lat="43.76456" lon="2.31221">
        <ele>301</ele>
        <time>2025-08-26T13:11:27.000Z</time>
      </trkpt>
      <trkpt lat="43.76458" lon="2.31223">
        <ele>299</ele>
        <time>2025-08-26T13:11:32.000Z</time>
      </trkpt>
      <trkpt lat="43.76462" lon="2.3123">
        <ele>299</ele>
        <time>2025-08-26T13:11:37.000Z</time>
      </trkpt>
      <trkpt lat="43.76463" lon="2.31237">
        <ele>299</ele>
        <time>2025-08-26T13:11:42.000Z</time>
      </trkpt>
      <trkpt lat="43.76466" lon="2.31242">
        <ele>297</ele>
        <time>2025-08-26T13:11:47.000Z</time>
      </trkpt>
      <trkpt lat="43.76467" lon="2.3125">
        <ele>296</ele>
        <time>2025-08-26T13:11:52.000Z</time>
      </trkpt>
      <trkpt lat="43.76468" lon="2.31253">
        <ele>297</ele>
        <time>2025-08-26T13:11:57.000Z</time>
      </trkpt>
      <trkpt lat="43.76471" lon="2.31256">
        <ele>297</ele>
        <time>2025-08-26T13:12:02.000Z</time>
      </trkpt>
      <trkpt lat="43.76472" lon="2.31261">
        <ele>296</ele>
        <time>2025-08-26T13:12:07.000Z</time>
      </trkpt>
      <trkpt lat="43.76475" lon="2.31267">
        <ele>296</ele>
        <time>2025-08-26T13:12:12.000Z</time>
      </trkpt>
      <trkpt lat="43.76479" lon="2.3127">
        <ele>296</ele>
        <time>2025-08-26T13:12:17.000Z</time>
      </trkpt>
      <trkpt lat="43.76483" lon="2.31276">
        <ele>295</ele>
        <time>2025-08-26T13:12:22.000Z</time>
      </trkpt>
      <trkpt lat="43.76487" lon="2.31281">
        <ele>295</ele>
        <time>2025-08-26T13:12:27.000Z</time>
      </trkpt>
      <trkpt lat="43.76493" lon="2.31285">
        <ele>296</ele>
        <time>2025-08-26T13:12:32.000Z</time>
      </trkpt>
      <trkpt lat="43.76498" lon="2.31289">
        <ele>295</ele>
        <time>2025-08-26T13:12:37.000Z</time>
      </trkpt>
      <trkpt lat="43.76503" lon="2.31295">
        <ele>296</ele>
        <time>2025-08-26T13:12:42.000Z</time>
      </trkpt>
      <trkpt lat="43.76505" lon="2.31303">
        <ele>297</ele>
        <time>2025-08-26T13:12:47.000Z</time>
      </trkpt>
      <trkpt lat="43.76509" lon="2.31308">
        <ele>297</ele>
        <time>2025-08-26T13:12:52.000Z</time>
      </trkpt>
      <trkpt lat="43.76513" lon="2.31313">
        <ele>297</ele>
        <time>2025-08-26T13:12:57.000Z</time>
      </trkpt>
      <trkpt lat="43.76518" lon="2.31318">
        <ele>298</ele>
        <time>2025-08-26T13:13:02.000Z</time>
      </trkpt>
      <trkpt lat="43.76522" lon="2.31323">
        <ele>299</ele>
        <time>2025-08-26T13:13:07.000Z</time>
      </trkpt>
      <trkpt lat="43.76524" lon="2.31328">
        <ele>299</ele>
        <time>2025-08-26T13:13:12.000Z</time>
      </trkpt>
      <trkpt lat="43.7653" lon="2.31333">
        <ele>299</ele>
        <time>2025-08-26T13:13:17.000Z</time>
      </trkpt>
      <trkpt lat="43.76536" lon="2.31336">
        <ele>300</ele>
        <time>2025-08-26T13:13:22.000Z</time>
      </trkpt>
      <trkpt lat="43.76541" lon="2.3134">
        <ele>300</ele>
        <time>2025-08-26T13:13:27.000Z</time>
      </trkpt>
      <trkpt lat="43.76545" lon="2.31344">
        <ele>300</ele>
        <time>2025-08-26T13:13:32.000Z</time>
      </trkpt>
      <trkpt lat="43.7655" lon="2.31351">
        <ele>301</ele>
        <time>2025-08-26T13:13:37.000Z</time>
      </trkpt>
      <trkpt lat="43.76555" lon="2.31357">
        <ele>301</ele>
        <time>2025-08-26T13:13:42.000Z</time>
      </trkpt>
      <trkpt lat="43.76559" lon="2.31364">
        <ele>300</ele>
        <time>2025-08-26T13:13:47.000Z</time>
      </trkpt>
      <trkpt lat="43.76564" lon="2.31369">
        <ele>300</ele>
        <time>2025-08-26T13:13:52.000Z</time>
      </trkpt>
      <trkpt lat="43.76565" lon="2.31374">
        <ele>301</ele>
        <time>2025-08-26T13:13:57.000Z</time>
      </trkpt>
      <trkpt lat="43.76568" lon="2.3138">
        <ele>300</ele>
        <time>2025-08-26T13:14:02.000Z</time>
      </trkpt>
      <trkpt lat="43.76573" lon="2.31385">
        <ele>299</ele>
        <time>2025-08-26T13:14:07.000Z</time>
      </trkpt>
      <trkpt lat="43.76575" lon="2.31389">
        <ele>297</ele>
        <time>2025-08-26T13:14:12.000Z</time>
      </trkpt>
      <trkpt lat="43.7658" lon="2.31394">
        <ele>294</ele>
        <time>2025-08-26T13:14:17.000Z</time>
      </trkpt>
      <trkpt lat="43.76584" lon="2.31398">
        <ele>294</ele>
        <time>2025-08-26T13:14:22.000Z</time>
      </trkpt>
      <trkpt lat="43.76587" lon="2.31402">
        <ele>294</ele>
        <time>2025-08-26T13:14:27.000Z</time>
      </trkpt>
      <trkpt lat="43.76589" lon="2.31411">
        <ele>294</ele>
        <time>2025-08-26T13:14:32.000Z</time>
      </trkpt>
      <trkpt lat="43.76592" lon="2.31415">
        <ele>294</ele>
        <time>2025-08-26T13:14:37.000Z</time>
      </trkpt>
      <trkpt lat="43.76595" lon="2.31422">
        <ele>293</ele>
        <time>2025-08-26T13:14:42.000Z</time>
      </trkpt>
      <trkpt lat="43.76599" lon="2.31426">
        <ele>292</ele>
        <time>2025-08-26T13:14:47.000Z</time>
      </trkpt>
      <trkpt lat="43.76603" lon="2.31433">
        <ele>292</ele>
        <time>2025-08-26T13:14:52.000Z</time>
      </trkpt>
      <trkpt lat="43.76605" lon="2.3144">
        <ele>293</ele>
        <time>2025-08-26T13:14:57.000Z</time>
      </trkpt>
      <trkpt lat="43.76608" lon="2.31446">
        <ele>294</ele>
        <time>2025-08-26T13:15:02.000Z</time>
      </trkpt>
      <trkpt lat="43.7661" lon="2.31454">
        <ele>295</ele>
        <time>2025-08-26T13:15:07.000Z</time>
      </trkpt>
      <trkpt lat="43.76612" lon="2.31461">
        <ele>297</ele>
        <time>2025-08-26T13:15:12.000Z</time>
      </trkpt>
      <trkpt lat="43.76616" lon="2.31466">
        <ele>299</ele>
        <time>2025-08-26T13:15:17.000Z</time>
      </trkpt>
      <trkpt lat="43.7662" lon="2.31472">
        <ele>300</ele>
        <time>2025-08-26T13:15:22.000Z</time>
      </trkpt>
      <trkpt lat="43.76623" lon="2.31479">
        <ele>301</ele>
        <time>2025-08-26T13:15:27.000Z</time>
      </trkpt>
      <trkpt lat="43.76626" lon="2.31486">
        <ele>302</ele>
        <time>2025-08-26T13:15:32.000Z</time>
      </trkpt>
      <trkpt lat="43.76629" lon="2.31492">
        <ele>302</ele>
        <time>2025-08-26T13:15:37.000Z</time>
      </trkpt>
      <trkpt lat="43.76632" lon="2.31499">
        <ele>303</ele>
        <time>2025-08-26T13:15:42.000Z</time>
      </trkpt>
      <trkpt lat="43.76634" lon="2.31507">
        <ele>305</ele>
        <time>2025-08-26T13:15:47.000Z</time>
      </trkpt>
      <trkpt lat="43.76637" lon="2.31516">
        <ele>304</ele>
        <time>2025-08-26T13:15:52.000Z</time>
      </trkpt>
      <trkpt lat="43.76641" lon="2.31521">
        <ele>304</ele>
        <time>2025-08-26T13:15:57.000Z</time>
      </trkpt>
      <trkpt lat="43.76644" lon="2.31527">
        <ele>304</ele>
        <time>2025-08-26T13:16:02.000Z</time>
      </trkpt>
      <trkpt lat="43.76647" lon="2.31535">
        <ele>305</ele>
        <time>2025-08-26T13:16:07.000Z</time>
      </trkpt>
      <trkpt lat="43.76649" lon="2.31542">
        <ele>306</ele>
        <time>2025-08-26T13:16:12.000Z</time>
      </trkpt>
      <trkpt lat="43.76651" lon="2.31546">
        <ele>306</ele>
        <time>2025-08-26T13:16:17.000Z</time>
      </trkpt>
      <trkpt lat="43.76655" lon="2.31552">
        <ele>305</ele>
        <time>2025-08-26T13:16:22.000Z</time>
      </trkpt>
      <trkpt lat="43.76658" lon="2.31558">
        <ele>305</ele>
        <time>2025-08-26T13:16:27.000Z</time>
      </trkpt>
      <trkpt lat="43.7666" lon="2.3156">
        <ele>305</ele>
        <time>2025-08-26T13:16:32.000Z</time>
      </trkpt>
      <trkpt lat="43.76662" lon="2.31565">
        <ele>303</ele>
        <time>2025-08-26T13:16:37.000Z</time>
      </trkpt>
      <trkpt lat="43.76668" lon="2.3157">
        <ele>304</ele>
        <time>2025-08-26T13:16:42.000Z</time>
      </trkpt>
      <trkpt lat="43.76674" lon="2.31574">
        <ele>304</ele>
        <time>2025-08-26T13:16:47.000Z</time>
      </trkpt>
      <trkpt lat="43.76679" lon="2.31577">
        <ele>307</ele>
        <time>2025-08-26T13:16:52.000Z</time>
      </trkpt>
      <trkpt lat="43.76684" lon="2.31581">
        <ele>309</ele>
        <time>2025-08-26T13:16:57.000Z</time>
      </trkpt>
      <trkpt lat="43.7669" lon="2.31583">
        <ele>311</ele>
        <time>2025-08-26T13:17:02.000Z</time>
      </trkpt>
      <trkpt lat="43.76695" lon="2.31588">
        <ele>312</ele>
        <time>2025-08-26T13:17:07.000Z</time>
      </trkpt>
      <trkpt lat="43.76698" lon="2.31592">
        <ele>313</ele>
        <time>2025-08-26T13:17:12.000Z</time>
      </trkpt>
      <trkpt lat="43.76699" lon="2.316">
        <ele>315</ele>
        <time>2025-08-26T13:17:17.000Z</time>
      </trkpt>
      <trkpt lat="43.76699" lon="2.31602">
        <ele>316</ele>
        <time>2025-08-26T13:17:22.000Z</time>
      </trkpt>
      <trkpt lat="43.76699" lon="2.31602">
        <ele>315</ele>
        <time>2025-08-26T13:17:27.000Z</time>
      </trkpt>
      <trkpt lat="43.76699" lon="2.31602">
        <ele>315</ele>
        <time>2025-08-26T13:17:32.000Z</time>
      </trkpt>
      <trkpt lat="43.76699" lon="2.31602">
        <ele>314</ele>
        <time>2025-08-26T13:17:37.000Z</time>
      </trkpt>
      <trkpt lat="43.76697" lon="2.316">
        <ele>314</ele>
        <time>2025-08-26T13:17:42.000Z</time>
      </trkpt>
      <trkpt lat="43.76696" lon="2.316">
        <ele>314</ele>
        <time>2025-08-26T13:17:47.000Z</time>
      </trkpt>
      <trkpt lat="43.76694" lon="2.31601">
        <ele>315</ele>
        <time>2025-08-26T13:17:52.000Z</time>
      </trkpt>
      <trkpt lat="43.76691" lon="2.31607">
        <ele>315</ele>
        <time>2025-08-26T13:17:57.000Z</time>
      </trkpt>
      <trkpt lat="43.76688" lon="2.31614">
        <ele>314</ele>
        <time>2025-08-26T13:18:02.000Z</time>
      </trkpt>
      <trkpt lat="43.76685" lon="2.31618">
        <ele>314</ele>
        <time>2025-08-26T13:18:07.000Z</time>
      </trkpt>
      <trkpt lat="43.76681" lon="2.31623">
        <ele>313</ele>
        <time>2025-08-26T13:18:12.000Z</time>
      </trkpt>
      <trkpt lat="43.76677" lon="2.31629">
        <ele>313</ele>
        <time>2025-08-26T13:18:17.000Z</time>
      </trkpt>
      <trkpt lat="43.76673" lon="2.31635">
        <ele>313</ele>
        <time>2025-08-26T13:18:22.000Z</time>
      </trkpt>
      <trkpt lat="43.7667" lon="2.3164">
        <ele>312</ele>
        <time>2025-08-26T13:18:27.000Z</time>
      </trkpt>
      <trkpt lat="43.76665" lon="2.31644">
        <ele>311</ele>
        <time>2025-08-26T13:18:32.000Z</time>
      </trkpt>
      <trkpt lat="43.76662" lon="2.3165">
        <ele>309</ele>
        <time>2025-08-26T13:18:37.000Z</time>
      </trkpt>
      <trkpt lat="43.76659" lon="2.31654">
        <ele>310</ele>
        <time>2025-08-26T13:18:42.000Z</time>
      </trkpt>
      <trkpt lat="43.76655" lon="2.3166">
        <ele>310</ele>
        <time>2025-08-26T13:18:47.000Z</time>
      </trkpt>
      <trkpt lat="43.76651" lon="2.31666">
        <ele>311</ele>
        <time>2025-08-26T13:18:52.000Z</time>
      </trkpt>
      <trkpt lat="43.76646" lon="2.31672">
        <ele>310</ele>
        <time>2025-08-26T13:18:57.000Z</time>
      </trkpt>
      <trkpt lat="43.76643" lon="2.31677">
        <ele>311</ele>
        <time>2025-08-26T13:19:02.000Z</time>
      </trkpt>
      <trkpt lat="43.76638" lon="2.31679">
        <ele>311</ele>
        <time>2025-08-26T13:19:07.000Z</time>
      </trkpt>
      <trkpt lat="43.76634" lon="2.31681">
        <ele>311</ele>
        <time>2025-08-26T13:19:12.000Z</time>
      </trkpt>
      <trkpt lat="43.76631" lon="2.3168">
        <ele>309</ele>
        <time>2025-08-26T13:19:17.000Z</time>
      </trkpt>
      <trkpt lat="43.76626" lon="2.31681">
        <ele>308</ele>
        <time>2025-08-26T13:19:22.000Z</time>
      </trkpt>
      <trkpt lat="43.76622" lon="2.31681">
        <ele>308</ele>
        <time>2025-08-26T13:19:27.000Z</time>
      </trkpt>
      <trkpt lat="43.76616" lon="2.31678">
        <ele>306</ele>
        <time>2025-08-26T13:19:32.000Z</time>
      </trkpt>
      <trkpt lat="43.76611" lon="2.31676">
        <ele>305</ele>
        <time>2025-08-26T13:19:37.000Z</time>
      </trkpt>
      <trkpt lat="43.76605" lon="2.31675">
        <ele>305</ele>
        <time>2025-08-26T13:19:42.000Z</time>
      </trkpt>
      <trkpt lat="43.76603" lon="2.31674">
        <ele>307</ele>
        <time>2025-08-26T13:19:47.000Z</time>
      </trkpt>
      <trkpt lat="43.766" lon="2.31674">
        <ele>307</ele>
        <time>2025-08-26T13:19:52.000Z</time>
      </trkpt>
      <trkpt lat="43.76595" lon="2.31671">
        <ele>307</ele>
        <time>2025-08-26T13:19:57.000Z</time>
      </trkpt>
      <trkpt lat="43.76591" lon="2.31671">
        <ele>307</ele>
        <time>2025-08-26T13:20:02.000Z</time>
      </trkpt>
      <trkpt lat="43.76586" lon="2.31671">
        <ele>307</ele>
        <time>2025-08-26T13:20:07.000Z</time>
      </trkpt>
      <trkpt lat="43.76583" lon="2.31668">
        <ele>306</ele>
        <time>2025-08-26T13:20:12.000Z</time>
      </trkpt>
      <trkpt lat="43.76577" lon="2.31665">
        <ele>305</ele>
        <time>2025-08-26T13:20:17.000Z</time>
      </trkpt>
      <trkpt lat="43.76571" lon="2.31663">
        <ele>305</ele>
        <time>2025-08-26T13:20:22.000Z</time>
      </trkpt>
      <trkpt lat="43.76568" lon="2.31659">
        <ele>305</ele>
        <time>2025-08-26T13:20:27.000Z</time>
      </trkpt>
      <trkpt lat="43.76563" lon="2.31657">
        <ele>306</ele>
        <time>2025-08-26T13:20:32.000Z</time>
      </trkpt>
      <trkpt lat="43.76557" lon="2.31653">
        <ele>307</ele>
        <time>2025-08-26T13:20:37.000Z</time>
      </trkpt>
      <trkpt lat="43.76552" lon="2.3165">
        <ele>309</ele>
        <time>2025-08-26T13:20:42.000Z</time>
      </trkpt>
      <trkpt lat="43.76548" lon="2.31646">
        <ele>309</ele>
        <time>2025-08-26T13:20:47.000Z</time>
      </trkpt>
      <trkpt lat="43.76543" lon="2.31642">
        <ele>310</ele>
        <time>2025-08-26T13:20:52.000Z</time>
      </trkpt>
      <trkpt lat="43.76539" lon="2.31637">
        <ele>311</ele>
        <time>2025-08-26T13:20:57.000Z</time>
      </trkpt>
      <trkpt lat="43.76534" lon="2.31631">
        <ele>310</ele>
        <time>2025-08-26T13:21:02.000Z</time>
      </trkpt>
      <trkpt lat="43.76529" lon="2.31623">
        <ele>311</ele>
        <time>2025-08-26T13:21:07.000Z</time>
      </trkpt>
      <trkpt lat="43.76525" lon="2.31617">
        <ele>311</ele>
        <time>2025-08-26T13:21:12.000Z</time>
      </trkpt>
      <trkpt lat="43.76522" lon="2.31611">
        <ele>313</ele>
        <time>2025-08-26T13:21:17.000Z</time>
      </trkpt>
      <trkpt lat="43.76519" lon="2.31605">
        <ele>314</ele>
        <time>2025-08-26T13:21:22.000Z</time>
      </trkpt>
      <trkpt lat="43.76516" lon="2.31598">
        <ele>314</ele>
        <time>2025-08-26T13:21:27.000Z</time>
      </trkpt>
      <trkpt lat="43.76513" lon="2.31591">
        <ele>315</ele>
        <time>2025-08-26T13:21:32.000Z</time>
      </trkpt>
      <trkpt lat="43.76511" lon="2.31584">
        <ele>316</ele>
        <time>2025-08-26T13:21:37.000Z</time>
      </trkpt>
      <trkpt lat="43.76508" lon="2.31577">
        <ele>317</ele>
        <time>2025-08-26T13:21:42.000Z</time>
      </trkpt>
      <trkpt lat="43.76504" lon="2.3157">
        <ele>319</ele>
        <time>2025-08-26T13:21:47.000Z</time>
      </trkpt>
      <trkpt lat="43.76501" lon="2.31561">
        <ele>320</ele>
        <time>2025-08-26T13:21:52.000Z</time>
      </trkpt>
      <trkpt lat="43.76498" lon="2.31554">
        <ele>321</ele>
        <time>2025-08-26T13:21:57.000Z</time>
      </trkpt>
      <trkpt lat="43.76495" lon="2.31548">
        <ele>322</ele>
        <time>2025-08-26T13:22:02.000Z</time>
      </trkpt>
      <trkpt lat="43.76492" lon="2.3154">
        <ele>324</ele>
        <time>2025-08-26T13:22:07.000Z</time>
      </trkpt>
      <trkpt lat="43.7649" lon="2.31535">
        <ele>324</ele>
        <time>2025-08-26T13:22:12.000Z</time>
      </trkpt>
      <trkpt lat="43.76486" lon="2.31528">
        <ele>325</ele>
        <time>2025-08-26T13:22:17.000Z</time>
      </trkpt>
      <trkpt lat="43.76483" lon="2.31524">
        <ele>325</ele>
        <time>2025-08-26T13:22:22.000Z</time>
      </trkpt>
      <trkpt lat="43.76479" lon="2.31516">
        <ele>325</ele>
        <time>2025-08-26T13:22:27.000Z</time>
      </trkpt>
      <trkpt lat="43.76477" lon="2.31511">
        <ele>327</ele>
        <time>2025-08-26T13:22:32.000Z</time>
      </trkpt>
      <trkpt lat="43.76475" lon="2.31505">
        <ele>326</ele>
        <time>2025-08-26T13:22:37.000Z</time>
      </trkpt>
      <trkpt lat="43.76473" lon="2.31499">
        <ele>328</ele>
        <time>2025-08-26T13:22:42.000Z</time>
      </trkpt>
      <trkpt lat="43.76469" lon="2.31495">
        <ele>327</ele>
        <time>2025-08-26T13:22:47.000Z</time>
      </trkpt>
      <trkpt lat="43.76467" lon="2.31488">
        <ele>329</ele>
        <time>2025-08-26T13:22:52.000Z</time>
      </trkpt>
      <trkpt lat="43.76464" lon="2.31483">
        <ele>328</ele>
        <time>2025-08-26T13:22:57.000Z</time>
      </trkpt>
      <trkpt lat="43.7646" lon="2.31478">
        <ele>328</ele>
        <time>2025-08-26T13:23:02.000Z</time>
      </trkpt>
      <trkpt lat="43.76456" lon="2.31472">
        <ele>327</ele>
        <time>2025-08-26T13:23:07.000Z</time>
      </trkpt>
      <trkpt lat="43.76453" lon="2.31467">
        <ele>326</ele>
        <time>2025-08-26T13:23:12.000Z</time>
      </trkpt>
      <trkpt lat="43.76449" lon="2.3146">
        <ele>326</ele>
        <time>2025-08-26T13:23:17.000Z</time>
      </trkpt>
      <trkpt lat="43.76446" lon="2.31455">
        <ele>327</ele>
        <time>2025-08-26T13:23:22.000Z</time>
      </trkpt>
      <trkpt lat="43.76443" lon="2.31451">
        <ele>327</ele>
        <time>2025-08-26T13:23:27.000Z</time>
      </trkpt>
      <trkpt lat="43.7644" lon="2.3145">
        <ele>327</ele>
        <time>2025-08-26T13:23:32.000Z</time>
      </trkpt>
      <trkpt lat="43.76436" lon="2.31447">
        <ele>328</ele>
        <time>2025-08-26T13:23:37.000Z</time>
      </trkpt>
      <trkpt lat="43.76433" lon="2.31444">
        <ele>329</ele>
        <time>2025-08-26T13:23:42.000Z</time>
      </trkpt>
      <trkpt lat="43.76428" lon="2.31439">
        <ele>329</ele>
        <time>2025-08-26T13:23:47.000Z</time>
      </trkpt>
      <trkpt lat="43.76425" lon="2.31434">
        <ele>329</ele>
        <time>2025-08-26T13:23:52.000Z</time>
      </trkpt>
      <trkpt lat="43.76422" lon="2.3143">
        <ele>329</ele>
        <time>2025-08-26T13:23:57.000Z</time>
      </trkpt>
      <trkpt lat="43.76418" lon="2.31426">
        <ele>329</ele>
        <time>2025-08-26T13:24:02.000Z</time>
      </trkpt>
      <trkpt lat="43.76414" lon="2.31422">
        <ele>331</ele>
        <time>2025-08-26T13:24:07.000Z</time>
      </trkpt>
      <trkpt lat="43.7641" lon="2.31418">
        <ele>331</ele>
        <time>2025-08-26T13:24:12.000Z</time>
      </trkpt>
      <trkpt lat="43.76407" lon="2.31412">
        <ele>332</ele>
        <time>2025-08-26T13:24:17.000Z</time>
      </trkpt>
      <trkpt lat="43.76404" lon="2.31408">
        <ele>333</ele>
        <time>2025-08-26T13:24:22.000Z</time>
      </trkpt>
      <trkpt lat="43.76399" lon="2.31404">
        <ele>332</ele>
        <time>2025-08-26T13:24:27.000Z</time>
      </trkpt>
      <trkpt lat="43.76394" lon="2.31401">
        <ele>334</ele>
        <time>2025-08-26T13:24:32.000Z</time>
      </trkpt>
      <trkpt lat="43.76389" lon="2.31398">
        <ele>334</ele>
        <time>2025-08-26T13:24:37.000Z</time>
      </trkpt>
      <trkpt lat="43.76385" lon="2.31397">
        <ele>336</ele>
        <time>2025-08-26T13:24:42.000Z</time>
      </trkpt>
      <trkpt lat="43.76379" lon="2.31398">
        <ele>337</ele>
        <time>2025-08-26T13:24:47.000Z</time>
      </trkpt>
      <trkpt lat="43.76375" lon="2.31398">
        <ele>339</ele>
        <time>2025-08-26T13:24:52.000Z</time>
      </trkpt>
      <trkpt lat="43.7637" lon="2.31398">
        <ele>341</ele>
        <time>2025-08-26T13:24:57.000Z</time>
      </trkpt>
      <trkpt lat="43.76366" lon="2.314">
        <ele>341</ele>
        <time>2025-08-26T13:25:02.000Z</time>
      </trkpt>
      <trkpt lat="43.76361" lon="2.31401">
        <ele>343</ele>
        <time>2025-08-26T13:25:07.000Z</time>
      </trkpt>
      <trkpt lat="43.76356" lon="2.31403">
        <ele>342</ele>
        <time>2025-08-26T13:25:12.000Z</time>
      </trkpt>
      <trkpt lat="43.76351" lon="2.31402">
        <ele>343</ele>
        <time>2025-08-26T13:25:17.000Z</time>
      </trkpt>
      <trkpt lat="43.76346" lon="2.31405">
        <ele>341</ele>
        <time>2025-08-26T13:25:22.000Z</time>
      </trkpt>
      <trkpt lat="43.7634" lon="2.31406">
        <ele>341</ele>
        <time>2025-08-26T13:25:27.000Z</time>
      </trkpt>
      <trkpt lat="43.76336" lon="2.31407">
        <ele>342</ele>
        <time>2025-08-26T13:25:32.000Z</time>
      </trkpt>
      <trkpt lat="43.76332" lon="2.31409">
        <ele>343</ele>
        <time>2025-08-26T13:25:37.000Z</time>
      </trkpt>
      <trkpt lat="43.76331" lon="2.3141">
        <ele>343</ele>
        <time>2025-08-26T13:25:42.000Z</time>
      </trkpt>
      <trkpt lat="43.76327" lon="2.31409">
        <ele>342</ele>
        <time>2025-08-26T13:25:47.000Z</time>
      </trkpt>
      <trkpt lat="43.76322" lon="2.31411">
        <ele>342</ele>
        <time>2025-08-26T13:25:52.000Z</time>
      </trkpt>
      <trkpt lat="43.76317" lon="2.31411">
        <ele>341</ele>
        <time>2025-08-26T13:25:57.000Z</time>
      </trkpt>
      <trkpt lat="43.76311" lon="2.31411">
        <ele>341</ele>
        <time>2025-08-26T13:26:02.000Z</time>
      </trkpt>
      <trkpt lat="43.76305" lon="2.31408">
        <ele>342</ele>
        <time>2025-08-26T13:26:07.000Z</time>
      </trkpt>
      <trkpt lat="43.76299" lon="2.31407">
        <ele>342</ele>
        <time>2025-08-26T13:26:12.000Z</time>
      </trkpt>
      <trkpt lat="43.76293" lon="2.31404">
        <ele>342</ele>
        <time>2025-08-26T13:26:17.000Z</time>
      </trkpt>
      <trkpt lat="43.76286" lon="2.314">
        <ele>343</ele>
        <time>2025-08-26T13:26:22.000Z</time>
      </trkpt>
      <trkpt lat="43.76279" lon="2.31397">
        <ele>343</ele>
        <time>2025-08-26T13:26:27.000Z</time>
      </trkpt>
      <trkpt lat="43.76274" lon="2.31392">
        <ele>344</ele>
        <time>2025-08-26T13:26:32.000Z</time>
      </trkpt>
      <trkpt lat="43.76269" lon="2.31387">
        <ele>346</ele>
        <time>2025-08-26T13:26:37.000Z</time>
      </trkpt>
      <trkpt lat="43.76263" lon="2.31382">
        <ele>344</ele>
        <time>2025-08-26T13:26:42.000Z</time>
      </trkpt>
      <trkpt lat="43.76259" lon="2.31376">
        <ele>344</ele>
        <time>2025-08-26T13:26:47.000Z</time>
      </trkpt>
      <trkpt lat="43.76254" lon="2.3137">
        <ele>344</ele>
        <time>2025-08-26T13:26:52.000Z</time>
      </trkpt>
      <trkpt lat="43.76249" lon="2.31363">
        <ele>343</ele>
        <time>2025-08-26T13:26:57.000Z</time>
      </trkpt>
      <trkpt lat="43.76245" lon="2.31356">
        <ele>342</ele>
        <time>2025-08-26T13:27:02.000Z</time>
      </trkpt>
      <trkpt lat="43.76242" lon="2.31349">
        <ele>341</ele>
        <time>2025-08-26T13:27:07.000Z</time>
      </trkpt>
      <trkpt lat="43.76238" lon="2.31343">
        <ele>341</ele>
        <time>2025-08-26T13:27:12.000Z</time>
      </trkpt>
      <trkpt lat="43.76236" lon="2.31337">
        <ele>340</ele>
        <time>2025-08-26T13:27:17.000Z</time>
      </trkpt>
      <trkpt lat="43.76233" lon="2.3133">
        <ele>339</ele>
        <time>2025-08-26T13:27:22.000Z</time>
      </trkpt>
      <trkpt lat="43.7623" lon="2.31323">
        <ele>338</ele>
        <time>2025-08-26T13:27:27.000Z</time>
      </trkpt>
      <trkpt lat="43.76227" lon="2.31315">
        <ele>337</ele>
        <time>2025-08-26T13:27:32.000Z</time>
      </trkpt>
      <trkpt lat="43.76225" lon="2.31308">
        <ele>336</ele>
        <time>2025-08-26T13:27:37.000Z</time>
      </trkpt>
      <trkpt lat="43.76222" lon="2.313">
        <ele>335</ele>
        <time>2025-08-26T13:27:42.000Z</time>
      </trkpt>
      <trkpt lat="43.76221" lon="2.31294">
        <ele>334</ele>
        <time>2025-08-26T13:27:47.000Z</time>
      </trkpt>
      <trkpt lat="43.76216" lon="2.31287">
        <ele>333</ele>
        <time>2025-08-26T13:27:52.000Z</time>
      </trkpt>
      <trkpt lat="43.76212" lon="2.3128">
        <ele>334</ele>
        <time>2025-08-26T13:27:57.000Z</time>
      </trkpt>
      <trkpt lat="43.76208" lon="2.31278">
        <ele>334</ele>
        <time>2025-08-26T13:28:02.000Z</time>
      </trkpt>
      <trkpt lat="43.76204" lon="2.31277">
        <ele>334</ele>
        <time>2025-08-26T13:28:07.000Z</time>
      </trkpt>
      <trkpt lat="43.76198" lon="2.31277">
        <ele>334</ele>
        <time>2025-08-26T13:28:12.000Z</time>
      </trkpt>
      <trkpt lat="43.76192" lon="2.31279">
        <ele>334</ele>
        <time>2025-08-26T13:28:17.000Z</time>
      </trkpt>
      <trkpt lat="43.76187" lon="2.31282">
        <ele>333</ele>
        <time>2025-08-26T13:28:22.000Z</time>
      </trkpt>
      <trkpt lat="43.76182" lon="2.31286">
        <ele>332</ele>
        <time>2025-08-26T13:28:27.000Z</time>
      </trkpt>
      <trkpt lat="43.76177" lon="2.31291">
        <ele>330</ele>
        <time>2025-08-26T13:28:32.000Z</time>
      </trkpt>
      <trkpt lat="43.76174" lon="2.31296">
        <ele>329</ele>
        <time>2025-08-26T13:28:37.000Z</time>
      </trkpt>
      <trkpt lat="43.7617" lon="2.31303">
        <ele>328</ele>
        <time>2025-08-26T13:28:42.000Z</time>
      </trkpt>
      <trkpt lat="43.76165" lon="2.31309">
        <ele>327</ele>
        <time>2025-08-26T13:28:47.000Z</time>
      </trkpt>
      <trkpt lat="43.76161" lon="2.31315">
        <ele>326</ele>
        <time>2025-08-26T13:28:52.000Z</time>
      </trkpt>
      <trkpt lat="43.76156" lon="2.3132">
        <ele>324</ele>
        <time>2025-08-26T13:28:57.000Z</time>
      </trkpt>
      <trkpt lat="43.7615" lon="2.31322">
        <ele>324</ele>
        <time>2025-08-26T13:29:02.000Z</time>
      </trkpt>
      <trkpt lat="43.76145" lon="2.31324">
        <ele>323</ele>
        <time>2025-08-26T13:29:07.000Z</time>
      </trkpt>
      <trkpt lat="43.76139" lon="2.31324">
        <ele>324</ele>
        <time>2025-08-26T13:29:12.000Z</time>
      </trkpt>
      <trkpt lat="43.76134" lon="2.31323">
        <ele>324</ele>
        <time>2025-08-26T13:29:17.000Z</time>
      </trkpt>
      <trkpt lat="43.76128" lon="2.31323">
        <ele>322</ele>
        <time>2025-08-26T13:29:22.000Z</time>
      </trkpt>
      <trkpt lat="43.76123" lon="2.31324">
        <ele>322</ele>
        <time>2025-08-26T13:29:27.000Z</time>
      </trkpt>
      <trkpt lat="43.76116" lon="2.31324">
        <ele>321</ele>
        <time>2025-08-26T13:29:32.000Z</time>
      </trkpt>
      <trkpt lat="43.7611" lon="2.31323">
        <ele>321</ele>
        <time>2025-08-26T13:29:37.000Z</time>
      </trkpt>
      <trkpt lat="43.76103" lon="2.31323">
        <ele>319</ele>
        <time>2025-08-26T13:29:42.000Z</time>
      </trkpt>
      <trkpt lat="43.76096" lon="2.31322">
        <ele>319</ele>
        <time>2025-08-26T13:29:47.000Z</time>
      </trkpt>
      <trkpt lat="43.7609" lon="2.31321">
        <ele>320</ele>
        <time>2025-08-26T13:29:52.000Z</time>
      </trkpt>
      <trkpt lat="43.76083" lon="2.31321">
        <ele>319</ele>
        <time>2025-08-26T13:29:57.000Z</time>
      </trkpt>
      <trkpt lat="43.76076" lon="2.3132">
        <ele>320</ele>
        <time>2025-08-26T13:30:02.000Z</time>
      </trkpt>
      <trkpt lat="43.76069" lon="2.31319">
        <ele>318</ele>
        <time>2025-08-26T13:30:07.000Z</time>
      </trkpt>
      <trkpt lat="43.76062" lon="2.31318">
        <ele>318</ele>
        <time>2025-08-26T13:30:12.000Z</time>
      </trkpt>
      <trkpt lat="43.76055" lon="2.31316">
        <ele>317</ele>
        <time>2025-08-26T13:30:17.000Z</time>
      </trkpt>
      <trkpt lat="43.76048" lon="2.31314">
        <ele>317</ele>
        <time>2025-08-26T13:30:22.000Z</time>
      </trkpt>
      <trkpt lat="43.76042" lon="2.31312">
        <ele>317</ele>
        <time>2025-08-26T13:30:27.000Z</time>
      </trkpt>
      <trkpt lat="43.76037" lon="2.31312">
        <ele>317</ele>
        <time>2025-08-26T13:30:32.000Z</time>
      </trkpt>
      <trkpt lat="43.7603" lon="2.3131">
        <ele>317</ele>
        <time>2025-08-26T13:30:37.000Z</time>
      </trkpt>
      <trkpt lat="43.76023" lon="2.31305">
        <ele>317</ele>
        <time>2025-08-26T13:30:42.000Z</time>
      </trkpt>
      <trkpt lat="43.76018" lon="2.31298">
        <ele>316</ele>
        <time>2025-08-26T13:30:47.000Z</time>
      </trkpt>
      <trkpt lat="43.76017" lon="2.3129">
        <ele>315</ele>
        <time>2025-08-26T13:30:52.000Z</time>
      </trkpt>
      <trkpt lat="43.76016" lon="2.31282">
        <ele>314</ele>
        <time>2025-08-26T13:30:57.000Z</time>
      </trkpt>
      <trkpt lat="43.76017" lon="2.31275">
        <ele>314</ele>
        <time>2025-08-26T13:31:02.000Z</time>
      </trkpt>
      <trkpt lat="43.76021" lon="2.31269">
        <ele>315</ele>
        <time>2025-08-26T13:31:07.000Z</time>
      </trkpt>
      <trkpt lat="43.76025" lon="2.31263">
        <ele>313</ele>
        <time>2025-08-26T13:31:12.000Z</time>
      </trkpt>
      <trkpt lat="43.76027" lon="2.31258">
        <ele>312</ele>
        <time>2025-08-26T13:31:17.000Z</time>
      </trkpt>
      <trkpt lat="43.76032" lon="2.31255">
        <ele>310</ele>
        <time>2025-08-26T13:31:22.000Z</time>
      </trkpt>
      <trkpt lat="43.76035" lon="2.31253">
        <ele>311</ele>
        <time>2025-08-26T13:31:27.000Z</time>
      </trkpt>
      <trkpt lat="43.76041" lon="2.3125">
        <ele>312</ele>
        <time>2025-08-26T13:31:32.000Z</time>
      </trkpt>
      <trkpt lat="43.76047" lon="2.31247">
        <ele>312</ele>
        <time>2025-08-26T13:31:37.000Z</time>
      </trkpt>
      <trkpt lat="43.76052" lon="2.31243">
        <ele>312</ele>
        <time>2025-08-26T13:31:42.000Z</time>
      </trkpt>
      <trkpt lat="43.76058" lon="2.3124">
        <ele>313</ele>
        <time>2025-08-26T13:31:47.000Z</time>
      </trkpt>
      <trkpt lat="43.76062" lon="2.31236">
        <ele>315</ele>
        <time>2025-08-26T13:31:52.000Z</time>
      </trkpt>
      <trkpt lat="43.76067" lon="2.31233">
        <ele>316</ele>
        <time>2025-08-26T13:31:57.000Z</time>
      </trkpt>
      <trkpt lat="43.7607" lon="2.31226">
        <ele>318</ele>
        <time>2025-08-26T13:32:02.000Z</time>
      </trkpt>
      <trkpt lat="43.76073" lon="2.3122">
        <ele>319</ele>
        <time>2025-08-26T13:32:07.000Z</time>
      </trkpt>
      <trkpt lat="43.76075" lon="2.31216">
        <ele>319</ele>
        <time>2025-08-26T13:32:12.000Z</time>
      </trkpt>
      <trkpt lat="43.76078" lon="2.31209">
        <ele>318</ele>
        <time>2025-08-26T13:32:17.000Z</time>
      </trkpt>
      <trkpt lat="43.76079" lon="2.31203">
        <ele>317</ele>
        <time>2025-08-26T13:32:22.000Z</time>
      </trkpt>
      <trkpt lat="43.76082" lon="2.31198">
        <ele>317</ele>
        <time>2025-08-26T13:32:27.000Z</time>
      </trkpt>
      <trkpt lat="43.76084" lon="2.31193">
        <ele>316</ele>
        <time>2025-08-26T13:32:32.000Z</time>
      </trkpt>
      <trkpt lat="43.76086" lon="2.31186">
        <ele>316</ele>
        <time>2025-08-26T13:32:37.000Z</time>
      </trkpt>
      <trkpt lat="43.76089" lon="2.3118">
        <ele>318</ele>
        <time>2025-08-26T13:32:42.000Z</time>
      </trkpt>
      <trkpt lat="43.76091" lon="2.31173">
        <ele>319</ele>
        <time>2025-08-26T13:32:47.000Z</time>
      </trkpt>
      <trkpt lat="43.76093" lon="2.31166">
        <ele>319</ele>
        <time>2025-08-26T13:32:52.000Z</time>
      </trkpt>
      <trkpt lat="43.76096" lon="2.31161">
        <ele>321</ele>
        <time>2025-08-26T13:32:57.000Z</time>
      </trkpt>
      <trkpt lat="43.761" lon="2.31156">
        <ele>323</ele>
        <time>2025-08-26T13:33:02.000Z</time>
      </trkpt>
      <trkpt lat="43.76103" lon="2.31151">
        <ele>323</ele>
        <time>2025-08-26T13:33:07.000Z</time>
      </trkpt>
      <trkpt lat="43.76106" lon="2.31145">
        <ele>325</ele>
        <time>2025-08-26T13:33:12.000Z</time>
      </trkpt>
      <trkpt lat="43.76109" lon="2.31141">
        <ele>325</ele>
        <time>2025-08-26T13:33:17.000Z</time>
      </trkpt>
      <trkpt lat="43.76113" lon="2.31136">
        <ele>326</ele>
        <time>2025-08-26T13:33:22.000Z</time>
      </trkpt>
      <trkpt lat="43.76118" lon="2.3113">
        <ele>326</ele>
        <time>2025-08-26T13:33:27.000Z</time>
      </trkpt>
      <trkpt lat="43.76121" lon="2.31126">
        <ele>327</ele>
        <time>2025-08-26T13:33:32.000Z</time>
      </trkpt>
      <trkpt lat="43.76121" lon="2.31124">
        <ele>328</ele>
        <time>2025-08-26T13:33:37.000Z</time>
      </trkpt>
      <trkpt lat="43.76122" lon="2.31122">
        <ele>326</ele>
        <time>2025-08-26T13:33:42.000Z</time>
      </trkpt>
      <trkpt lat="43.76125" lon="2.31119">
        <ele>328</ele>
        <time>2025-08-26T13:33:47.000Z</time>
      </trkpt>
      <trkpt lat="43.76129" lon="2.31115">
        <ele>326</ele>
        <time>2025-08-26T13:33:52.000Z</time>
      </trkpt>
      <trkpt lat="43.76129" lon="2.31117">
        <ele>325</ele>
        <time>2025-08-26T13:33:57.000Z</time>
      </trkpt>
      <trkpt lat="43.76128" lon="2.31118">
        <ele>324</ele>
        <time>2025-08-26T13:34:02.000Z</time>
      </trkpt>
      <trkpt lat="43.76126" lon="2.3112">
        <ele>325</ele>
        <time>2025-08-26T13:34:07.000Z</time>
      </trkpt>
      <trkpt lat="43.76126" lon="2.31121">
        <ele>326</ele>
        <time>2025-08-26T13:34:12.000Z</time>
      </trkpt>
      <trkpt lat="43.76126" lon="2.31121">
        <ele>326</ele>
        <time>2025-08-26T13:34:17.000Z</time>
      </trkpt>
      <trkpt lat="43.76126" lon="2.31121">
        <ele>326</ele>
        <time>2025-08-26T13:34:22.000Z</time>
      </trkpt>
      <trkpt lat="43.76126" lon="2.31121">
        <ele>326</ele>
        <time>2025-08-26T13:34:27.000Z</time>
      </trkpt>
      <trkpt lat="43.76126" lon="2.31121">
        <ele>326</ele>
        <time>2025-08-26T13:34:32.000Z</time>
      </trkpt>
      <trkpt lat="43.76126" lon="2.31121">
        <ele>326</ele>
        <time>2025-08-26T13:34:37.000Z</time>
      </trkpt>
      <trkpt lat="43.76126" lon="2.31121">
        <ele>326</ele>
        <time>2025-08-26T13:34:42.000Z</time>
      </trkpt>
      <trkpt lat="43.76126" lon="2.31121">
        <ele>326</ele>
        <time>2025-08-26T13:34:47.000Z</time>
      </trkpt>
      <trkpt lat="43.76126" lon="2.31121">
        <ele>326</ele>
        <time>2025-08-26T13:34:52.000Z</time>
      </trkpt>
      <trkpt lat="43.76126" lon="2.31121">
        <ele>326</ele>
        <time>2025-08-26T13:34:57.000Z</time>
      </trkpt>
      <trkpt lat="43.76127" lon="2.31121">
        <ele>326</ele>
        <time>2025-08-26T13:35:02.000Z</time>
      </trkpt>
      <trkpt lat="43.76127" lon="2.31121">
        <ele>324</ele>
        <time>2025-08-26T13:35:07.000Z</time>
      </trkpt>
      <trkpt lat="43.76127" lon="2.31121">
        <ele>324</ele>
        <time>2025-08-26T13:35:12.000Z</time>
      </trkpt>
      <trkpt lat="43.76127" lon="2.31121">
        <ele>324</ele>
        <time>2025-08-26T13:35:17.000Z</time>
      </trkpt>
      <trkpt lat="43.76127" lon="2.31121">
        <ele>324</ele>
        <time>2025-08-26T13:35:22.000Z</time>
      </trkpt>
      <trkpt lat="43.76127" lon="2.31121">
        <ele>324</ele>
        <time>2025-08-26T13:35:27.000Z</time>
      </trkpt>
      <trkpt lat="43.76127" lon="2.31121">
        <ele>324</ele>
        <time>2025-08-26T13:35:32.000Z</time>
      </trkpt>
      <trkpt lat="43.76127" lon="2.31121">
        <ele>324</ele>
        <time>2025-08-26T13:35:37.000Z</time>
      </trkpt>
      <trkpt lat="43.76127" lon="2.31121">
        <ele>324</ele>
        <time>2025-08-26T13:35:42.000Z</time>
      </trkpt>
      <trkpt lat="43.76127" lon="2.31121">
        <ele>324</ele>
        <time>2025-08-26T13:35:47.000Z</time>
      </trkpt>
      <trkpt lat="43.76127" lon="2.31121">
        <ele>324</ele>
        <time>2025-08-26T13:35:52.000Z</time>
      </trkpt>
      <trkpt lat="43.76127" lon="2.31121">
        <ele>324</ele>
        <time>2025-08-26T13:35:57.000Z</time>
      </trkpt>
      <trkpt lat="43.76127" lon="2.31121">
        <ele>324</ele>
        <time>2025-08-26T13:36:02.000Z</time>
      </trkpt>
      <trkpt lat="43.76127" lon="2.31121">
        <ele>324</ele>
        <time>2025-08-26T13:36:07.000Z</time>
      </trkpt>
      <trkpt lat="43.76127" lon="2.31121">
        <ele>324</ele>
        <time>2025-08-26T13:36:12.000Z</time>
      </trkpt>
      <trkpt lat="43.76127" lon="2.31121">
        <ele>324</ele>
        <time>2025-08-26T13:36:17.000Z</time>
      </trkpt>
      <trkpt lat="43.76127" lon="2.31121">
        <ele>324</ele>
        <time>2025-08-26T13:36:22.000Z</time>
      </trkpt>
      <trkpt lat="43.76127" lon="2.31121">
        <ele>325</ele>
        <time>2025-08-26T13:36:27.000Z</time>
      </trkpt>
      <trkpt lat="43.76127" lon="2.31121">
        <ele>325</ele>
        <time>2025-08-26T13:36:32.000Z</time>
      </trkpt>
      <trkpt lat="43.76127" lon="2.31121">
        <ele>322</ele>
        <time>2025-08-26T13:36:37.000Z</time>
      </trkpt>
      <trkpt lat="43.76128" lon="2.31123">
        <ele>323</ele>
        <time>2025-08-26T13:36:42.000Z</time>
      </trkpt>
      <trkpt lat="43.76128" lon="2.31123">
        <ele>323</ele>
        <time>2025-08-26T13:36:47.000Z</time>
      </trkpt>
      <trkpt lat="43.76128" lon="2.31123">
        <ele>323</ele>
        <time>2025-08-26T13:36:52.000Z</time>
      </trkpt>
      <trkpt lat="43.76128" lon="2.31123">
        <ele>323</ele>
        <time>2025-08-26T13:36:57.000Z</time>
      </trkpt>
      <trkpt lat="43.76128" lon="2.31123">
        <ele>323</ele>
        <time>2025-08-26T13:37:02.000Z</time>
      </trkpt>
      <trkpt lat="43.76128" lon="2.31123">
        <ele>323</ele>
        <time>2025-08-26T13:37:07.000Z</time>
      </trkpt>
      <trkpt lat="43.76128" lon="2.31123">
        <ele>323</ele>
        <time>2025-08-26T13:37:12.000Z</time>
      </trkpt>
      <trkpt lat="43.76128" lon="2.31123">
        <ele>323</ele>
        <time>2025-08-26T13:37:17.000Z</time>
      </trkpt>
      <trkpt lat="43.76128" lon="2.31123">
        <ele>323</ele>
        <time>2025-08-26T13:37:22.000Z</time>
      </trkpt>
      <trkpt lat="43.76128" lon="2.31122">
        <ele>323</ele>
        <time>2025-08-26T13:37:27.000Z</time>
      </trkpt>
      <trkpt lat="43.76128" lon="2.31122">
        <ele>324</ele>
        <time>2025-08-26T13:37:32.000Z</time>
      </trkpt>
      <trkpt lat="43.76128" lon="2.31122">
        <ele>324</ele>
        <time>2025-08-26T13:37:37.000Z</time>
      </trkpt>
      <trkpt lat="43.76129" lon="2.31121">
        <ele>323</ele>
        <time>2025-08-26T13:37:42.000Z</time>
      </trkpt>
      <trkpt lat="43.7613" lon="2.31121">
        <ele>322</ele>
        <time>2025-08-26T13:37:47.000Z</time>
      </trkpt>
      <trkpt lat="43.76132" lon="2.31115">
        <ele>322</ele>
        <time>2025-08-26T13:37:52.000Z</time>
      </trkpt>
      <trkpt lat="43.76134" lon="2.31114">
        <ele>324</ele>
        <time>2025-08-26T13:37:57.000Z</time>
      </trkpt>
      <trkpt lat="43.76138" lon="2.3111">
        <ele>325</ele>
        <time>2025-08-26T13:38:02.000Z</time>
      </trkpt>
      <trkpt lat="43.76142" lon="2.31106">
        <ele>326</ele>
        <time>2025-08-26T13:38:07.000Z</time>
      </trkpt>
      <trkpt lat="43.76145" lon="2.31103">
        <ele>326</ele>
        <time>2025-08-26T13:38:12.000Z</time>
      </trkpt>
      <trkpt lat="43.76148" lon="2.311">
        <ele>326</ele>
        <time>2025-08-26T13:38:17.000Z</time>
      </trkpt>
      <trkpt lat="43.76153" lon="2.31097">
        <ele>328</ele>
        <time>2025-08-26T13:38:22.000Z</time>
      </trkpt>
      <trkpt lat="43.76156" lon="2.31092">
        <ele>330</ele>
        <time>2025-08-26T13:38:27.000Z</time>
      </trkpt>
      <trkpt lat="43.76159" lon="2.31088">
        <ele>330</ele>
        <time>2025-08-26T13:38:32.000Z</time>
      </trkpt>
      <trkpt lat="43.76159" lon="2.31085">
        <ele>329</ele>
        <time>2025-08-26T13:38:37.000Z</time>
      </trkpt>
      <trkpt lat="43.76158" lon="2.31086">
        <ele>330</ele>
        <time>2025-08-26T13:38:42.000Z</time>
      </trkpt>
      <trkpt lat="43.76158" lon="2.31085">
        <ele>331</ele>
        <time>2025-08-26T13:38:47.000Z</time>
      </trkpt>
      <trkpt lat="43.76155" lon="2.31086">
        <ele>333</ele>
        <time>2025-08-26T13:38:52.000Z</time>
      </trkpt>
      <trkpt lat="43.76152" lon="2.31086">
        <ele>333</ele>
        <time>2025-08-26T13:38:57.000Z</time>
      </trkpt>
      <trkpt lat="43.76149" lon="2.31088">
        <ele>334</ele>
        <time>2025-08-26T13:39:02.000Z</time>
      </trkpt>
      <trkpt lat="43.76146" lon="2.31089">
        <ele>333</ele>
        <time>2025-08-26T13:39:07.000Z</time>
      </trkpt>
      <trkpt lat="43.76143" lon="2.31092">
        <ele>334</ele>
        <time>2025-08-26T13:39:12.000Z</time>
      </trkpt>
      <trkpt lat="43.76139" lon="2.31094">
        <ele>334</ele>
        <time>2025-08-26T13:39:17.000Z</time>
      </trkpt>
      <trkpt lat="43.76135" lon="2.31095">
        <ele>335</ele>
        <time>2025-08-26T13:39:22.000Z</time>
      </trkpt>
      <trkpt lat="43.76132" lon="2.31095">
        <ele>334</ele>
        <time>2025-08-26T13:39:27.000Z</time>
      </trkpt>
      <trkpt lat="43.76129" lon="2.31096">
        <ele>333</ele>
        <time>2025-08-26T13:39:32.000Z</time>
      </trkpt>
      <trkpt lat="43.76123" lon="2.31098">
        <ele>332</ele>
        <time>2025-08-26T13:39:37.000Z</time>
      </trkpt>
      <trkpt lat="43.76118" lon="2.31097">
        <ele>331</ele>
        <time>2025-08-26T13:39:42.000Z</time>
      </trkpt>
      <trkpt lat="43.76113" lon="2.31098">
        <ele>333</ele>
        <time>2025-08-26T13:39:47.000Z</time>
      </trkpt>
      <trkpt lat="43.76107" lon="2.31098">
        <ele>332</ele>
        <time>2025-08-26T13:39:52.000Z</time>
      </trkpt>
      <trkpt lat="43.76102" lon="2.31097">
        <ele>332</ele>
        <time>2025-08-26T13:39:57.000Z</time>
      </trkpt>
      <trkpt lat="43.76099" lon="2.31098">
        <ele>332</ele>
        <time>2025-08-26T13:40:02.000Z</time>
      </trkpt>
      <trkpt lat="43.76098" lon="2.31098">
        <ele>334</ele>
        <time>2025-08-26T13:40:07.000Z</time>
      </trkpt>
      <trkpt lat="43.76098" lon="2.31098">
        <ele>333</ele>
        <time>2025-08-26T13:40:12.000Z</time>
      </trkpt>
      <trkpt lat="43.76095" lon="2.31098">
        <ele>332</ele>
        <time>2025-08-26T13:40:17.000Z</time>
      </trkpt>
      <trkpt lat="43.76092" lon="2.31099">
        <ele>332</ele>
        <time>2025-08-26T13:40:22.000Z</time>
      </trkpt>
      <trkpt lat="43.76089" lon="2.31099">
        <ele>333</ele>
        <time>2025-08-26T13:40:27.000Z</time>
      </trkpt>
      <trkpt lat="43.76083" lon="2.31105">
        <ele>335</ele>
        <time>2025-08-26T13:40:32.000Z</time>
      </trkpt>
      <trkpt lat="43.76079" lon="2.31108">
        <ele>338</ele>
        <time>2025-08-26T13:40:37.000Z</time>
      </trkpt>
      <trkpt lat="43.76075" lon="2.31111">
        <ele>340</ele>
        <time>2025-08-26T13:40:42.000Z</time>
      </trkpt>
      <trkpt lat="43.7607" lon="2.31114">
        <ele>342</ele>
        <time>2025-08-26T13:40:47.000Z</time>
      </trkpt>
      <trkpt lat="43.76066" lon="2.31116">
        <ele>342</ele>
        <time>2025-08-26T13:40:52.000Z</time>
      </trkpt>
      <trkpt lat="43.76062" lon="2.31117">
        <ele>343</ele>
        <time>2025-08-26T13:40:57.000Z</time>
      </trkpt>
      <trkpt lat="43.76059" lon="2.3112">
        <ele>345</ele>
        <time>2025-08-26T13:41:02.000Z</time>
      </trkpt>
      <trkpt lat="43.76056" lon="2.31122">
        <ele>343</ele>
        <time>2025-08-26T13:41:07.000Z</time>
      </trkpt>
      <trkpt lat="43.76053" lon="2.31123">
        <ele>343</ele>
        <time>2025-08-26T13:41:12.000Z</time>
      </trkpt>
      <trkpt lat="43.7605" lon="2.31124">
        <ele>341</ele>
        <time>2025-08-26T13:41:17.000Z</time>
      </trkpt>
      <trkpt lat="43.76047" lon="2.31124">
        <ele>343</ele>
        <time>2025-08-26T13:41:22.000Z</time>
      </trkpt>
      <trkpt lat="43.76044" lon="2.31125">
        <ele>345</ele>
        <time>2025-08-26T13:41:27.000Z</time>
      </trkpt>
      <trkpt lat="43.76041" lon="2.31128">
        <ele>345</ele>
        <time>2025-08-26T13:41:32.000Z</time>
      </trkpt>
      <trkpt lat="43.76037" lon="2.31131">
        <ele>345</ele>
        <time>2025-08-26T13:41:37.000Z</time>
      </trkpt>
      <trkpt lat="43.76033" lon="2.31133">
        <ele>346</ele>
        <time>2025-08-26T13:41:42.000Z</time>
      </trkpt>
      <trkpt lat="43.76033" lon="2.31133">
        <ele>347</ele>
        <time>2025-08-26T13:41:47.000Z</time>
      </trkpt>
      <trkpt lat="43.76033" lon="2.31133">
        <ele>347</ele>
        <time>2025-08-26T13:41:52.000Z</time>
      </trkpt>
      <trkpt lat="43.76033" lon="2.31133">
        <ele>347</ele>
        <time>2025-08-26T13:41:57.000Z</time>
      </trkpt>
      <trkpt lat="43.76033" lon="2.31133">
        <ele>347</ele>
        <time>2025-08-26T13:42:02.000Z</time>
      </trkpt>
      <trkpt lat="43.76032" lon="2.31133">
        <ele>347</ele>
        <time>2025-08-26T13:42:07.000Z</time>
      </trkpt>
      <trkpt lat="43.76032" lon="2.31133">
        <ele>347</ele>
        <time>2025-08-26T13:42:12.000Z</time>
      </trkpt>
      <trkpt lat="43.7603" lon="2.31135">
        <ele>348</ele>
        <time>2025-08-26T13:42:17.000Z</time>
      </trkpt>
      <trkpt lat="43.76027" lon="2.31137">
        <ele>346</ele>
        <time>2025-08-26T13:42:22.000Z</time>
      </trkpt>
      <trkpt lat="43.76024" lon="2.31138">
        <ele>346</ele>
        <time>2025-08-26T13:42:27.000Z</time>
      </trkpt>
      <trkpt lat="43.76019" lon="2.31141">
        <ele>346</ele>
        <time>2025-08-26T13:42:32.000Z</time>
      </trkpt>
      <trkpt lat="43.76014" lon="2.31142">
        <ele>348</ele>
        <time>2025-08-26T13:42:37.000Z</time>
      </trkpt>
      <trkpt lat="43.76012" lon="2.31144">
        <ele>348</ele>
        <time>2025-08-26T13:42:42.000Z</time>
      </trkpt>
      <trkpt lat="43.76007" lon="2.31144">
        <ele>349</ele>
        <time>2025-08-26T13:42:47.000Z</time>
      </trkpt>
      <trkpt lat="43.76003" lon="2.31147">
        <ele>349</ele>
        <time>2025-08-26T13:42:52.000Z</time>
      </trkpt>
      <trkpt lat="43.75998" lon="2.31148">
        <ele>348</ele>
        <time>2025-08-26T13:42:57.000Z</time>
      </trkpt>
      <trkpt lat="43.75993" lon="2.31149">
        <ele>347</ele>
        <time>2025-08-26T13:43:02.000Z</time>
      </trkpt>
      <trkpt lat="43.75988" lon="2.3115">
        <ele>347</ele>
        <time>2025-08-26T13:43:07.000Z</time>
      </trkpt>
      <trkpt lat="43.75983" lon="2.31151">
        <ele>347</ele>
        <time>2025-08-26T13:43:12.000Z</time>
      </trkpt>
      <trkpt lat="43.75978" lon="2.31153">
        <ele>346</ele>
        <time>2025-08-26T13:43:17.000Z</time>
      </trkpt>
      <trkpt lat="43.75974" lon="2.31155">
        <ele>345</ele>
        <time>2025-08-26T13:43:22.000Z</time>
      </trkpt>
      <trkpt lat="43.7597" lon="2.31155">
        <ele>345</ele>
        <time>2025-08-26T13:43:27.000Z</time>
      </trkpt>
      <trkpt lat="43.75967" lon="2.31155">
        <ele>343</ele>
        <time>2025-08-26T13:43:32.000Z</time>
      </trkpt>
      <trkpt lat="43.75962" lon="2.31156">
        <ele>343</ele>
        <time>2025-08-26T13:43:37.000Z</time>
      </trkpt>
      <trkpt lat="43.75957" lon="2.31159">
        <ele>342</ele>
        <time>2025-08-26T13:43:42.000Z</time>
      </trkpt>
      <trkpt lat="43.75953" lon="2.31161">
        <ele>343</ele>
        <time>2025-08-26T13:43:47.000Z</time>
      </trkpt>
      <trkpt lat="43.7595" lon="2.31163">
        <ele>342</ele>
        <time>2025-08-26T13:43:52.000Z</time>
      </trkpt>
      <trkpt lat="43.75944" lon="2.31165">
        <ele>343</ele>
        <time>2025-08-26T13:43:57.000Z</time>
      </trkpt>
      <trkpt lat="43.75939" lon="2.31166">
        <ele>344</ele>
        <time>2025-08-26T13:44:02.000Z</time>
      </trkpt>
      <trkpt lat="43.75933" lon="2.31167">
        <ele>344</ele>
        <time>2025-08-26T13:44:07.000Z</time>
      </trkpt>
      <trkpt lat="43.75928" lon="2.31168">
        <ele>345</ele>
        <time>2025-08-26T13:44:12.000Z</time>
      </trkpt>
      <trkpt lat="43.75924" lon="2.3117">
        <ele>345</ele>
        <time>2025-08-26T13:44:17.000Z</time>
      </trkpt>
      <trkpt lat="43.75921" lon="2.3117">
        <ele>345</ele>
        <time>2025-08-26T13:44:22.000Z</time>
      </trkpt>
      <trkpt lat="43.75916" lon="2.31171">
        <ele>345</ele>
        <time>2025-08-26T13:44:27.000Z</time>
      </trkpt>
      <trkpt lat="43.75912" lon="2.31172">
        <ele>344</ele>
        <time>2025-08-26T13:44:32.000Z</time>
      </trkpt>
      <trkpt lat="43.75908" lon="2.31173">
        <ele>344</ele>
        <time>2025-08-26T13:44:37.000Z</time>
      </trkpt>
      <trkpt lat="43.75904" lon="2.31176">
        <ele>346</ele>
        <time>2025-08-26T13:44:42.000Z</time>
      </trkpt>
      <trkpt lat="43.75898" lon="2.31178">
        <ele>346</ele>
        <time>2025-08-26T13:44:47.000Z</time>
      </trkpt>
      <trkpt lat="43.75894" lon="2.3118">
        <ele>345</ele>
        <time>2025-08-26T13:44:52.000Z</time>
      </trkpt>
      <trkpt lat="43.75889" lon="2.31183">
        <ele>345</ele>
        <time>2025-08-26T13:44:57.000Z</time>
      </trkpt>
      <trkpt lat="43.75884" lon="2.31185">
        <ele>346</ele>
        <time>2025-08-26T13:45:02.000Z</time>
      </trkpt>
      <trkpt lat="43.7588" lon="2.31189">
        <ele>347</ele>
        <time>2025-08-26T13:45:07.000Z</time>
      </trkpt>
      <trkpt lat="43.75876" lon="2.31194">
        <ele>347</ele>
        <time>2025-08-26T13:45:12.000Z</time>
      </trkpt>
      <trkpt lat="43.75871" lon="2.31197">
        <ele>349</ele>
        <time>2025-08-26T13:45:17.000Z</time>
      </trkpt>
      <trkpt lat="43.75865" lon="2.312">
        <ele>349</ele>
        <time>2025-08-26T13:45:22.000Z</time>
      </trkpt>
      <trkpt lat="43.7586" lon="2.31203">
        <ele>351</ele>
        <time>2025-08-26T13:45:27.000Z</time>
      </trkpt>
      <trkpt lat="43.75854" lon="2.31206">
        <ele>352</ele>
        <time>2025-08-26T13:45:32.000Z</time>
      </trkpt>
      <trkpt lat="43.75849" lon="2.31209">
        <ele>352</ele>
        <time>2025-08-26T13:45:37.000Z</time>
      </trkpt>
      <trkpt lat="43.75844" lon="2.31211">
        <ele>351</ele>
        <time>2025-08-26T13:45:42.000Z</time>
      </trkpt>
      <trkpt lat="43.75839" lon="2.31213">
        <ele>354</ele>
        <time>2025-08-26T13:45:47.000Z</time>
      </trkpt>
      <trkpt lat="43.75834" lon="2.31217">
        <ele>354</ele>
        <time>2025-08-26T13:45:52.000Z</time>
      </trkpt>
      <trkpt lat="43.75828" lon="2.31219">
        <ele>354</ele>
        <time>2025-08-26T13:45:57.000Z</time>
      </trkpt>
      <trkpt lat="43.75825" lon="2.3122">
        <ele>355</ele>
        <time>2025-08-26T13:46:02.000Z</time>
      </trkpt>
      <trkpt lat="43.75819" lon="2.31221">
        <ele>355</ele>
        <time>2025-08-26T13:46:07.000Z</time>
      </trkpt>
      <trkpt lat="43.75813" lon="2.31222">
        <ele>354</ele>
        <time>2025-08-26T13:46:12.000Z</time>
      </trkpt>
      <trkpt lat="43.75809" lon="2.31223">
        <ele>353</ele>
        <time>2025-08-26T13:46:17.000Z</time>
      </trkpt>
      <trkpt lat="43.75802" lon="2.31223">
        <ele>354</ele>
        <time>2025-08-26T13:46:22.000Z</time>
      </trkpt>
      <trkpt lat="43.75797" lon="2.31223">
        <ele>353</ele>
        <time>2025-08-26T13:46:27.000Z</time>
      </trkpt>
      <trkpt lat="43.75792" lon="2.31224">
        <ele>355</ele>
        <time>2025-08-26T13:46:32.000Z</time>
      </trkpt>
      <trkpt lat="43.75786" lon="2.31224">
        <ele>355</ele>
        <time>2025-08-26T13:46:37.000Z</time>
      </trkpt>
      <trkpt lat="43.75781" lon="2.31223">
        <ele>354</ele>
        <time>2025-08-26T13:46:42.000Z</time>
      </trkpt>
      <trkpt lat="43.75778" lon="2.31223">
        <ele>355</ele>
        <time>2025-08-26T13:46:47.000Z</time>
      </trkpt>
      <trkpt lat="43.75773" lon="2.31224">
        <ele>356</ele>
        <time>2025-08-26T13:46:52.000Z</time>
      </trkpt>
      <trkpt lat="43.75769" lon="2.31226">
        <ele>356</ele>
        <time>2025-08-26T13:46:57.000Z</time>
      </trkpt>
      <trkpt lat="43.75764" lon="2.31224">
        <ele>356</ele>
        <time>2025-08-26T13:47:02.000Z</time>
      </trkpt>
      <trkpt lat="43.75759" lon="2.31223">
        <ele>357</ele>
        <time>2025-08-26T13:47:07.000Z</time>
      </trkpt>
      <trkpt lat="43.75755" lon="2.31223">
        <ele>357</ele>
        <time>2025-08-26T13:47:12.000Z</time>
      </trkpt>
      <trkpt lat="43.75751" lon="2.31224">
        <ele>358</ele>
        <time>2025-08-26T13:47:17.000Z</time>
      </trkpt>
      <trkpt lat="43.75745" lon="2.31227">
        <ele>359</ele>
        <time>2025-08-26T13:47:22.000Z</time>
      </trkpt>
      <trkpt lat="43.75739" lon="2.3123">
        <ele>359</ele>
        <time>2025-08-26T13:47:27.000Z</time>
      </trkpt>
      <trkpt lat="43.75735" lon="2.31234">
        <ele>360</ele>
        <time>2025-08-26T13:47:32.000Z</time>
      </trkpt>
      <trkpt lat="43.7573" lon="2.31236">
        <ele>359</ele>
        <time>2025-08-26T13:47:37.000Z</time>
      </trkpt>
      <trkpt lat="43.75726" lon="2.31239">
        <ele>359</ele>
        <time>2025-08-26T13:47:42.000Z</time>
      </trkpt>
      <trkpt lat="43.75722" lon="2.3124">
        <ele>360</ele>
        <time>2025-08-26T13:47:47.000Z</time>
      </trkpt>
      <trkpt lat="43.75717" lon="2.3124">
        <ele>360</ele>
        <time>2025-08-26T13:47:52.000Z</time>
      </trkpt>
      <trkpt lat="43.75712" lon="2.31242">
        <ele>362</ele>
        <time>2025-08-26T13:47:57.000Z</time>
      </trkpt>
      <trkpt lat="43.75707" lon="2.31243">
        <ele>363</ele>
        <time>2025-08-26T13:48:02.000Z</time>
      </trkpt>
      <trkpt lat="43.75702" lon="2.31243">
        <ele>363</ele>
        <time>2025-08-26T13:48:07.000Z</time>
      </trkpt>
      <trkpt lat="43.75698" lon="2.31244">
        <ele>363</ele>
        <time>2025-08-26T13:48:12.000Z</time>
      </trkpt>
      <trkpt lat="43.75693" lon="2.31242">
        <ele>361</ele>
        <time>2025-08-26T13:48:17.000Z</time>
      </trkpt>
      <trkpt lat="43.75689" lon="2.31242">
        <ele>363</ele>
        <time>2025-08-26T13:48:22.000Z</time>
      </trkpt>
      <trkpt lat="43.75684" lon="2.31242">
        <ele>363</ele>
        <time>2025-08-26T13:48:27.000Z</time>
      </trkpt>
      <trkpt lat="43.75679" lon="2.31242">
        <ele>363</ele>
        <time>2025-08-26T13:48:32.000Z</time>
      </trkpt>
      <trkpt lat="43.75675" lon="2.31245">
        <ele>364</ele>
        <time>2025-08-26T13:48:37.000Z</time>
      </trkpt>
      <trkpt lat="43.7567" lon="2.31244">
        <ele>364</ele>
        <time>2025-08-26T13:48:42.000Z</time>
      </trkpt>
      <trkpt lat="43.75666" lon="2.31243">
        <ele>365</ele>
        <time>2025-08-26T13:48:47.000Z</time>
      </trkpt>
      <trkpt lat="43.75661" lon="2.31243">
        <ele>366</ele>
        <time>2025-08-26T13:48:52.000Z</time>
      </trkpt>
      <trkpt lat="43.75656" lon="2.31244">
        <ele>365</ele>
        <time>2025-08-26T13:48:57.000Z</time>
      </trkpt>
      <trkpt lat="43.75648" lon="2.31244">
        <ele>364</ele>
        <time>2025-08-26T13:49:02.000Z</time>
      </trkpt>
      <trkpt lat="43.75642" lon="2.31243">
        <ele>366</ele>
        <time>2025-08-26T13:49:07.000Z</time>
      </trkpt>
      <trkpt lat="43.75636" lon="2.31242">
        <ele>367</ele>
        <time>2025-08-26T13:49:12.000Z</time>
      </trkpt>
      <trkpt lat="43.75631" lon="2.3124">
        <ele>369</ele>
        <time>2025-08-26T13:49:17.000Z</time>
      </trkpt>
      <trkpt lat="43.75626" lon="2.31239">
        <ele>369</ele>
        <time>2025-08-26T13:49:22.000Z</time>
      </trkpt>
      <trkpt lat="43.75621" lon="2.31238">
        <ele>370</ele>
        <time>2025-08-26T13:49:27.000Z</time>
      </trkpt>
      <trkpt lat="43.75616" lon="2.31236">
        <ele>372</ele>
        <time>2025-08-26T13:49:32.000Z</time>
      </trkpt>
      <trkpt lat="43.75612" lon="2.31233">
        <ele>374</ele>
        <time>2025-08-26T13:49:37.000Z</time>
      </trkpt>
      <trkpt lat="43.75608" lon="2.31229">
        <ele>375</ele>
        <time>2025-08-26T13:49:42.000Z</time>
      </trkpt>
      <trkpt lat="43.75604" lon="2.31226">
        <ele>377</ele>
        <time>2025-08-26T13:49:47.000Z</time>
      </trkpt>
      <trkpt lat="43.75601" lon="2.31226">
        <ele>380</ele>
        <time>2025-08-26T13:49:52.000Z</time>
      </trkpt>
      <trkpt lat="43.75598" lon="2.31221">
        <ele>379</ele>
        <time>2025-08-26T13:49:57.000Z</time>
      </trkpt>
      <trkpt lat="43.75595" lon="2.31216">
        <ele>379</ele>
        <time>2025-08-26T13:50:02.000Z</time>
      </trkpt>
      <trkpt lat="43.75592" lon="2.3121">
        <ele>381</ele>
        <time>2025-08-26T13:50:07.000Z</time>
      </trkpt>
      <trkpt lat="43.75588" lon="2.31205">
        <ele>382</ele>
        <time>2025-08-26T13:50:12.000Z</time>
      </trkpt>
      <trkpt lat="43.75584" lon="2.312">
        <ele>382</ele>
        <time>2025-08-26T13:50:17.000Z</time>
      </trkpt>
      <trkpt lat="43.7558" lon="2.31195">
        <ele>383</ele>
        <time>2025-08-26T13:50:22.000Z</time>
      </trkpt>
      <trkpt lat="43.75576" lon="2.3119">
        <ele>382</ele>
        <time>2025-08-26T13:50:27.000Z</time>
      </trkpt>
      <trkpt lat="43.75574" lon="2.31187">
        <ele>382</ele>
        <time>2025-08-26T13:50:32.000Z</time>
      </trkpt>
      <trkpt lat="43.75573" lon="2.31181">
        <ele>381</ele>
        <time>2025-08-26T13:50:37.000Z</time>
      </trkpt>
      <trkpt lat="43.75571" lon="2.31178">
        <ele>380</ele>
        <time>2025-08-26T13:50:42.000Z</time>
      </trkpt>
      <trkpt lat="43.7557" lon="2.31174">
        <ele>383</ele>
        <time>2025-08-26T13:50:47.000Z</time>
      </trkpt>
      <trkpt lat="43.75568" lon="2.31171">
        <ele>381</ele>
        <time>2025-08-26T13:50:52.000Z</time>
      </trkpt>
      <trkpt lat="43.75567" lon="2.3117">
        <ele>381</ele>
        <time>2025-08-26T13:50:57.000Z</time>
      </trkpt>
      <trkpt lat="43.75567" lon="2.31169">
        <ele>382</ele>
        <time>2025-08-26T13:51:02.000Z</time>
      </trkpt>
      <trkpt lat="43.75566" lon="2.31169">
        <ele>382</ele>
        <time>2025-08-26T13:51:07.000Z</time>
      </trkpt>
      <trkpt lat="43.75565" lon="2.31168">
        <ele>383</ele>
        <time>2025-08-26T13:51:12.000Z</time>
      </trkpt>
      <trkpt lat="43.75565" lon="2.31167">
        <ele>385</ele>
        <time>2025-08-26T13:51:17.000Z</time>
      </trkpt>
      <trkpt lat="43.75565" lon="2.31167">
        <ele>385</ele>
        <time>2025-08-26T13:51:22.000Z</time>
      </trkpt>
      <trkpt lat="43.75565" lon="2.31167">
        <ele>385</ele>
        <time>2025-08-26T13:51:27.000Z</time>
      </trkpt>
      <trkpt lat="43.75565" lon="2.31167">
        <ele>385</ele>
        <time>2025-08-26T13:51:32.000Z</time>
      </trkpt>
      <trkpt lat="43.75565" lon="2.31167">
        <ele>385</ele>
        <time>2025-08-26T13:51:37.000Z</time>
      </trkpt>
      <trkpt lat="43.75565" lon="2.31167">
        <ele>385</ele>
        <time>2025-08-26T13:51:42.000Z</time>
      </trkpt>
      <trkpt lat="43.75564" lon="2.31165">
        <ele>386</ele>
        <time>2025-08-26T13:51:47.000Z</time>
      </trkpt>
      <trkpt lat="43.75563" lon="2.31161">
        <ele>386</ele>
        <time>2025-08-26T13:51:52.000Z</time>
      </trkpt>
      <trkpt lat="43.75562" lon="2.31157">
        <ele>387</ele>
        <time>2025-08-26T13:51:57.000Z</time>
      </trkpt>
      <trkpt lat="43.75561" lon="2.31153">
        <ele>385</ele>
        <time>2025-08-26T13:52:02.000Z</time>
      </trkpt>
      <trkpt lat="43.75558" lon="2.31148">
        <ele>386</ele>
        <time>2025-08-26T13:52:07.000Z</time>
      </trkpt>
      <trkpt lat="43.75555" lon="2.31143">
        <ele>388</ele>
        <time>2025-08-26T13:52:12.000Z</time>
      </trkpt>
      <trkpt lat="43.75552" lon="2.31139">
        <ele>390</ele>
        <time>2025-08-26T13:52:17.000Z</time>
      </trkpt>
      <trkpt lat="43.7555" lon="2.31133">
        <ele>389</ele>
        <time>2025-08-26T13:52:22.000Z</time>
      </trkpt>
      <trkpt lat="43.75546" lon="2.3113">
        <ele>386</ele>
        <time>2025-08-26T13:52:27.000Z</time>
      </trkpt>
      <trkpt lat="43.75543" lon="2.31126">
        <ele>385</ele>
        <time>2025-08-26T13:52:32.000Z</time>
      </trkpt>
      <trkpt lat="43.75539" lon="2.31121">
        <ele>384</ele>
        <time>2025-08-26T13:52:37.000Z</time>
      </trkpt>
      <trkpt lat="43.75536" lon="2.31118">
        <ele>386</ele>
        <time>2025-08-26T13:52:42.000Z</time>
      </trkpt>
      <trkpt lat="43.75532" lon="2.31113">
        <ele>386</ele>
        <time>2025-08-26T13:52:47.000Z</time>
      </trkpt>
      <trkpt lat="43.75529" lon="2.31108">
        <ele>384</ele>
        <time>2025-08-26T13:52:52.000Z</time>
      </trkpt>
      <trkpt lat="43.75525" lon="2.31106">
        <ele>384</ele>
        <time>2025-08-26T13:52:57.000Z</time>
      </trkpt>
      <trkpt lat="43.7552" lon="2.31104">
        <ele>383</ele>
        <time>2025-08-26T13:53:02.000Z</time>
      </trkpt>
      <trkpt lat="43.75515" lon="2.311">
        <ele>383</ele>
        <time>2025-08-26T13:53:07.000Z</time>
      </trkpt>
      <trkpt lat="43.7551" lon="2.31098">
        <ele>383</ele>
        <time>2025-08-26T13:53:12.000Z</time>
      </trkpt>
      <trkpt lat="43.75505" lon="2.31095">
        <ele>384</ele>
        <time>2025-08-26T13:53:17.000Z</time>
      </trkpt>
      <trkpt lat="43.75501" lon="2.31093">
        <ele>386</ele>
        <time>2025-08-26T13:53:22.000Z</time>
      </trkpt>
      <trkpt lat="43.75496" lon="2.31092">
        <ele>386</ele>
        <time>2025-08-26T13:53:27.000Z</time>
      </trkpt>
      <trkpt lat="43.75492" lon="2.31092">
        <ele>387</ele>
        <time>2025-08-26T13:53:32.000Z</time>
      </trkpt>
      <trkpt lat="43.75487" lon="2.3109">
        <ele>387</ele>
        <time>2025-08-26T13:53:37.000Z</time>
      </trkpt>
      <trkpt lat="43.75479" lon="2.3109">
        <ele>388</ele>
        <time>2025-08-26T13:53:42.000Z</time>
      </trkpt>
      <trkpt lat="43.75473" lon="2.31091">
        <ele>388</ele>
        <time>2025-08-26T13:53:47.000Z</time>
      </trkpt>
      <trkpt lat="43.75468" lon="2.31092">
        <ele>388</ele>
        <time>2025-08-26T13:53:52.000Z</time>
      </trkpt>
      <trkpt lat="43.75464" lon="2.31092">
        <ele>389</ele>
        <time>2025-08-26T13:53:57.000Z</time>
      </trkpt>
      <trkpt lat="43.7546" lon="2.3109">
        <ele>389</ele>
        <time>2025-08-26T13:54:02.000Z</time>
      </trkpt>
      <trkpt lat="43.75454" lon="2.31089">
        <ele>390</ele>
        <time>2025-08-26T13:54:07.000Z</time>
      </trkpt>
      <trkpt lat="43.75451" lon="2.31087">
        <ele>388</ele>
        <time>2025-08-26T13:54:12.000Z</time>
      </trkpt>
      <trkpt lat="43.75445" lon="2.31086">
        <ele>388</ele>
        <time>2025-08-26T13:54:17.000Z</time>
      </trkpt>
      <trkpt lat="43.75439" lon="2.31087">
        <ele>388</ele>
        <time>2025-08-26T13:54:22.000Z</time>
      </trkpt>
      <trkpt lat="43.75433" lon="2.31088">
        <ele>388</ele>
        <time>2025-08-26T13:54:27.000Z</time>
      </trkpt>
      <trkpt lat="43.75429" lon="2.31089">
        <ele>388</ele>
        <time>2025-08-26T13:54:32.000Z</time>
      </trkpt>
      <trkpt lat="43.75424" lon="2.3109">
        <ele>387</ele>
        <time>2025-08-26T13:54:37.000Z</time>
      </trkpt>
      <trkpt lat="43.7542" lon="2.31091">
        <ele>387</ele>
        <time>2025-08-26T13:54:42.000Z</time>
      </trkpt>
      <trkpt lat="43.75415" lon="2.31093">
        <ele>387</ele>
        <time>2025-08-26T13:54:47.000Z</time>
      </trkpt>
      <trkpt lat="43.7541" lon="2.31094">
        <ele>388</ele>
        <time>2025-08-26T13:54:52.000Z</time>
      </trkpt>
      <trkpt lat="43.75405" lon="2.31095">
        <ele>388</ele>
        <time>2025-08-26T13:54:57.000Z</time>
      </trkpt>
      <trkpt lat="43.754" lon="2.31096">
        <ele>389</ele>
        <time>2025-08-26T13:55:02.000Z</time>
      </trkpt>
      <trkpt lat="43.75394" lon="2.31098">
        <ele>390</ele>
        <time>2025-08-26T13:55:07.000Z</time>
      </trkpt>
      <trkpt lat="43.75389" lon="2.31096">
        <ele>390</ele>
        <time>2025-08-26T13:55:12.000Z</time>
      </trkpt>
      <trkpt lat="43.75384" lon="2.31096">
        <ele>389</ele>
        <time>2025-08-26T13:55:17.000Z</time>
      </trkpt>
      <trkpt lat="43.75379" lon="2.31097">
        <ele>390</ele>
        <time>2025-08-26T13:55:22.000Z</time>
      </trkpt>
      <trkpt lat="43.75374" lon="2.31098">
        <ele>391</ele>
        <time>2025-08-26T13:55:27.000Z</time>
      </trkpt>
      <trkpt lat="43.75368" lon="2.311">
        <ele>391</ele>
        <time>2025-08-26T13:55:32.000Z</time>
      </trkpt>
      <trkpt lat="43.75363" lon="2.31101">
        <ele>392</ele>
        <time>2025-08-26T13:55:37.000Z</time>
      </trkpt>
      <trkpt lat="43.75357" lon="2.311">
        <ele>392</ele>
        <time>2025-08-26T13:55:42.000Z</time>
      </trkpt>
      <trkpt lat="43.75351" lon="2.31099">
        <ele>392</ele>
        <time>2025-08-26T13:55:47.000Z</time>
      </trkpt>
      <trkpt lat="43.75347" lon="2.311">
        <ele>393</ele>
        <time>2025-08-26T13:55:52.000Z</time>
      </trkpt>
      <trkpt lat="43.75341" lon="2.31101">
        <ele>393</ele>
        <time>2025-08-26T13:55:57.000Z</time>
      </trkpt>
      <trkpt lat="43.75336" lon="2.31102">
        <ele>393</ele>
        <time>2025-08-26T13:56:02.000Z</time>
      </trkpt>
      <trkpt lat="43.75331" lon="2.31101">
        <ele>394</ele>
        <time>2025-08-26T13:56:07.000Z</time>
      </trkpt>
      <trkpt lat="43.75326" lon="2.311">
        <ele>395</ele>
        <time>2025-08-26T13:56:12.000Z</time>
      </trkpt>
      <trkpt lat="43.75322" lon="2.31101">
        <ele>396</ele>
        <time>2025-08-26T13:56:17.000Z</time>
      </trkpt>
      <trkpt lat="43.75318" lon="2.31103">
        <ele>397</ele>
        <time>2025-08-26T13:56:22.000Z</time>
      </trkpt>
      <trkpt lat="43.75313" lon="2.31104">
        <ele>399</ele>
        <time>2025-08-26T13:56:27.000Z</time>
      </trkpt>
      <trkpt lat="43.75307" lon="2.31104">
        <ele>399</ele>
        <time>2025-08-26T13:56:32.000Z</time>
      </trkpt>
      <trkpt lat="43.75302" lon="2.31104">
        <ele>397</ele>
        <time>2025-08-26T13:56:37.000Z</time>
      </trkpt>
      <trkpt lat="43.75297" lon="2.31104">
        <ele>398</ele>
        <time>2025-08-26T13:56:42.000Z</time>
      </trkpt>
      <trkpt lat="43.75293" lon="2.31102">
        <ele>400</ele>
        <time>2025-08-26T13:56:47.000Z</time>
      </trkpt>
      <trkpt lat="43.75288" lon="2.31104">
        <ele>400</ele>
        <time>2025-08-26T13:56:52.000Z</time>
      </trkpt>
      <trkpt lat="43.75282" lon="2.31103">
        <ele>400</ele>
        <time>2025-08-26T13:56:57.000Z</time>
      </trkpt>
      <trkpt lat="43.7528" lon="2.31106">
        <ele>401</ele>
        <time>2025-08-26T13:57:02.000Z</time>
      </trkpt>
      <trkpt lat="43.75274" lon="2.31108">
        <ele>402</ele>
        <time>2025-08-26T13:57:07.000Z</time>
      </trkpt>
      <trkpt lat="43.75269" lon="2.3111">
        <ele>401</ele>
        <time>2025-08-26T13:57:12.000Z</time>
      </trkpt>
      <trkpt lat="43.75265" lon="2.31113">
        <ele>402</ele>
        <time>2025-08-26T13:57:17.000Z</time>
      </trkpt>
      <trkpt lat="43.75261" lon="2.31114">
        <ele>402</ele>
        <time>2025-08-26T13:57:22.000Z</time>
      </trkpt>
      <trkpt lat="43.75255" lon="2.31117">
        <ele>402</ele>
        <time>2025-08-26T13:57:27.000Z</time>
      </trkpt>
      <trkpt lat="43.75251" lon="2.31119">
        <ele>402</ele>
        <time>2025-08-26T13:57:32.000Z</time>
      </trkpt>
      <trkpt lat="43.75246" lon="2.31122">
        <ele>404</ele>
        <time>2025-08-26T13:57:37.000Z</time>
      </trkpt>
      <trkpt lat="43.75238" lon="2.31123">
        <ele>404</ele>
        <time>2025-08-26T13:57:42.000Z</time>
      </trkpt>
      <trkpt lat="43.7523" lon="2.31126">
        <ele>404</ele>
        <time>2025-08-26T13:57:47.000Z</time>
      </trkpt>
      <trkpt lat="43.75226" lon="2.31126">
        <ele>406</ele>
        <time>2025-08-26T13:57:52.000Z</time>
      </trkpt>
      <trkpt lat="43.75222" lon="2.31129">
        <ele>408</ele>
        <time>2025-08-26T13:57:57.000Z</time>
      </trkpt>
      <trkpt lat="43.75219" lon="2.31132">
        <ele>408</ele>
        <time>2025-08-26T13:58:02.000Z</time>
      </trkpt>
      <trkpt lat="43.75214" lon="2.31134">
        <ele>407</ele>
        <time>2025-08-26T13:58:07.000Z</time>
      </trkpt>
      <trkpt lat="43.7521" lon="2.31134">
        <ele>407</ele>
        <time>2025-08-26T13:58:12.000Z</time>
      </trkpt>
      <trkpt lat="43.75206" lon="2.31135">
        <ele>407</ele>
        <time>2025-08-26T13:58:17.000Z</time>
      </trkpt>
      <trkpt lat="43.75201" lon="2.31135">
        <ele>406</ele>
        <time>2025-08-26T13:58:22.000Z</time>
      </trkpt>
      <trkpt lat="43.75196" lon="2.31135">
        <ele>408</ele>
        <time>2025-08-26T13:58:27.000Z</time>
      </trkpt>
      <trkpt lat="43.75191" lon="2.31135">
        <ele>410</ele>
        <time>2025-08-26T13:58:32.000Z</time>
      </trkpt>
      <trkpt lat="43.75186" lon="2.31133">
        <ele>409</ele>
        <time>2025-08-26T13:58:37.000Z</time>
      </trkpt>
      <trkpt lat="43.7518" lon="2.31132">
        <ele>409</ele>
        <time>2025-08-26T13:58:42.000Z</time>
      </trkpt>
      <trkpt lat="43.75175" lon="2.31133">
        <ele>410</ele>
        <time>2025-08-26T13:58:47.000Z</time>
      </trkpt>
      <trkpt lat="43.7517" lon="2.31134">
        <ele>412</ele>
        <time>2025-08-26T13:58:52.000Z</time>
      </trkpt>
      <trkpt lat="43.75166" lon="2.31138">
        <ele>412</ele>
        <time>2025-08-26T13:58:57.000Z</time>
      </trkpt>
      <trkpt lat="43.75162" lon="2.31141">
        <ele>415</ele>
        <time>2025-08-26T13:59:02.000Z</time>
      </trkpt>
      <trkpt lat="43.75157" lon="2.31146">
        <ele>415</ele>
        <time>2025-08-26T13:59:07.000Z</time>
      </trkpt>
      <trkpt lat="43.75153" lon="2.3115">
        <ele>416</ele>
        <time>2025-08-26T13:59:12.000Z</time>
      </trkpt>
      <trkpt lat="43.7515" lon="2.31154">
        <ele>419</ele>
        <time>2025-08-26T13:59:17.000Z</time>
      </trkpt>
      <trkpt lat="43.75145" lon="2.31161">
        <ele>420</ele>
        <time>2025-08-26T13:59:22.000Z</time>
      </trkpt>
      <trkpt lat="43.7514" lon="2.31166">
        <ele>421</ele>
        <time>2025-08-26T13:59:27.000Z</time>
      </trkpt>
      <trkpt lat="43.75136" lon="2.31171">
        <ele>421</ele>
        <time>2025-08-26T13:59:32.000Z</time>
      </trkpt>
      <trkpt lat="43.75132" lon="2.31175">
        <ele>423</ele>
        <time>2025-08-26T13:59:37.000Z</time>
      </trkpt>
      <trkpt lat="43.75128" lon="2.31181">
        <ele>425</ele>
        <time>2025-08-26T13:59:42.000Z</time>
      </trkpt>
      <trkpt lat="43.75124" lon="2.31186">
        <ele>426</ele>
        <time>2025-08-26T13:59:47.000Z</time>
      </trkpt>
      <trkpt lat="43.75121" lon="2.31191">
        <ele>427</ele>
        <time>2025-08-26T13:59:52.000Z</time>
      </trkpt>
      <trkpt lat="43.75118" lon="2.31196">
        <ele>430</ele>
        <time>2025-08-26T13:59:57.000Z</time>
      </trkpt>
      <trkpt lat="43.75114" lon="2.31201">
        <ele>429</ele>
        <time>2025-08-26T14:00:02.000Z</time>
      </trkpt>
      <trkpt lat="43.7511" lon="2.31206">
        <ele>429</ele>
        <time>2025-08-26T14:00:07.000Z</time>
      </trkpt>
      <trkpt lat="43.75106" lon="2.31212">
        <ele>430</ele>
        <time>2025-08-26T14:00:12.000Z</time>
      </trkpt>
      <trkpt lat="43.75103" lon="2.31216">
        <ele>430</ele>
        <time>2025-08-26T14:00:17.000Z</time>
      </trkpt>
      <trkpt lat="43.75097" lon="2.31219">
        <ele>428</ele>
        <time>2025-08-26T14:00:22.000Z</time>
      </trkpt>
      <trkpt lat="43.75096" lon="2.31219">
        <ele>427</ele>
        <time>2025-08-26T14:00:27.000Z</time>
      </trkpt>
      <trkpt lat="43.75095" lon="2.31222">
        <ele>426</ele>
        <time>2025-08-26T14:00:32.000Z</time>
      </trkpt>
      <trkpt lat="43.75091" lon="2.31227">
        <ele>429</ele>
        <time>2025-08-26T14:00:37.000Z</time>
      </trkpt>
      <trkpt lat="43.75088" lon="2.31231">
        <ele>430</ele>
        <time>2025-08-26T14:00:42.000Z</time>
      </trkpt>
      <trkpt lat="43.75085" lon="2.31234">
        <ele>431</ele>
        <time>2025-08-26T14:00:47.000Z</time>
      </trkpt>
      <trkpt lat="43.75083" lon="2.31238">
        <ele>432</ele>
        <time>2025-08-26T14:00:52.000Z</time>
      </trkpt>
      <trkpt lat="43.75081" lon="2.31243">
        <ele>435</ele>
        <time>2025-08-26T14:00:57.000Z</time>
      </trkpt>
      <trkpt lat="43.7508" lon="2.3125">
        <ele>438</ele>
        <time>2025-08-26T14:01:02.000Z</time>
      </trkpt>
      <trkpt lat="43.75078" lon="2.31254">
        <ele>437</ele>
        <time>2025-08-26T14:01:07.000Z</time>
      </trkpt>
      <trkpt lat="43.75076" lon="2.31259">
        <ele>438</ele>
        <time>2025-08-26T14:01:12.000Z</time>
      </trkpt>
      <trkpt lat="43.75074" lon="2.31265">
        <ele>439</ele>
        <time>2025-08-26T14:01:17.000Z</time>
      </trkpt>
      <trkpt lat="43.75072" lon="2.3127">
        <ele>438</ele>
        <time>2025-08-26T14:01:22.000Z</time>
      </trkpt>
      <trkpt lat="43.75071" lon="2.31276">
        <ele>437</ele>
        <time>2025-08-26T14:01:27.000Z</time>
      </trkpt>
      <trkpt lat="43.75067" lon="2.31281">
        <ele>436</ele>
        <time>2025-08-26T14:01:32.000Z</time>
      </trkpt>
      <trkpt lat="43.75066" lon="2.31287">
        <ele>436</ele>
        <time>2025-08-26T14:01:37.000Z</time>
      </trkpt>
      <trkpt lat="43.75065" lon="2.31294">
        <ele>438</ele>
        <time>2025-08-26T14:01:42.000Z</time>
      </trkpt>
      <trkpt lat="43.75065" lon="2.313">
        <ele>438</ele>
        <time>2025-08-26T14:01:47.000Z</time>
      </trkpt>
      <trkpt lat="43.75062" lon="2.31305">
        <ele>437</ele>
        <time>2025-08-26T14:01:52.000Z</time>
      </trkpt>
      <trkpt lat="43.75061" lon="2.31312">
        <ele>437</ele>
        <time>2025-08-26T14:01:57.000Z</time>
      </trkpt>
      <trkpt lat="43.75059" lon="2.31318">
        <ele>437</ele>
        <time>2025-08-26T14:02:02.000Z</time>
      </trkpt>
      <trkpt lat="43.75058" lon="2.31324">
        <ele>437</ele>
        <time>2025-08-26T14:02:07.000Z</time>
      </trkpt>
      <trkpt lat="43.75057" lon="2.31331">
        <ele>438</ele>
        <time>2025-08-26T14:02:12.000Z</time>
      </trkpt>
      <trkpt lat="43.75054" lon="2.31339">
        <ele>441</ele>
        <time>2025-08-26T14:02:17.000Z</time>
      </trkpt>
      <trkpt lat="43.75054" lon="2.31345">
        <ele>441</ele>
        <time>2025-08-26T14:02:22.000Z</time>
      </trkpt>
      <trkpt lat="43.75053" lon="2.3135">
        <ele>441</ele>
        <time>2025-08-26T14:02:27.000Z</time>
      </trkpt>
      <trkpt lat="43.75051" lon="2.31356">
        <ele>441</ele>
        <time>2025-08-26T14:02:32.000Z</time>
      </trkpt>
      <trkpt lat="43.75048" lon="2.31362">
        <ele>441</ele>
        <time>2025-08-26T14:02:37.000Z</time>
      </trkpt>
      <trkpt lat="43.75046" lon="2.31368">
        <ele>441</ele>
        <time>2025-08-26T14:02:42.000Z</time>
      </trkpt>
      <trkpt lat="43.75043" lon="2.31374">
        <ele>441</ele>
        <time>2025-08-26T14:02:47.000Z</time>
      </trkpt>
      <trkpt lat="43.75039" lon="2.31379">
        <ele>442</ele>
        <time>2025-08-26T14:02:52.000Z</time>
      </trkpt>
      <trkpt lat="43.75035" lon="2.31383">
        <ele>443</ele>
        <time>2025-08-26T14:02:57.000Z</time>
      </trkpt>
      <trkpt lat="43.75032" lon="2.31388">
        <ele>444</ele>
        <time>2025-08-26T14:03:02.000Z</time>
      </trkpt>
      <trkpt lat="43.75029" lon="2.31392">
        <ele>444</ele>
        <time>2025-08-26T14:03:07.000Z</time>
      </trkpt>
      <trkpt lat="43.75025" lon="2.31397">
        <ele>445</ele>
        <time>2025-08-26T14:03:12.000Z</time>
      </trkpt>
      <trkpt lat="43.75021" lon="2.31402">
        <ele>445</ele>
        <time>2025-08-26T14:03:17.000Z</time>
      </trkpt>
      <trkpt lat="43.75018" lon="2.31407">
        <ele>446</ele>
        <time>2025-08-26T14:03:22.000Z</time>
      </trkpt>
      <trkpt lat="43.75015" lon="2.3141">
        <ele>446</ele>
        <time>2025-08-26T14:03:27.000Z</time>
      </trkpt>
      <trkpt lat="43.75011" lon="2.31415">
        <ele>444</ele>
        <time>2025-08-26T14:03:32.000Z</time>
      </trkpt>
      <trkpt lat="43.75008" lon="2.31418">
        <ele>446</ele>
        <time>2025-08-26T14:03:37.000Z</time>
      </trkpt>
      <trkpt lat="43.75004" lon="2.31421">
        <ele>448</ele>
        <time>2025-08-26T14:03:42.000Z</time>
      </trkpt>
      <trkpt lat="43.75" lon="2.31423">
        <ele>449</ele>
        <time>2025-08-26T14:03:47.000Z</time>
      </trkpt>
      <trkpt lat="43.74994" lon="2.31425">
        <ele>448</ele>
        <time>2025-08-26T14:03:52.000Z</time>
      </trkpt>
      <trkpt lat="43.7499" lon="2.31427">
        <ele>449</ele>
        <time>2025-08-26T14:03:57.000Z</time>
      </trkpt>
      <trkpt lat="43.74987" lon="2.31429">
        <ele>449</ele>
        <time>2025-08-26T14:04:02.000Z</time>
      </trkpt>
      <trkpt lat="43.74983" lon="2.31431">
        <ele>448</ele>
        <time>2025-08-26T14:04:07.000Z</time>
      </trkpt>
      <trkpt lat="43.74979" lon="2.31433">
        <ele>448</ele>
        <time>2025-08-26T14:04:12.000Z</time>
      </trkpt>
      <trkpt lat="43.74976" lon="2.31434">
        <ele>447</ele>
        <time>2025-08-26T14:04:17.000Z</time>
      </trkpt>
      <trkpt lat="43.74971" lon="2.31435">
        <ele>446</ele>
        <time>2025-08-26T14:04:22.000Z</time>
      </trkpt>
      <trkpt lat="43.74967" lon="2.31438">
        <ele>448</ele>
        <time>2025-08-26T14:04:27.000Z</time>
      </trkpt>
      <trkpt lat="43.74963" lon="2.3144">
        <ele>447</ele>
        <time>2025-08-26T14:04:32.000Z</time>
      </trkpt>
      <trkpt lat="43.74957" lon="2.31442">
        <ele>447</ele>
        <time>2025-08-26T14:04:37.000Z</time>
      </trkpt>
      <trkpt lat="43.74952" lon="2.31443">
        <ele>446</ele>
        <time>2025-08-26T14:04:42.000Z</time>
      </trkpt>
      <trkpt lat="43.74946" lon="2.31444">
        <ele>444</ele>
        <time>2025-08-26T14:04:47.000Z</time>
      </trkpt>
      <trkpt lat="43.74942" lon="2.31447">
        <ele>444</ele>
        <time>2025-08-26T14:04:52.000Z</time>
      </trkpt>
      <trkpt lat="43.74938" lon="2.3145">
        <ele>444</ele>
        <time>2025-08-26T14:04:57.000Z</time>
      </trkpt>
      <trkpt lat="43.74934" lon="2.31453">
        <ele>444</ele>
        <time>2025-08-26T14:05:02.000Z</time>
      </trkpt>
      <trkpt lat="43.74931" lon="2.31457">
        <ele>446</ele>
        <time>2025-08-26T14:05:07.000Z</time>
      </trkpt>
      <trkpt lat="43.74926" lon="2.3146">
        <ele>445</ele>
        <time>2025-08-26T14:05:12.000Z</time>
      </trkpt>
      <trkpt lat="43.74922" lon="2.31461">
        <ele>445</ele>
        <time>2025-08-26T14:05:17.000Z</time>
      </trkpt>
      <trkpt lat="43.74918" lon="2.31464">
        <ele>445</ele>
        <time>2025-08-26T14:05:22.000Z</time>
      </trkpt>
      <trkpt lat="43.74914" lon="2.31466">
        <ele>444</ele>
        <time>2025-08-26T14:05:27.000Z</time>
      </trkpt>
      <trkpt lat="43.74909" lon="2.3147">
        <ele>445</ele>
        <time>2025-08-26T14:05:32.000Z</time>
      </trkpt>
      <trkpt lat="43.74904" lon="2.31473">
        <ele>444</ele>
        <time>2025-08-26T14:05:37.000Z</time>
      </trkpt>
      <trkpt lat="43.74901" lon="2.31477">
        <ele>444</ele>
        <time>2025-08-26T14:05:42.000Z</time>
      </trkpt>
      <trkpt lat="43.74897" lon="2.31481">
        <ele>444</ele>
        <time>2025-08-26T14:05:47.000Z</time>
      </trkpt>
      <trkpt lat="43.74893" lon="2.31485">
        <ele>444</ele>
        <time>2025-08-26T14:05:52.000Z</time>
      </trkpt>
      <trkpt lat="43.74888" lon="2.31488">
        <ele>446</ele>
        <time>2025-08-26T14:05:57.000Z</time>
      </trkpt>
      <trkpt lat="43.74885" lon="2.31491">
        <ele>447</ele>
        <time>2025-08-26T14:06:02.000Z</time>
      </trkpt>
      <trkpt lat="43.7488" lon="2.31496">
        <ele>447</ele>
        <time>2025-08-26T14:06:07.000Z</time>
      </trkpt>
      <trkpt lat="43.74876" lon="2.31499">
        <ele>450</ele>
        <time>2025-08-26T14:06:12.000Z</time>
      </trkpt>
      <trkpt lat="43.74871" lon="2.31503">
        <ele>451</ele>
        <time>2025-08-26T14:06:17.000Z</time>
      </trkpt>
      <trkpt lat="43.74867" lon="2.31507">
        <ele>451</ele>
        <time>2025-08-26T14:06:22.000Z</time>
      </trkpt>
      <trkpt lat="43.74863" lon="2.31509">
        <ele>453</ele>
        <time>2025-08-26T14:06:27.000Z</time>
      </trkpt>
      <trkpt lat="43.74859" lon="2.31513">
        <ele>454</ele>
        <time>2025-08-26T14:06:32.000Z</time>
      </trkpt>
      <trkpt lat="43.74855" lon="2.31517">
        <ele>454</ele>
        <time>2025-08-26T14:06:37.000Z</time>
      </trkpt>
      <trkpt lat="43.74849" lon="2.31522">
        <ele>457</ele>
        <time>2025-08-26T14:06:42.000Z</time>
      </trkpt>
      <trkpt lat="43.74843" lon="2.31524">
        <ele>456</ele>
        <time>2025-08-26T14:06:47.000Z</time>
      </trkpt>
      <trkpt lat="43.74839" lon="2.31528">
        <ele>457</ele>
        <time>2025-08-26T14:06:52.000Z</time>
      </trkpt>
      <trkpt lat="43.74834" lon="2.31532">
        <ele>457</ele>
        <time>2025-08-26T14:06:57.000Z</time>
      </trkpt>
      <trkpt lat="43.7483" lon="2.31535">
        <ele>459</ele>
        <time>2025-08-26T14:07:02.000Z</time>
      </trkpt>
      <trkpt lat="43.74826" lon="2.31538">
        <ele>460</ele>
        <time>2025-08-26T14:07:07.000Z</time>
      </trkpt>
      <trkpt lat="43.74821" lon="2.31542">
        <ele>459</ele>
        <time>2025-08-26T14:07:12.000Z</time>
      </trkpt>
      <trkpt lat="43.74816" lon="2.31545">
        <ele>461</ele>
        <time>2025-08-26T14:07:17.000Z</time>
      </trkpt>
      <trkpt lat="43.74811" lon="2.31546">
        <ele>462</ele>
        <time>2025-08-26T14:07:22.000Z</time>
      </trkpt>
      <trkpt lat="43.74807" lon="2.31549">
        <ele>463</ele>
        <time>2025-08-26T14:07:27.000Z</time>
      </trkpt>
      <trkpt lat="43.74801" lon="2.3155">
        <ele>461</ele>
        <time>2025-08-26T14:07:32.000Z</time>
      </trkpt>
      <trkpt lat="43.74797" lon="2.31552">
        <ele>462</ele>
        <time>2025-08-26T14:07:37.000Z</time>
      </trkpt>
      <trkpt lat="43.74792" lon="2.31553">
        <ele>463</ele>
        <time>2025-08-26T14:07:42.000Z</time>
      </trkpt>
      <trkpt lat="43.74787" lon="2.31554">
        <ele>463</ele>
        <time>2025-08-26T14:07:47.000Z</time>
      </trkpt>
      <trkpt lat="43.74782" lon="2.31555">
        <ele>464</ele>
        <time>2025-08-26T14:07:52.000Z</time>
      </trkpt>
      <trkpt lat="43.74777" lon="2.31558">
        <ele>464</ele>
        <time>2025-08-26T14:07:57.000Z</time>
      </trkpt>
      <trkpt lat="43.74773" lon="2.3156">
        <ele>463</ele>
        <time>2025-08-26T14:08:02.000Z</time>
      </trkpt>
      <trkpt lat="43.74767" lon="2.31561">
        <ele>464</ele>
        <time>2025-08-26T14:08:07.000Z</time>
      </trkpt>
      <trkpt lat="43.74762" lon="2.31563">
        <ele>464</ele>
        <time>2025-08-26T14:08:12.000Z</time>
      </trkpt>
      <trkpt lat="43.74758" lon="2.31564">
        <ele>462</ele>
        <time>2025-08-26T14:08:17.000Z</time>
      </trkpt>
      <trkpt lat="43.74753" lon="2.31566">
        <ele>463</ele>
        <time>2025-08-26T14:08:22.000Z</time>
      </trkpt>
      <trkpt lat="43.74748" lon="2.31568">
        <ele>463</ele>
        <time>2025-08-26T14:08:27.000Z</time>
      </trkpt>
      <trkpt lat="43.74744" lon="2.31571">
        <ele>465</ele>
        <time>2025-08-26T14:08:32.000Z</time>
      </trkpt>
      <trkpt lat="43.7474" lon="2.31573">
        <ele>467</ele>
        <time>2025-08-26T14:08:37.000Z</time>
      </trkpt>
      <trkpt lat="43.74735" lon="2.31576">
        <ele>469</ele>
        <time>2025-08-26T14:08:42.000Z</time>
      </trkpt>
      <trkpt lat="43.74731" lon="2.3158">
        <ele>470</ele>
        <time>2025-08-26T14:08:47.000Z</time>
      </trkpt>
      <trkpt lat="43.7473" lon="2.3158">
        <ele>471</ele>
        <time>2025-08-26T14:08:52.000Z</time>
      </trkpt>
      <trkpt lat="43.7473" lon="2.3158">
        <ele>471</ele>
        <time>2025-08-26T14:08:57.000Z</time>
      </trkpt>
      <trkpt lat="43.7473" lon="2.3158">
        <ele>472</ele>
        <time>2025-08-26T14:09:02.000Z</time>
      </trkpt>
      <trkpt lat="43.7473" lon="2.3158">
        <ele>472</ele>
        <time>2025-08-26T14:09:07.000Z</time>
      </trkpt>
      <trkpt lat="43.7473" lon="2.3158">
        <ele>472</ele>
        <time>2025-08-26T14:09:12.000Z</time>
      </trkpt>
      <trkpt lat="43.7473" lon="2.3158">
        <ele>472</ele>
        <time>2025-08-26T14:09:17.000Z</time>
      </trkpt>
      <trkpt lat="43.7473" lon="2.3158">
        <ele>472</ele>
        <time>2025-08-26T14:09:22.000Z</time>
      </trkpt>
      <trkpt lat="43.7473" lon="2.3158">
        <ele>472</ele>
        <time>2025-08-26T14:09:27.000Z</time>
      </trkpt>
      <trkpt lat="43.74729" lon="2.31581">
        <ele>474</ele>
        <time>2025-08-26T14:09:32.000Z</time>
      </trkpt>
      <trkpt lat="43.74728" lon="2.31582">
        <ele>475</ele>
        <time>2025-08-26T14:09:37.000Z</time>
      </trkpt>
      <trkpt lat="43.74727" lon="2.31584">
        <ele>475</ele>
        <time>2025-08-26T14:09:42.000Z</time>
      </trkpt>
      <trkpt lat="43.74724" lon="2.31585">
        <ele>475</ele>
        <time>2025-08-26T14:09:47.000Z</time>
      </trkpt>
      <trkpt lat="43.74721" lon="2.31588">
        <ele>475</ele>
        <time>2025-08-26T14:09:52.000Z</time>
      </trkpt>
      <trkpt lat="43.7472" lon="2.31589">
        <ele>477</ele>
        <time>2025-08-26T14:09:57.000Z</time>
      </trkpt>
      <trkpt lat="43.7472" lon="2.31589">
        <ele>477</ele>
        <time>2025-08-26T14:10:02.000Z</time>
      </trkpt>
      <trkpt lat="43.7472" lon="2.31589">
        <ele>477</ele>
        <time>2025-08-26T14:10:07.000Z</time>
      </trkpt>
      <trkpt lat="43.74717" lon="2.31592">
        <ele>478</ele>
        <time>2025-08-26T14:10:12.000Z</time>
      </trkpt>
      <trkpt lat="43.74715" lon="2.31594">
        <ele>479</ele>
        <time>2025-08-26T14:10:17.000Z</time>
      </trkpt>
      <trkpt lat="43.74713" lon="2.31597">
        <ele>479</ele>
        <time>2025-08-26T14:10:22.000Z</time>
      </trkpt>
      <trkpt lat="43.74708" lon="2.31598">
        <ele>479</ele>
        <time>2025-08-26T14:10:27.000Z</time>
      </trkpt>
      <trkpt lat="43.74703" lon="2.316">
        <ele>480</ele>
        <time>2025-08-26T14:10:32.000Z</time>
      </trkpt>
      <trkpt lat="43.74698" lon="2.31602">
        <ele>481</ele>
        <time>2025-08-26T14:10:37.000Z</time>
      </trkpt>
      <trkpt lat="43.74693" lon="2.31603">
        <ele>483</ele>
        <time>2025-08-26T14:10:42.000Z</time>
      </trkpt>
      <trkpt lat="43.74689" lon="2.31606">
        <ele>485</ele>
        <time>2025-08-26T14:10:47.000Z</time>
      </trkpt>
      <trkpt lat="43.74687" lon="2.31607">
        <ele>486</ele>
        <time>2025-08-26T14:10:52.000Z</time>
      </trkpt>
      <trkpt lat="43.74686" lon="2.31609">
        <ele>485</ele>
        <time>2025-08-26T14:10:57.000Z</time>
      </trkpt>
      <trkpt lat="43.74682" lon="2.3161">
        <ele>484</ele>
        <time>2025-08-26T14:11:02.000Z</time>
      </trkpt>
      <trkpt lat="43.74677" lon="2.31612">
        <ele>484</ele>
        <time>2025-08-26T14:11:07.000Z</time>
      </trkpt>
      <trkpt lat="43.74675" lon="2.31612">
        <ele>485</ele>
        <time>2025-08-26T14:11:12.000Z</time>
      </trkpt>
      <trkpt lat="43.74674" lon="2.31612">
        <ele>485</ele>
        <time>2025-08-26T14:11:17.000Z</time>
      </trkpt>
      <trkpt lat="43.74673" lon="2.31612">
        <ele>484</ele>
        <time>2025-08-26T14:11:22.000Z</time>
      </trkpt>
      <trkpt lat="43.7467" lon="2.31614">
        <ele>484</ele>
        <time>2025-08-26T14:11:27.000Z</time>
      </trkpt>
      <trkpt lat="43.74665" lon="2.31616">
        <ele>484</ele>
        <time>2025-08-26T14:11:32.000Z</time>
      </trkpt>
      <trkpt lat="43.74662" lon="2.31619">
        <ele>484</ele>
        <time>2025-08-26T14:11:37.000Z</time>
      </trkpt>
      <trkpt lat="43.74659" lon="2.31621">
        <ele>485</ele>
        <time>2025-08-26T14:11:42.000Z</time>
      </trkpt>
      <trkpt lat="43.74657" lon="2.31623">
        <ele>486</ele>
        <time>2025-08-26T14:11:47.000Z</time>
      </trkpt>
      <trkpt lat="43.74652" lon="2.31625">
        <ele>486</ele>
        <time>2025-08-26T14:11:52.000Z</time>
      </trkpt>
      <trkpt lat="43.74649" lon="2.31627">
        <ele>486</ele>
        <time>2025-08-26T14:11:57.000Z</time>
      </trkpt>
      <trkpt lat="43.74645" lon="2.31628">
        <ele>487</ele>
        <time>2025-08-26T14:12:02.000Z</time>
      </trkpt>
      <trkpt lat="43.7464" lon="2.31632">
        <ele>487</ele>
        <time>2025-08-26T14:12:07.000Z</time>
      </trkpt>
      <trkpt lat="43.74636" lon="2.31636">
        <ele>488</ele>
        <time>2025-08-26T14:12:12.000Z</time>
      </trkpt>
      <trkpt lat="43.74634" lon="2.31639">
        <ele>489</ele>
        <time>2025-08-26T14:12:17.000Z</time>
      </trkpt>
      <trkpt lat="43.7463" lon="2.31644">
        <ele>490</ele>
        <time>2025-08-26T14:12:22.000Z</time>
      </trkpt>
      <trkpt lat="43.74626" lon="2.31645">
        <ele>489</ele>
        <time>2025-08-26T14:12:27.000Z</time>
      </trkpt>
      <trkpt lat="43.74621" lon="2.31647">
        <ele>490</ele>
        <time>2025-08-26T14:12:32.000Z</time>
      </trkpt>
      <trkpt lat="43.74618" lon="2.31651">
        <ele>490</ele>
        <time>2025-08-26T14:12:37.000Z</time>
      </trkpt>
      <trkpt lat="43.74613" lon="2.31655">
        <ele>491</ele>
        <time>2025-08-26T14:12:42.000Z</time>
      </trkpt>
      <trkpt lat="43.74611" lon="2.31656">
        <ele>490</ele>
        <time>2025-08-26T14:12:47.000Z</time>
      </trkpt>
      <trkpt lat="43.74609" lon="2.31658">
        <ele>489</ele>
        <time>2025-08-26T14:12:52.000Z</time>
      </trkpt>
      <trkpt lat="43.74608" lon="2.31658">
        <ele>489</ele>
        <time>2025-08-26T14:12:57.000Z</time>
      </trkpt>
      <trkpt lat="43.74607" lon="2.31659">
        <ele>489</ele>
        <time>2025-08-26T14:13:02.000Z</time>
      </trkpt>
      <trkpt lat="43.74607" lon="2.31662">
        <ele>488</ele>
        <time>2025-08-26T14:13:07.000Z</time>
      </trkpt>
      <trkpt lat="43.74607" lon="2.31664">
        <ele>488</ele>
        <time>2025-08-26T14:13:12.000Z</time>
      </trkpt>
      <trkpt lat="43.74607" lon="2.31664">
        <ele>485</ele>
        <time>2025-08-26T14:13:17.000Z</time>
      </trkpt>
      <trkpt lat="43.74607" lon="2.31665">
        <ele>484</ele>
        <time>2025-08-26T14:13:22.000Z</time>
      </trkpt>
      <trkpt lat="43.74605" lon="2.31665">
        <ele>485</ele>
        <time>2025-08-26T14:13:27.000Z</time>
      </trkpt>
      <trkpt lat="43.74604" lon="2.31667">
        <ele>484</ele>
        <time>2025-08-26T14:13:32.000Z</time>
      </trkpt>
      <trkpt lat="43.74604" lon="2.31669">
        <ele>485</ele>
        <time>2025-08-26T14:13:37.000Z</time>
      </trkpt>
      <trkpt lat="43.74604" lon="2.31669">
        <ele>485</ele>
        <time>2025-08-26T14:13:42.000Z</time>
      </trkpt>
      <trkpt lat="43.74605" lon="2.31669">
        <ele>484</ele>
        <time>2025-08-26T14:13:47.000Z</time>
      </trkpt>
      <trkpt lat="43.74606" lon="2.31668">
        <ele>484</ele>
        <time>2025-08-26T14:13:52.000Z</time>
      </trkpt>
      <trkpt lat="43.74606" lon="2.31668">
        <ele>483</ele>
        <time>2025-08-26T14:13:57.000Z</time>
      </trkpt>
      <trkpt lat="43.74606" lon="2.31668">
        <ele>482</ele>
        <time>2025-08-26T14:14:02.000Z</time>
      </trkpt>
      <trkpt lat="43.74607" lon="2.31668">
        <ele>482</ele>
        <time>2025-08-26T14:14:07.000Z</time>
      </trkpt>
      <trkpt lat="43.74606" lon="2.31669">
        <ele>481</ele>
        <time>2025-08-26T14:14:12.000Z</time>
      </trkpt>
      <trkpt lat="43.74606" lon="2.31669">
        <ele>481</ele>
        <time>2025-08-26T14:14:17.000Z</time>
      </trkpt>
      <trkpt lat="43.74606" lon="2.31669">
        <ele>480</ele>
        <time>2025-08-26T14:14:22.000Z</time>
      </trkpt>
      <trkpt lat="43.74606" lon="2.31671">
        <ele>479</ele>
        <time>2025-08-26T14:14:27.000Z</time>
      </trkpt>
      <trkpt lat="43.74605" lon="2.31673">
        <ele>481</ele>
        <time>2025-08-26T14:14:32.000Z</time>
      </trkpt>
      <trkpt lat="43.74605" lon="2.31673">
        <ele>481</ele>
        <time>2025-08-26T14:14:37.000Z</time>
      </trkpt>
      <trkpt lat="43.74605" lon="2.31673">
        <ele>481</ele>
        <time>2025-08-26T14:14:42.000Z</time>
      </trkpt>
      <trkpt lat="43.74605" lon="2.31673">
        <ele>481</ele>
        <time>2025-08-26T14:14:47.000Z</time>
      </trkpt>
      <trkpt lat="43.74605" lon="2.31673">
        <ele>481</ele>
        <time>2025-08-26T14:14:52.000Z</time>
      </trkpt>
      <trkpt lat="43.74605" lon="2.31673">
        <ele>481</ele>
        <time>2025-08-26T14:14:57.000Z</time>
      </trkpt>
      <trkpt lat="43.74603" lon="2.31675">
        <ele>479</ele>
        <time>2025-08-26T14:15:02.000Z</time>
      </trkpt>
      <trkpt lat="43.74602" lon="2.31679">
        <ele>480</ele>
        <time>2025-08-26T14:15:07.000Z</time>
      </trkpt>
      <trkpt lat="43.74604" lon="2.31675">
        <ele>478</ele>
        <time>2025-08-26T14:15:12.000Z</time>
      </trkpt>
      <trkpt lat="43.74608" lon="2.31667">
        <ele>476</ele>
        <time>2025-08-26T14:15:17.000Z</time>
      </trkpt>
      <trkpt lat="43.74614" lon="2.31664">
        <ele>475</ele>
        <time>2025-08-26T14:15:22.000Z</time>
      </trkpt>
      <trkpt lat="43.74616" lon="2.31661">
        <ele>474</ele>
        <time>2025-08-26T14:15:27.000Z</time>
      </trkpt>
      <trkpt lat="43.74621" lon="2.31657">
        <ele>473</ele>
        <time>2025-08-26T14:15:32.000Z</time>
      </trkpt>
      <trkpt lat="43.74626" lon="2.31653">
        <ele>473</ele>
        <time>2025-08-26T14:15:37.000Z</time>
      </trkpt>
      <trkpt lat="43.74632" lon="2.31649">
        <ele>473</ele>
        <time>2025-08-26T14:15:42.000Z</time>
      </trkpt>
      <trkpt lat="43.74634" lon="2.31645">
        <ele>473</ele>
        <time>2025-08-26T14:15:47.000Z</time>
      </trkpt>
      <trkpt lat="43.7464" lon="2.31641">
        <ele>472</ele>
        <time>2025-08-26T14:15:52.000Z</time>
      </trkpt>
      <trkpt lat="43.74645" lon="2.31637">
        <ele>471</ele>
        <time>2025-08-26T14:15:57.000Z</time>
      </trkpt>
      <trkpt lat="43.74651" lon="2.31634">
        <ele>470</ele>
        <time>2025-08-26T14:16:02.000Z</time>
      </trkpt>
      <trkpt lat="43.74656" lon="2.31631">
        <ele>470</ele>
        <time>2025-08-26T14:16:07.000Z</time>
      </trkpt>
      <trkpt lat="43.74661" lon="2.31625">
        <ele>469</ele>
        <time>2025-08-26T14:16:12.000Z</time>
      </trkpt>
      <trkpt lat="43.74665" lon="2.31623">
        <ele>470</ele>
        <time>2025-08-26T14:16:17.000Z</time>
      </trkpt>
      <trkpt lat="43.74669" lon="2.31619">
        <ele>469</ele>
        <time>2025-08-26T14:16:22.000Z</time>
      </trkpt>
      <trkpt lat="43.74673" lon="2.31615">
        <ele>468</ele>
        <time>2025-08-26T14:16:27.000Z</time>
      </trkpt>
      <trkpt lat="43.74678" lon="2.31611">
        <ele>468</ele>
        <time>2025-08-26T14:16:32.000Z</time>
      </trkpt>
      <trkpt lat="43.74683" lon="2.31608">
        <ele>469</ele>
        <time>2025-08-26T14:16:37.000Z</time>
      </trkpt>
      <trkpt lat="43.74687" lon="2.31605">
        <ele>469</ele>
        <time>2025-08-26T14:16:42.000Z</time>
      </trkpt>
      <trkpt lat="43.74692" lon="2.31601">
        <ele>469</ele>
        <time>2025-08-26T14:16:47.000Z</time>
      </trkpt>
      <trkpt lat="43.74698" lon="2.31596">
        <ele>469</ele>
        <time>2025-08-26T14:16:52.000Z</time>
      </trkpt>
      <trkpt lat="43.74703" lon="2.31591">
        <ele>470</ele>
        <time>2025-08-26T14:16:57.000Z</time>
      </trkpt>
      <trkpt lat="43.74708" lon="2.31586">
        <ele>469</ele>
        <time>2025-08-26T14:17:02.000Z</time>
      </trkpt>
      <trkpt lat="43.74714" lon="2.31582">
        <ele>469</ele>
        <time>2025-08-26T14:17:07.000Z</time>
      </trkpt>
      <trkpt lat="43.74718" lon="2.31578">
        <ele>468</ele>
        <time>2025-08-26T14:17:12.000Z</time>
      </trkpt>
      <trkpt lat="43.74722" lon="2.31573">
        <ele>468</ele>
        <time>2025-08-26T14:17:17.000Z</time>
      </trkpt>
      <trkpt lat="43.74726" lon="2.3157">
        <ele>468</ele>
        <time>2025-08-26T14:17:22.000Z</time>
      </trkpt>
      <trkpt lat="43.74731" lon="2.31565">
        <ele>467</ele>
        <time>2025-08-26T14:17:27.000Z</time>
      </trkpt>
      <trkpt lat="43.74737" lon="2.31562">
        <ele>467</ele>
        <time>2025-08-26T14:17:32.000Z</time>
      </trkpt>
      <trkpt lat="43.74742" lon="2.31558">
        <ele>467</ele>
        <time>2025-08-26T14:17:37.000Z</time>
      </trkpt>
      <trkpt lat="43.74747" lon="2.31554">
        <ele>466</ele>
        <time>2025-08-26T14:17:42.000Z</time>
      </trkpt>
      <trkpt lat="43.74752" lon="2.31551">
        <ele>467</ele>
        <time>2025-08-26T14:17:47.000Z</time>
      </trkpt>
      <trkpt lat="43.74757" lon="2.31547">
        <ele>466</ele>
        <time>2025-08-26T14:17:52.000Z</time>
      </trkpt>
      <trkpt lat="43.74761" lon="2.31543">
        <ele>466</ele>
        <time>2025-08-26T14:17:57.000Z</time>
      </trkpt>
      <trkpt lat="43.74765" lon="2.31539">
        <ele>465</ele>
        <time>2025-08-26T14:18:02.000Z</time>
      </trkpt>
      <trkpt lat="43.74769" lon="2.31534">
        <ele>466</ele>
        <time>2025-08-26T14:18:07.000Z</time>
      </trkpt>
      <trkpt lat="43.74773" lon="2.3153">
        <ele>467</ele>
        <time>2025-08-26T14:18:12.000Z</time>
      </trkpt>
      <trkpt lat="43.74777" lon="2.31526">
        <ele>465</ele>
        <time>2025-08-26T14:18:17.000Z</time>
      </trkpt>
      <trkpt lat="43.74781" lon="2.31521">
        <ele>466</ele>
        <time>2025-08-26T14:18:22.000Z</time>
      </trkpt>
      <trkpt lat="43.74785" lon="2.31517">
        <ele>465</ele>
        <time>2025-08-26T14:18:27.000Z</time>
      </trkpt>
      <trkpt lat="43.7479" lon="2.31514">
        <ele>466</ele>
        <time>2025-08-26T14:18:32.000Z</time>
      </trkpt>
      <trkpt lat="43.74795" lon="2.31511">
        <ele>465</ele>
        <time>2025-08-26T14:18:37.000Z</time>
      </trkpt>
      <trkpt lat="43.74799" lon="2.31507">
        <ele>466</ele>
        <time>2025-08-26T14:18:42.000Z</time>
      </trkpt>
      <trkpt lat="43.74802" lon="2.31502">
        <ele>466</ele>
        <time>2025-08-26T14:18:47.000Z</time>
      </trkpt>
      <trkpt lat="43.74806" lon="2.31499">
        <ele>466</ele>
        <time>2025-08-26T14:18:52.000Z</time>
      </trkpt>
      <trkpt lat="43.7481" lon="2.31494">
        <ele>466</ele>
        <time>2025-08-26T14:18:57.000Z</time>
      </trkpt>
      <trkpt lat="43.74813" lon="2.31489">
        <ele>465</ele>
        <time>2025-08-26T14:19:02.000Z</time>
      </trkpt>
      <trkpt lat="43.74816" lon="2.31483">
        <ele>467</ele>
        <time>2025-08-26T14:19:07.000Z</time>
      </trkpt>
      <trkpt lat="43.74819" lon="2.31478">
        <ele>467</ele>
        <time>2025-08-26T14:19:12.000Z</time>
      </trkpt>
      <trkpt lat="43.74821" lon="2.31473">
        <ele>467</ele>
        <time>2025-08-26T14:19:17.000Z</time>
      </trkpt>
      <trkpt lat="43.74824" lon="2.31469">
        <ele>467</ele>
        <time>2025-08-26T14:19:22.000Z</time>
      </trkpt>
      <trkpt lat="43.74828" lon="2.31464">
        <ele>467</ele>
        <time>2025-08-26T14:19:27.000Z</time>
      </trkpt>
      <trkpt lat="43.74832" lon="2.31461">
        <ele>467</ele>
        <time>2025-08-26T14:19:32.000Z</time>
      </trkpt>
      <trkpt lat="43.74835" lon="2.31455">
        <ele>467</ele>
        <time>2025-08-26T14:19:37.000Z</time>
      </trkpt>
      <trkpt lat="43.74839" lon="2.31449">
        <ele>468</ele>
        <time>2025-08-26T14:19:42.000Z</time>
      </trkpt>
      <trkpt lat="43.74842" lon="2.31446">
        <ele>470</ele>
        <time>2025-08-26T14:19:47.000Z</time>
      </trkpt>
      <trkpt lat="43.74846" lon="2.3144">
        <ele>469</ele>
        <time>2025-08-26T14:19:52.000Z</time>
      </trkpt>
      <trkpt lat="43.7485" lon="2.31434">
        <ele>469</ele>
        <time>2025-08-26T14:19:57.000Z</time>
      </trkpt>
      <trkpt lat="43.74855" lon="2.31428">
        <ele>469</ele>
        <time>2025-08-26T14:20:02.000Z</time>
      </trkpt>
      <trkpt lat="43.74859" lon="2.31423">
        <ele>469</ele>
        <time>2025-08-26T14:20:07.000Z</time>
      </trkpt>
      <trkpt lat="43.74863" lon="2.3142">
        <ele>469</ele>
        <time>2025-08-26T14:20:12.000Z</time>
      </trkpt>
      <trkpt lat="43.74867" lon="2.31416">
        <ele>467</ele>
        <time>2025-08-26T14:20:17.000Z</time>
      </trkpt>
      <trkpt lat="43.7487" lon="2.31412">
        <ele>466</ele>
        <time>2025-08-26T14:20:22.000Z</time>
      </trkpt>
      <trkpt lat="43.74874" lon="2.31406">
        <ele>467</ele>
        <time>2025-08-26T14:20:27.000Z</time>
      </trkpt>
      <trkpt lat="43.74877" lon="2.31402">
        <ele>468</ele>
        <time>2025-08-26T14:20:32.000Z</time>
      </trkpt>
      <trkpt lat="43.74883" lon="2.31397">
        <ele>468</ele>
        <time>2025-08-26T14:20:37.000Z</time>
      </trkpt>
      <trkpt lat="43.74886" lon="2.31393">
        <ele>469</ele>
        <time>2025-08-26T14:20:42.000Z</time>
      </trkpt>
      <trkpt lat="43.7489" lon="2.31388">
        <ele>471</ele>
        <time>2025-08-26T14:20:47.000Z</time>
      </trkpt>
      <trkpt lat="43.74896" lon="2.31383">
        <ele>471</ele>
        <time>2025-08-26T14:20:52.000Z</time>
      </trkpt>
      <trkpt lat="43.74901" lon="2.31377">
        <ele>471</ele>
        <time>2025-08-26T14:20:57.000Z</time>
      </trkpt>
      <trkpt lat="43.74905" lon="2.31372">
        <ele>471</ele>
        <time>2025-08-26T14:21:02.000Z</time>
      </trkpt>
      <trkpt lat="43.74909" lon="2.31366">
        <ele>472</ele>
        <time>2025-08-26T14:21:07.000Z</time>
      </trkpt>
      <trkpt lat="43.74912" lon="2.3136">
        <ele>472</ele>
        <time>2025-08-26T14:21:12.000Z</time>
      </trkpt>
      <trkpt lat="43.74916" lon="2.31356">
        <ele>472</ele>
        <time>2025-08-26T14:21:17.000Z</time>
      </trkpt>
      <trkpt lat="43.74919" lon="2.31352">
        <ele>471</ele>
        <time>2025-08-26T14:21:22.000Z</time>
      </trkpt>
      <trkpt lat="43.74922" lon="2.31346">
        <ele>471</ele>
        <time>2025-08-26T14:21:27.000Z</time>
      </trkpt>
      <trkpt lat="43.74925" lon="2.31344">
        <ele>472</ele>
        <time>2025-08-26T14:21:32.000Z</time>
      </trkpt>
      <trkpt lat="43.74929" lon="2.31338">
        <ele>473</ele>
        <time>2025-08-26T14:21:37.000Z</time>
      </trkpt>
      <trkpt lat="43.74931" lon="2.31331">
        <ele>472</ele>
        <time>2025-08-26T14:21:42.000Z</time>
      </trkpt>
      <trkpt lat="43.74935" lon="2.31324">
        <ele>472</ele>
        <time>2025-08-26T14:21:47.000Z</time>
      </trkpt>
      <trkpt lat="43.74941" lon="2.31318">
        <ele>473</ele>
        <time>2025-08-26T14:21:52.000Z</time>
      </trkpt>
      <trkpt lat="43.74944" lon="2.31312">
        <ele>475</ele>
        <time>2025-08-26T14:21:57.000Z</time>
      </trkpt>
      <trkpt lat="43.74947" lon="2.31304">
        <ele>477</ele>
        <time>2025-08-26T14:22:02.000Z</time>
      </trkpt>
      <trkpt lat="43.7495" lon="2.31297">
        <ele>478</ele>
        <time>2025-08-26T14:22:07.000Z</time>
      </trkpt>
      <trkpt lat="43.74952" lon="2.3129">
        <ele>478</ele>
        <time>2025-08-26T14:22:12.000Z</time>
      </trkpt>
      <trkpt lat="43.74954" lon="2.31281">
        <ele>478</ele>
        <time>2025-08-26T14:22:17.000Z</time>
      </trkpt>
      <trkpt lat="43.74958" lon="2.31273">
        <ele>478</ele>
        <time>2025-08-26T14:22:22.000Z</time>
      </trkpt>
      <trkpt lat="43.7496" lon="2.31267">
        <ele>478</ele>
        <time>2025-08-26T14:22:27.000Z</time>
      </trkpt>
      <trkpt lat="43.74962" lon="2.3126">
        <ele>477</ele>
        <time>2025-08-26T14:22:32.000Z</time>
      </trkpt>
      <trkpt lat="43.74964" lon="2.31254">
        <ele>477</ele>
        <time>2025-08-26T14:22:37.000Z</time>
      </trkpt>
      <trkpt lat="43.74966" lon="2.31247">
        <ele>477</ele>
        <time>2025-08-26T14:22:42.000Z</time>
      </trkpt>
      <trkpt lat="43.7497" lon="2.3124">
        <ele>477</ele>
        <time>2025-08-26T14:22:47.000Z</time>
      </trkpt>
      <trkpt lat="43.74973" lon="2.31235">
        <ele>477</ele>
        <time>2025-08-26T14:22:52.000Z</time>
      </trkpt>
      <trkpt lat="43.74976" lon="2.31229">
        <ele>476</ele>
        <time>2025-08-26T14:22:57.000Z</time>
      </trkpt>
      <trkpt lat="43.74979" lon="2.31222">
        <ele>475</ele>
        <time>2025-08-26T14:23:02.000Z</time>
      </trkpt>
      <trkpt lat="43.74981" lon="2.31216">
        <ele>475</ele>
        <time>2025-08-26T14:23:07.000Z</time>
      </trkpt>
      <trkpt lat="43.74983" lon="2.31208">
        <ele>475</ele>
        <time>2025-08-26T14:23:12.000Z</time>
      </trkpt>
      <trkpt lat="43.74985" lon="2.31199">
        <ele>476</ele>
        <time>2025-08-26T14:23:17.000Z</time>
      </trkpt>
      <trkpt lat="43.74987" lon="2.31191">
        <ele>477</ele>
        <time>2025-08-26T14:23:22.000Z</time>
      </trkpt>
      <trkpt lat="43.74991" lon="2.31184">
        <ele>477</ele>
        <time>2025-08-26T14:23:27.000Z</time>
      </trkpt>
      <trkpt lat="43.74994" lon="2.31177">
        <ele>478</ele>
        <time>2025-08-26T14:23:32.000Z</time>
      </trkpt>
      <trkpt lat="43.74998" lon="2.31169">
        <ele>478</ele>
        <time>2025-08-26T14:23:37.000Z</time>
      </trkpt>
      <trkpt lat="43.75001" lon="2.31162">
        <ele>478</ele>
        <time>2025-08-26T14:23:42.000Z</time>
      </trkpt>
      <trkpt lat="43.75001" lon="2.31154">
        <ele>479</ele>
        <time>2025-08-26T14:23:47.000Z</time>
      </trkpt>
      <trkpt lat="43.75002" lon="2.31146">
        <ele>481</ele>
        <time>2025-08-26T14:23:52.000Z</time>
      </trkpt>
      <trkpt lat="43.75004" lon="2.31137">
        <ele>481</ele>
        <time>2025-08-26T14:23:57.000Z</time>
      </trkpt>
      <trkpt lat="43.75007" lon="2.3113">
        <ele>483</ele>
        <time>2025-08-26T14:24:02.000Z</time>
      </trkpt>
      <trkpt lat="43.75008" lon="2.31123">
        <ele>484</ele>
        <time>2025-08-26T14:24:07.000Z</time>
      </trkpt>
      <trkpt lat="43.75009" lon="2.31116">
        <ele>483</ele>
        <time>2025-08-26T14:24:12.000Z</time>
      </trkpt>
      <trkpt lat="43.75011" lon="2.31108">
        <ele>485</ele>
        <time>2025-08-26T14:24:17.000Z</time>
      </trkpt>
      <trkpt lat="43.75012" lon="2.311">
        <ele>486</ele>
        <time>2025-08-26T14:24:22.000Z</time>
      </trkpt>
      <trkpt lat="43.75013" lon="2.31092">
        <ele>488</ele>
        <time>2025-08-26T14:24:27.000Z</time>
      </trkpt>
      <trkpt lat="43.75014" lon="2.31086">
        <ele>489</ele>
        <time>2025-08-26T14:24:32.000Z</time>
      </trkpt>
      <trkpt lat="43.75016" lon="2.31079">
        <ele>490</ele>
        <time>2025-08-26T14:24:37.000Z</time>
      </trkpt>
      <trkpt lat="43.75016" lon="2.31072">
        <ele>490</ele>
        <time>2025-08-26T14:24:42.000Z</time>
      </trkpt>
      <trkpt lat="43.75018" lon="2.31065">
        <ele>490</ele>
        <time>2025-08-26T14:24:47.000Z</time>
      </trkpt>
      <trkpt lat="43.7502" lon="2.31058">
        <ele>490</ele>
        <time>2025-08-26T14:24:52.000Z</time>
      </trkpt>
      <trkpt lat="43.75022" lon="2.31052">
        <ele>491</ele>
        <time>2025-08-26T14:24:57.000Z</time>
      </trkpt>
      <trkpt lat="43.75023" lon="2.31046">
        <ele>492</ele>
        <time>2025-08-26T14:25:02.000Z</time>
      </trkpt>
      <trkpt lat="43.75025" lon="2.31039">
        <ele>491</ele>
        <time>2025-08-26T14:25:07.000Z</time>
      </trkpt>
      <trkpt lat="43.75027" lon="2.31035">
        <ele>491</ele>
        <time>2025-08-26T14:25:12.000Z</time>
      </trkpt>
      <trkpt lat="43.75027" lon="2.31029">
        <ele>491</ele>
        <time>2025-08-26T14:25:17.000Z</time>
      </trkpt>
      <trkpt lat="43.75028" lon="2.31023">
        <ele>491</ele>
        <time>2025-08-26T14:25:22.000Z</time>
      </trkpt>
      <trkpt lat="43.75029" lon="2.31017">
        <ele>491</ele>
        <time>2025-08-26T14:25:27.000Z</time>
      </trkpt>
      <trkpt lat="43.75029" lon="2.31009">
        <ele>491</ele>
        <time>2025-08-26T14:25:32.000Z</time>
      </trkpt>
      <trkpt lat="43.75031" lon="2.31002">
        <ele>490</ele>
        <time>2025-08-26T14:25:37.000Z</time>
      </trkpt>
      <trkpt lat="43.75033" lon="2.30993">
        <ele>490</ele>
        <time>2025-08-26T14:25:42.000Z</time>
      </trkpt>
      <trkpt lat="43.75034" lon="2.30986">
        <ele>491</ele>
        <time>2025-08-26T14:25:47.000Z</time>
      </trkpt>
      <trkpt lat="43.75036" lon="2.3098">
        <ele>492</ele>
        <time>2025-08-26T14:25:52.000Z</time>
      </trkpt>
      <trkpt lat="43.75038" lon="2.30972">
        <ele>492</ele>
        <time>2025-08-26T14:25:57.000Z</time>
      </trkpt>
      <trkpt lat="43.75039" lon="2.30965">
        <ele>492</ele>
        <time>2025-08-26T14:26:02.000Z</time>
      </trkpt>
      <trkpt lat="43.75041" lon="2.30958">
        <ele>492</ele>
        <time>2025-08-26T14:26:07.000Z</time>
      </trkpt>
      <trkpt lat="43.75043" lon="2.3095">
        <ele>493</ele>
        <time>2025-08-26T14:26:12.000Z</time>
      </trkpt>
      <trkpt lat="43.75043" lon="2.30942">
        <ele>493</ele>
        <time>2025-08-26T14:26:17.000Z</time>
      </trkpt>
      <trkpt lat="43.75043" lon="2.30935">
        <ele>495</ele>
        <time>2025-08-26T14:26:22.000Z</time>
      </trkpt>
      <trkpt lat="43.75044" lon="2.30928">
        <ele>495</ele>
        <time>2025-08-26T14:26:27.000Z</time>
      </trkpt>
      <trkpt lat="43.75044" lon="2.30923">
        <ele>496</ele>
        <time>2025-08-26T14:26:32.000Z</time>
      </trkpt>
      <trkpt lat="43.75046" lon="2.30916">
        <ele>497</ele>
        <time>2025-08-26T14:26:37.000Z</time>
      </trkpt>
      <trkpt lat="43.75048" lon="2.3091">
        <ele>496</ele>
        <time>2025-08-26T14:26:42.000Z</time>
      </trkpt>
      <trkpt lat="43.7505" lon="2.30906">
        <ele>494</ele>
        <time>2025-08-26T14:26:47.000Z</time>
      </trkpt>
      <trkpt lat="43.75052" lon="2.309">
        <ele>494</ele>
        <time>2025-08-26T14:26:52.000Z</time>
      </trkpt>
      <trkpt lat="43.75055" lon="2.30894">
        <ele>493</ele>
        <time>2025-08-26T14:26:57.000Z</time>
      </trkpt>
      <trkpt lat="43.75058" lon="2.30889">
        <ele>493</ele>
        <time>2025-08-26T14:27:02.000Z</time>
      </trkpt>
      <trkpt lat="43.75059" lon="2.30883">
        <ele>493</ele>
        <time>2025-08-26T14:27:07.000Z</time>
      </trkpt>
      <trkpt lat="43.75061" lon="2.30878">
        <ele>494</ele>
        <time>2025-08-26T14:27:12.000Z</time>
      </trkpt>
      <trkpt lat="43.75064" lon="2.30874">
        <ele>494</ele>
        <time>2025-08-26T14:27:17.000Z</time>
      </trkpt>
      <trkpt lat="43.75066" lon="2.3087">
        <ele>494</ele>
        <time>2025-08-26T14:27:22.000Z</time>
      </trkpt>
      <trkpt lat="43.75069" lon="2.30864">
        <ele>494</ele>
        <time>2025-08-26T14:27:27.000Z</time>
      </trkpt>
      <trkpt lat="43.75071" lon="2.30858">
        <ele>492</ele>
        <time>2025-08-26T14:27:32.000Z</time>
      </trkpt>
      <trkpt lat="43.75072" lon="2.30851">
        <ele>493</ele>
        <time>2025-08-26T14:27:37.000Z</time>
      </trkpt>
      <trkpt lat="43.75073" lon="2.30846">
        <ele>495</ele>
        <time>2025-08-26T14:27:42.000Z</time>
      </trkpt>
      <trkpt lat="43.75075" lon="2.3084">
        <ele>495</ele>
        <time>2025-08-26T14:27:47.000Z</time>
      </trkpt>
      <trkpt lat="43.75076" lon="2.30834">
        <ele>497</ele>
        <time>2025-08-26T14:27:52.000Z</time>
      </trkpt>
      <trkpt lat="43.75077" lon="2.30828">
        <ele>498</ele>
        <time>2025-08-26T14:27:57.000Z</time>
      </trkpt>
      <trkpt lat="43.75078" lon="2.30823">
        <ele>499</ele>
        <time>2025-08-26T14:28:02.000Z</time>
      </trkpt>
      <trkpt lat="43.75078" lon="2.30816">
        <ele>500</ele>
        <time>2025-08-26T14:28:07.000Z</time>
      </trkpt>
      <trkpt lat="43.7508" lon="2.30808">
        <ele>500</ele>
        <time>2025-08-26T14:28:12.000Z</time>
      </trkpt>
      <trkpt lat="43.75081" lon="2.30801">
        <ele>501</ele>
        <time>2025-08-26T14:28:17.000Z</time>
      </trkpt>
      <trkpt lat="43.75083" lon="2.30793">
        <ele>503</ele>
        <time>2025-08-26T14:28:22.000Z</time>
      </trkpt>
      <trkpt lat="43.75083" lon="2.30787">
        <ele>503</ele>
        <time>2025-08-26T14:28:27.000Z</time>
      </trkpt>
      <trkpt lat="43.75084" lon="2.30781">
        <ele>504</ele>
        <time>2025-08-26T14:28:32.000Z</time>
      </trkpt>
      <trkpt lat="43.75084" lon="2.30774">
        <ele>505</ele>
        <time>2025-08-26T14:28:37.000Z</time>
      </trkpt>
      <trkpt lat="43.75083" lon="2.30768">
        <ele>504</ele>
        <time>2025-08-26T14:28:42.000Z</time>
      </trkpt>
      <trkpt lat="43.75083" lon="2.30761">
        <ele>505</ele>
        <time>2025-08-26T14:28:47.000Z</time>
      </trkpt>
      <trkpt lat="43.75082" lon="2.30754">
        <ele>505</ele>
        <time>2025-08-26T14:28:52.000Z</time>
      </trkpt>
      <trkpt lat="43.75082" lon="2.30747">
        <ele>505</ele>
        <time>2025-08-26T14:28:57.000Z</time>
      </trkpt>
      <trkpt lat="43.75083" lon="2.3074">
        <ele>505</ele>
        <time>2025-08-26T14:29:02.000Z</time>
      </trkpt>
      <trkpt lat="43.75083" lon="2.30734">
        <ele>504</ele>
        <time>2025-08-26T14:29:07.000Z</time>
      </trkpt>
      <trkpt lat="43.75084" lon="2.30726">
        <ele>504</ele>
        <time>2025-08-26T14:29:12.000Z</time>
      </trkpt>
      <trkpt lat="43.75084" lon="2.30716">
        <ele>504</ele>
        <time>2025-08-26T14:29:17.000Z</time>
      </trkpt>
      <trkpt lat="43.75084" lon="2.30708">
        <ele>505</ele>
        <time>2025-08-26T14:29:22.000Z</time>
      </trkpt>
      <trkpt lat="43.75083" lon="2.307">
        <ele>506</ele>
        <time>2025-08-26T14:29:27.000Z</time>
      </trkpt>
      <trkpt lat="43.75082" lon="2.30693">
        <ele>507</ele>
        <time>2025-08-26T14:29:32.000Z</time>
      </trkpt>
      <trkpt lat="43.75081" lon="2.30685">
        <ele>508</ele>
        <time>2025-08-26T14:29:37.000Z</time>
      </trkpt>
      <trkpt lat="43.75079" lon="2.30677">
        <ele>511</ele>
        <time>2025-08-26T14:29:42.000Z</time>
      </trkpt>
      <trkpt lat="43.75078" lon="2.30668">
        <ele>511</ele>
        <time>2025-08-26T14:29:47.000Z</time>
      </trkpt>
      <trkpt lat="43.75078" lon="2.3066">
        <ele>512</ele>
        <time>2025-08-26T14:29:52.000Z</time>
      </trkpt>
      <trkpt lat="43.75077" lon="2.30653">
        <ele>513</ele>
        <time>2025-08-26T14:29:57.000Z</time>
      </trkpt>
      <trkpt lat="43.75078" lon="2.30644">
        <ele>514</ele>
        <time>2025-08-26T14:30:02.000Z</time>
      </trkpt>
      <trkpt lat="43.75079" lon="2.30638">
        <ele>514</ele>
        <time>2025-08-26T14:30:07.000Z</time>
      </trkpt>
      <trkpt lat="43.7508" lon="2.3063">
        <ele>515</ele>
        <time>2025-08-26T14:30:12.000Z</time>
      </trkpt>
      <trkpt lat="43.75081" lon="2.30623">
        <ele>517</ele>
        <time>2025-08-26T14:30:17.000Z</time>
      </trkpt>
      <trkpt lat="43.75081" lon="2.30616">
        <ele>517</ele>
        <time>2025-08-26T14:30:22.000Z</time>
      </trkpt>
      <trkpt lat="43.75082" lon="2.30609">
        <ele>518</ele>
        <time>2025-08-26T14:30:27.000Z</time>
      </trkpt>
      <trkpt lat="43.75083" lon="2.30602">
        <ele>519</ele>
        <time>2025-08-26T14:30:32.000Z</time>
      </trkpt>
      <trkpt lat="43.75084" lon="2.30593">
        <ele>519</ele>
        <time>2025-08-26T14:30:37.000Z</time>
      </trkpt>
      <trkpt lat="43.75086" lon="2.30586">
        <ele>518</ele>
        <time>2025-08-26T14:30:42.000Z</time>
      </trkpt>
      <trkpt lat="43.75089" lon="2.30578">
        <ele>519</ele>
        <time>2025-08-26T14:30:47.000Z</time>
      </trkpt>
      <trkpt lat="43.75091" lon="2.30571">
        <ele>520</ele>
        <time>2025-08-26T14:30:52.000Z</time>
      </trkpt>
      <trkpt lat="43.75093" lon="2.30564">
        <ele>520</ele>
        <time>2025-08-26T14:30:57.000Z</time>
      </trkpt>
      <trkpt lat="43.75095" lon="2.30557">
        <ele>522</ele>
        <time>2025-08-26T14:31:02.000Z</time>
      </trkpt>
      <trkpt lat="43.75097" lon="2.3055">
        <ele>523</ele>
        <time>2025-08-26T14:31:07.000Z</time>
      </trkpt>
      <trkpt lat="43.75099" lon="2.30545">
        <ele>522</ele>
        <time>2025-08-26T14:31:12.000Z</time>
      </trkpt>
      <trkpt lat="43.75101" lon="2.3054">
        <ele>524</ele>
        <time>2025-08-26T14:31:17.000Z</time>
      </trkpt>
      <trkpt lat="43.75105" lon="2.30533">
        <ele>524</ele>
        <time>2025-08-26T14:31:22.000Z</time>
      </trkpt>
      <trkpt lat="43.75106" lon="2.30526">
        <ele>524</ele>
        <time>2025-08-26T14:31:27.000Z</time>
      </trkpt>
      <trkpt lat="43.75108" lon="2.30519">
        <ele>523</ele>
        <time>2025-08-26T14:31:32.000Z</time>
      </trkpt>
      <trkpt lat="43.75111" lon="2.30512">
        <ele>523</ele>
        <time>2025-08-26T14:31:37.000Z</time>
      </trkpt>
      <trkpt lat="43.75115" lon="2.30506">
        <ele>520</ele>
        <time>2025-08-26T14:31:42.000Z</time>
      </trkpt>
      <trkpt lat="43.75118" lon="2.30501">
        <ele>519</ele>
        <time>2025-08-26T14:31:47.000Z</time>
      </trkpt>
      <trkpt lat="43.7512" lon="2.30493">
        <ele>519</ele>
        <time>2025-08-26T14:31:52.000Z</time>
      </trkpt>
      <trkpt lat="43.75123" lon="2.30486">
        <ele>519</ele>
        <time>2025-08-26T14:31:57.000Z</time>
      </trkpt>
      <trkpt lat="43.75124" lon="2.30479">
        <ele>518</ele>
        <time>2025-08-26T14:32:02.000Z</time>
      </trkpt>
      <trkpt lat="43.75126" lon="2.30471">
        <ele>518</ele>
        <time>2025-08-26T14:32:07.000Z</time>
      </trkpt>
      <trkpt lat="43.75129" lon="2.30464">
        <ele>518</ele>
        <time>2025-08-26T14:32:12.000Z</time>
      </trkpt>
      <trkpt lat="43.75131" lon="2.30456">
        <ele>519</ele>
        <time>2025-08-26T14:32:17.000Z</time>
      </trkpt>
      <trkpt lat="43.75132" lon="2.3045">
        <ele>519</ele>
        <time>2025-08-26T14:32:22.000Z</time>
      </trkpt>
      <trkpt lat="43.75136" lon="2.30443">
        <ele>518</ele>
        <time>2025-08-26T14:32:27.000Z</time>
      </trkpt>
      <trkpt lat="43.75138" lon="2.30435">
        <ele>517</ele>
        <time>2025-08-26T14:32:32.000Z</time>
      </trkpt>
      <trkpt lat="43.75139" lon="2.30429">
        <ele>518</ele>
        <time>2025-08-26T14:32:37.000Z</time>
      </trkpt>
      <trkpt lat="43.75141" lon="2.3042">
        <ele>517</ele>
        <time>2025-08-26T14:32:42.000Z</time>
      </trkpt>
      <trkpt lat="43.75143" lon="2.30411">
        <ele>517</ele>
        <time>2025-08-26T14:32:47.000Z</time>
      </trkpt>
      <trkpt lat="43.75147" lon="2.30404">
        <ele>517</ele>
        <time>2025-08-26T14:32:52.000Z</time>
      </trkpt>
      <trkpt lat="43.75151" lon="2.30398">
        <ele>515</ele>
        <time>2025-08-26T14:32:57.000Z</time>
      </trkpt>
      <trkpt lat="43.75154" lon="2.30391">
        <ele>514</ele>
        <time>2025-08-26T14:33:02.000Z</time>
      </trkpt>
      <trkpt lat="43.75156" lon="2.30384">
        <ele>514</ele>
        <time>2025-08-26T14:33:07.000Z</time>
      </trkpt>
      <trkpt lat="43.75159" lon="2.30376">
        <ele>514</ele>
        <time>2025-08-26T14:33:12.000Z</time>
      </trkpt>
      <trkpt lat="43.75162" lon="2.30369">
        <ele>515</ele>
        <time>2025-08-26T14:33:17.000Z</time>
      </trkpt>
      <trkpt lat="43.75166" lon="2.30363">
        <ele>516</ele>
        <time>2025-08-26T14:33:22.000Z</time>
      </trkpt>
      <trkpt lat="43.75171" lon="2.30354">
        <ele>517</ele>
        <time>2025-08-26T14:33:27.000Z</time>
      </trkpt>
      <trkpt lat="43.75173" lon="2.30349">
        <ele>516</ele>
        <time>2025-08-26T14:33:32.000Z</time>
      </trkpt>
      <trkpt lat="43.75177" lon="2.30342">
        <ele>515</ele>
        <time>2025-08-26T14:33:37.000Z</time>
      </trkpt>
      <trkpt lat="43.75179" lon="2.30337">
        <ele>515</ele>
        <time>2025-08-26T14:33:42.000Z</time>
      </trkpt>
      <trkpt lat="43.75183" lon="2.30332">
        <ele>515</ele>
        <time>2025-08-26T14:33:47.000Z</time>
      </trkpt>
      <trkpt lat="43.75187" lon="2.30324">
        <ele>514</ele>
        <time>2025-08-26T14:33:52.000Z</time>
      </trkpt>
      <trkpt lat="43.7519" lon="2.30316">
        <ele>514</ele>
        <time>2025-08-26T14:33:57.000Z</time>
      </trkpt>
      <trkpt lat="43.75194" lon="2.30309">
        <ele>513</ele>
        <time>2025-08-26T14:34:02.000Z</time>
      </trkpt>
      <trkpt lat="43.75197" lon="2.30302">
        <ele>513</ele>
        <time>2025-08-26T14:34:07.000Z</time>
      </trkpt>
      <trkpt lat="43.75199" lon="2.30294">
        <ele>512</ele>
        <time>2025-08-26T14:34:12.000Z</time>
      </trkpt>
      <trkpt lat="43.75202" lon="2.3029">
        <ele>512</ele>
        <time>2025-08-26T14:34:17.000Z</time>
      </trkpt>
      <trkpt lat="43.75204" lon="2.30282">
        <ele>511</ele>
        <time>2025-08-26T14:34:22.000Z</time>
      </trkpt>
      <trkpt lat="43.75206" lon="2.30274">
        <ele>510</ele>
        <time>2025-08-26T14:34:27.000Z</time>
      </trkpt>
      <trkpt lat="43.75209" lon="2.30266">
        <ele>510</ele>
        <time>2025-08-26T14:34:32.000Z</time>
      </trkpt>
      <trkpt lat="43.75211" lon="2.30261">
        <ele>508</ele>
        <time>2025-08-26T14:34:37.000Z</time>
      </trkpt>
      <trkpt lat="43.75214" lon="2.30252">
        <ele>509</ele>
        <time>2025-08-26T14:34:42.000Z</time>
      </trkpt>
      <trkpt lat="43.75215" lon="2.30246">
        <ele>508</ele>
        <time>2025-08-26T14:34:47.000Z</time>
      </trkpt>
      <trkpt lat="43.75218" lon="2.30239">
        <ele>509</ele>
        <time>2025-08-26T14:34:52.000Z</time>
      </trkpt>
      <trkpt lat="43.75221" lon="2.3023">
        <ele>509</ele>
        <time>2025-08-26T14:34:57.000Z</time>
      </trkpt>
      <trkpt lat="43.75224" lon="2.30222">
        <ele>510</ele>
        <time>2025-08-26T14:35:02.000Z</time>
      </trkpt>
      <trkpt lat="43.75228" lon="2.30215">
        <ele>510</ele>
        <time>2025-08-26T14:35:07.000Z</time>
      </trkpt>
      <trkpt lat="43.75232" lon="2.30208">
        <ele>510</ele>
        <time>2025-08-26T14:35:12.000Z</time>
      </trkpt>
      <trkpt lat="43.75236" lon="2.302">
        <ele>511</ele>
        <time>2025-08-26T14:35:17.000Z</time>
      </trkpt>
      <trkpt lat="43.7524" lon="2.30195">
        <ele>508</ele>
        <time>2025-08-26T14:35:22.000Z</time>
      </trkpt>
      <trkpt lat="43.75243" lon="2.30187">
        <ele>509</ele>
        <time>2025-08-26T14:35:27.000Z</time>
      </trkpt>
      <trkpt lat="43.75246" lon="2.30181">
        <ele>509</ele>
        <time>2025-08-26T14:35:32.000Z</time>
      </trkpt>
      <trkpt lat="43.75248" lon="2.30175">
        <ele>510</ele>
        <time>2025-08-26T14:35:37.000Z</time>
      </trkpt>
      <trkpt lat="43.75251" lon="2.30169">
        <ele>511</ele>
        <time>2025-08-26T14:35:42.000Z</time>
      </trkpt>
      <trkpt lat="43.75253" lon="2.30163">
        <ele>512</ele>
        <time>2025-08-26T14:35:47.000Z</time>
      </trkpt>
      <trkpt lat="43.75254" lon="2.30162">
        <ele>514</ele>
        <time>2025-08-26T14:35:52.000Z</time>
      </trkpt>
      <trkpt lat="43.75254" lon="2.30162">
        <ele>514</ele>
        <time>2025-08-26T14:35:57.000Z</time>
      </trkpt>
      <trkpt lat="43.75254" lon="2.30162">
        <ele>514</ele>
        <time>2025-08-26T14:36:02.000Z</time>
      </trkpt>
      <trkpt lat="43.75255" lon="2.30162">
        <ele>515</ele>
        <time>2025-08-26T14:36:07.000Z</time>
      </trkpt>
      <trkpt lat="43.75253" lon="2.30162">
        <ele>514</ele>
        <time>2025-08-26T14:36:12.000Z</time>
      </trkpt>
      <trkpt lat="43.75253" lon="2.30161">
        <ele>515</ele>
        <time>2025-08-26T14:36:17.000Z</time>
      </trkpt>
      <trkpt lat="43.75252" lon="2.30161">
        <ele>515</ele>
        <time>2025-08-26T14:36:22.000Z</time>
      </trkpt>
      <trkpt lat="43.75252" lon="2.30161">
        <ele>515</ele>
        <time>2025-08-26T14:36:27.000Z</time>
      </trkpt>
      <trkpt lat="43.75252" lon="2.30161">
        <ele>515</ele>
        <time>2025-08-26T14:36:32.000Z</time>
      </trkpt>
      <trkpt lat="43.75252" lon="2.30161">
        <ele>515</ele>
        <time>2025-08-26T14:36:37.000Z</time>
      </trkpt>
      <trkpt lat="43.75252" lon="2.30161">
        <ele>515</ele>
        <time>2025-08-26T14:36:42.000Z</time>
      </trkpt>
      <trkpt lat="43.75252" lon="2.30161">
        <ele>515</ele>
        <time>2025-08-26T14:36:47.000Z</time>
      </trkpt>
      <trkpt lat="43.75252" lon="2.30161">
        <ele>515</ele>
        <time>2025-08-26T14:36:52.000Z</time>
      </trkpt>
      <trkpt lat="43.75252" lon="2.30161">
        <ele>515</ele>
        <time>2025-08-26T14:36:57.000Z</time>
      </trkpt>
      <trkpt lat="43.75252" lon="2.30161">
        <ele>515</ele>
        <time>2025-08-26T14:37:02.000Z</time>
      </trkpt>
      <trkpt lat="43.75252" lon="2.30161">
        <ele>516</ele>
        <time>2025-08-26T14:37:07.000Z</time>
      </trkpt>
      <trkpt lat="43.75249" lon="2.30155">
        <ele>518</ele>
        <time>2025-08-26T14:37:12.000Z</time>
      </trkpt>
      <trkpt lat="43.75248" lon="2.30148">
        <ele>519</ele>
        <time>2025-08-26T14:37:17.000Z</time>
      </trkpt>
      <trkpt lat="43.75247" lon="2.30141">
        <ele>520</ele>
        <time>2025-08-26T14:37:22.000Z</time>
      </trkpt>
      <trkpt lat="43.75246" lon="2.30134">
        <ele>519</ele>
        <time>2025-08-26T14:37:27.000Z</time>
      </trkpt>
      <trkpt lat="43.75244" lon="2.30127">
        <ele>518</ele>
        <time>2025-08-26T14:37:32.000Z</time>
      </trkpt>
      <trkpt lat="43.75244" lon="2.30119">
        <ele>516</ele>
        <time>2025-08-26T14:37:37.000Z</time>
      </trkpt>
      <trkpt lat="43.75244" lon="2.30112">
        <ele>516</ele>
        <time>2025-08-26T14:37:42.000Z</time>
      </trkpt>
      <trkpt lat="43.75244" lon="2.30104">
        <ele>514</ele>
        <time>2025-08-26T14:37:47.000Z</time>
      </trkpt>
      <trkpt lat="43.75245" lon="2.30097">
        <ele>515</ele>
        <time>2025-08-26T14:37:52.000Z</time>
      </trkpt>
      <trkpt lat="43.75246" lon="2.3009">
        <ele>515</ele>
        <time>2025-08-26T14:37:57.000Z</time>
      </trkpt>
      <trkpt lat="43.75245" lon="2.30084">
        <ele>515</ele>
        <time>2025-08-26T14:38:02.000Z</time>
      </trkpt>
      <trkpt lat="43.75247" lon="2.30076">
        <ele>514</ele>
        <time>2025-08-26T14:38:07.000Z</time>
      </trkpt>
      <trkpt lat="43.75249" lon="2.30071">
        <ele>513</ele>
        <time>2025-08-26T14:38:12.000Z</time>
      </trkpt>
      <trkpt lat="43.7525" lon="2.30071">
        <ele>516</ele>
        <time>2025-08-26T14:38:17.000Z</time>
      </trkpt>
      <trkpt lat="43.7525" lon="2.3007">
        <ele>517</ele>
        <time>2025-08-26T14:38:22.000Z</time>
      </trkpt>
      <trkpt lat="43.75253" lon="2.30066">
        <ele>517</ele>
        <time>2025-08-26T14:38:27.000Z</time>
      </trkpt>
      <trkpt lat="43.75256" lon="2.30059">
        <ele>519</ele>
        <time>2025-08-26T14:38:32.000Z</time>
      </trkpt>
      <trkpt lat="43.75259" lon="2.30054">
        <ele>521</ele>
        <time>2025-08-26T14:38:37.000Z</time>
      </trkpt>
      <trkpt lat="43.75263" lon="2.30049">
        <ele>520</ele>
        <time>2025-08-26T14:38:42.000Z</time>
      </trkpt>
      <trkpt lat="43.75267" lon="2.30043">
        <ele>521</ele>
        <time>2025-08-26T14:38:47.000Z</time>
      </trkpt>
      <trkpt lat="43.75269" lon="2.30039">
        <ele>521</ele>
        <time>2025-08-26T14:38:52.000Z</time>
      </trkpt>
      <trkpt lat="43.75271" lon="2.30037">
        <ele>522</ele>
        <time>2025-08-26T14:38:57.000Z</time>
      </trkpt>
      <trkpt lat="43.75274" lon="2.30032">
        <ele>522</ele>
        <time>2025-08-26T14:39:02.000Z</time>
      </trkpt>
      <trkpt lat="43.75277" lon="2.30027">
        <ele>521</ele>
        <time>2025-08-26T14:39:07.000Z</time>
      </trkpt>
      <trkpt lat="43.7528" lon="2.30022">
        <ele>520</ele>
        <time>2025-08-26T14:39:12.000Z</time>
      </trkpt>
      <trkpt lat="43.75284" lon="2.30016">
        <ele>519</ele>
        <time>2025-08-26T14:39:17.000Z</time>
      </trkpt>
      <trkpt lat="43.75286" lon="2.3001">
        <ele>518</ele>
        <time>2025-08-26T14:39:22.000Z</time>
      </trkpt>
      <trkpt lat="43.75289" lon="2.30005">
        <ele>520</ele>
        <time>2025-08-26T14:39:27.000Z</time>
      </trkpt>
      <trkpt lat="43.7529" lon="2.29999">
        <ele>519</ele>
        <time>2025-08-26T14:39:32.000Z</time>
      </trkpt>
      <trkpt lat="43.75293" lon="2.29992">
        <ele>518</ele>
        <time>2025-08-26T14:39:37.000Z</time>
      </trkpt>
      <trkpt lat="43.75296" lon="2.29986">
        <ele>518</ele>
        <time>2025-08-26T14:39:42.000Z</time>
      </trkpt>
      <trkpt lat="43.75299" lon="2.2998">
        <ele>518</ele>
        <time>2025-08-26T14:39:47.000Z</time>
      </trkpt>
      <trkpt lat="43.75301" lon="2.29974">
        <ele>517</ele>
        <time>2025-08-26T14:39:52.000Z</time>
      </trkpt>
      <trkpt lat="43.75304" lon="2.29967">
        <ele>518</ele>
        <time>2025-08-26T14:39:57.000Z</time>
      </trkpt>
      <trkpt lat="43.75307" lon="2.29962">
        <ele>519</ele>
        <time>2025-08-26T14:40:02.000Z</time>
      </trkpt>
      <trkpt lat="43.75309" lon="2.29955">
        <ele>520</ele>
        <time>2025-08-26T14:40:07.000Z</time>
      </trkpt>
      <trkpt lat="43.75311" lon="2.29949">
        <ele>520</ele>
        <time>2025-08-26T14:40:12.000Z</time>
      </trkpt>
      <trkpt lat="43.75313" lon="2.29942">
        <ele>521</ele>
        <time>2025-08-26T14:40:17.000Z</time>
      </trkpt>
      <trkpt lat="43.75316" lon="2.29936">
        <ele>520</ele>
        <time>2025-08-26T14:40:22.000Z</time>
      </trkpt>
      <trkpt lat="43.75318" lon="2.29929">
        <ele>521</ele>
        <time>2025-08-26T14:40:27.000Z</time>
      </trkpt>
      <trkpt lat="43.75319" lon="2.29922">
        <ele>520</ele>
        <time>2025-08-26T14:40:32.000Z</time>
      </trkpt>
      <trkpt lat="43.75321" lon="2.29916">
        <ele>520</ele>
        <time>2025-08-26T14:40:37.000Z</time>
      </trkpt>
      <trkpt lat="43.75324" lon="2.29909">
        <ele>521</ele>
        <time>2025-08-26T14:40:42.000Z</time>
      </trkpt>
      <trkpt lat="43.75324" lon="2.29901">
        <ele>523</ele>
        <time>2025-08-26T14:40:47.000Z</time>
      </trkpt>
      <trkpt lat="43.75326" lon="2.29895">
        <ele>524</ele>
        <time>2025-08-26T14:40:52.000Z</time>
      </trkpt>
      <trkpt lat="43.75329" lon="2.29888">
        <ele>524</ele>
        <time>2025-08-26T14:40:57.000Z</time>
      </trkpt>
      <trkpt lat="43.7533" lon="2.29882">
        <ele>524</ele>
        <time>2025-08-26T14:41:02.000Z</time>
      </trkpt>
      <trkpt lat="43.75332" lon="2.29875">
        <ele>524</ele>
        <time>2025-08-26T14:41:07.000Z</time>
      </trkpt>
      <trkpt lat="43.75334" lon="2.29869">
        <ele>524</ele>
        <time>2025-08-26T14:41:12.000Z</time>
      </trkpt>
      <trkpt lat="43.75336" lon="2.29862">
        <ele>525</ele>
        <time>2025-08-26T14:41:17.000Z</time>
      </trkpt>
      <trkpt lat="43.75339" lon="2.29854">
        <ele>524</ele>
        <time>2025-08-26T14:41:22.000Z</time>
      </trkpt>
      <trkpt lat="43.7534" lon="2.29847">
        <ele>524</ele>
        <time>2025-08-26T14:41:27.000Z</time>
      </trkpt>
      <trkpt lat="43.75343" lon="2.29839">
        <ele>524</ele>
        <time>2025-08-26T14:41:32.000Z</time>
      </trkpt>
      <trkpt lat="43.75344" lon="2.2983">
        <ele>525</ele>
        <time>2025-08-26T14:41:37.000Z</time>
      </trkpt>
      <trkpt lat="43.75346" lon="2.29824">
        <ele>526</ele>
        <time>2025-08-26T14:41:42.000Z</time>
      </trkpt>
      <trkpt lat="43.75349" lon="2.29816">
        <ele>525</ele>
        <time>2025-08-26T14:41:47.000Z</time>
      </trkpt>
      <trkpt lat="43.75349" lon="2.2981">
        <ele>525</ele>
        <time>2025-08-26T14:41:52.000Z</time>
      </trkpt>
      <trkpt lat="43.75348" lon="2.29803">
        <ele>524</ele>
        <time>2025-08-26T14:41:57.000Z</time>
      </trkpt>
      <trkpt lat="43.7535" lon="2.29795">
        <ele>523</ele>
        <time>2025-08-26T14:42:02.000Z</time>
      </trkpt>
      <trkpt lat="43.75351" lon="2.29788">
        <ele>522</ele>
        <time>2025-08-26T14:42:07.000Z</time>
      </trkpt>
      <trkpt lat="43.75353" lon="2.29781">
        <ele>522</ele>
        <time>2025-08-26T14:42:12.000Z</time>
      </trkpt>
      <trkpt lat="43.75355" lon="2.29772">
        <ele>523</ele>
        <time>2025-08-26T14:42:17.000Z</time>
      </trkpt>
      <trkpt lat="43.75357" lon="2.29764">
        <ele>523</ele>
        <time>2025-08-26T14:42:22.000Z</time>
      </trkpt>
      <trkpt lat="43.7536" lon="2.29756">
        <ele>523</ele>
        <time>2025-08-26T14:42:27.000Z</time>
      </trkpt>
      <trkpt lat="43.75362" lon="2.2975">
        <ele>524</ele>
        <time>2025-08-26T14:42:32.000Z</time>
      </trkpt>
      <trkpt lat="43.75366" lon="2.29742">
        <ele>524</ele>
        <time>2025-08-26T14:42:37.000Z</time>
      </trkpt>
      <trkpt lat="43.7537" lon="2.29736">
        <ele>524</ele>
        <time>2025-08-26T14:42:42.000Z</time>
      </trkpt>
      <trkpt lat="43.75374" lon="2.2973">
        <ele>524</ele>
        <time>2025-08-26T14:42:47.000Z</time>
      </trkpt>
      <trkpt lat="43.75378" lon="2.29724">
        <ele>524</ele>
        <time>2025-08-26T14:42:52.000Z</time>
      </trkpt>
      <trkpt lat="43.75382" lon="2.29719">
        <ele>524</ele>
        <time>2025-08-26T14:42:57.000Z</time>
      </trkpt>
      <trkpt lat="43.75387" lon="2.29715">
        <ele>523</ele>
        <time>2025-08-26T14:43:02.000Z</time>
      </trkpt>
      <trkpt lat="43.7539" lon="2.29709">
        <ele>522</ele>
        <time>2025-08-26T14:43:07.000Z</time>
      </trkpt>
      <trkpt lat="43.75395" lon="2.29703">
        <ele>521</ele>
        <time>2025-08-26T14:43:12.000Z</time>
      </trkpt>
      <trkpt lat="43.75399" lon="2.29698">
        <ele>521</ele>
        <time>2025-08-26T14:43:17.000Z</time>
      </trkpt>
      <trkpt lat="43.754" lon="2.29694">
        <ele>522</ele>
        <time>2025-08-26T14:43:22.000Z</time>
      </trkpt>
      <trkpt lat="43.75403" lon="2.2969">
        <ele>523</ele>
        <time>2025-08-26T14:43:27.000Z</time>
      </trkpt>
      <trkpt lat="43.75405" lon="2.29685">
        <ele>525</ele>
        <time>2025-08-26T14:43:32.000Z</time>
      </trkpt>
      <trkpt lat="43.75406" lon="2.2968">
        <ele>524</ele>
        <time>2025-08-26T14:43:37.000Z</time>
      </trkpt>
      <trkpt lat="43.75407" lon="2.29674">
        <ele>525</ele>
        <time>2025-08-26T14:43:42.000Z</time>
      </trkpt>
      <trkpt lat="43.75409" lon="2.29667">
        <ele>525</ele>
        <time>2025-08-26T14:43:47.000Z</time>
      </trkpt>
      <trkpt lat="43.7541" lon="2.29661">
        <ele>526</ele>
        <time>2025-08-26T14:43:52.000Z</time>
      </trkpt>
      <trkpt lat="43.75412" lon="2.29652">
        <ele>527</ele>
        <time>2025-08-26T14:43:57.000Z</time>
      </trkpt>
      <trkpt lat="43.75414" lon="2.29645">
        <ele>528</ele>
        <time>2025-08-26T14:44:02.000Z</time>
      </trkpt>
      <trkpt lat="43.75415" lon="2.29639">
        <ele>529</ele>
        <time>2025-08-26T14:44:07.000Z</time>
      </trkpt>
      <trkpt lat="43.75415" lon="2.29633">
        <ele>529</ele>
        <time>2025-08-26T14:44:12.000Z</time>
      </trkpt>
      <trkpt lat="43.75417" lon="2.29629">
        <ele>529</ele>
        <time>2025-08-26T14:44:17.000Z</time>
      </trkpt>
      <trkpt lat="43.75418" lon="2.2962">
        <ele>528</ele>
        <time>2025-08-26T14:44:22.000Z</time>
      </trkpt>
      <trkpt lat="43.75419" lon="2.29614">
        <ele>527</ele>
        <time>2025-08-26T14:44:27.000Z</time>
      </trkpt>
      <trkpt lat="43.75421" lon="2.29605">
        <ele>525</ele>
        <time>2025-08-26T14:44:32.000Z</time>
      </trkpt>
      <trkpt lat="43.75423" lon="2.29597">
        <ele>525</ele>
        <time>2025-08-26T14:44:37.000Z</time>
      </trkpt>
      <trkpt lat="43.75424" lon="2.2959">
        <ele>526</ele>
        <time>2025-08-26T14:44:42.000Z</time>
      </trkpt>
      <trkpt lat="43.75425" lon="2.29583">
        <ele>526</ele>
        <time>2025-08-26T14:44:47.000Z</time>
      </trkpt>
      <trkpt lat="43.75426" lon="2.29576">
        <ele>526</ele>
        <time>2025-08-26T14:44:52.000Z</time>
      </trkpt>
      <trkpt lat="43.75427" lon="2.29569">
        <ele>525</ele>
        <time>2025-08-26T14:44:57.000Z</time>
      </trkpt>
      <trkpt lat="43.75428" lon="2.29562">
        <ele>525</ele>
        <time>2025-08-26T14:45:02.000Z</time>
      </trkpt>
      <trkpt lat="43.7543" lon="2.29555">
        <ele>527</ele>
        <time>2025-08-26T14:45:07.000Z</time>
      </trkpt>
      <trkpt lat="43.75431" lon="2.29549">
        <ele>527</ele>
        <time>2025-08-26T14:45:12.000Z</time>
      </trkpt>
      <trkpt lat="43.75433" lon="2.2954">
        <ele>527</ele>
        <time>2025-08-26T14:45:17.000Z</time>
      </trkpt>
      <trkpt lat="43.75434" lon="2.29534">
        <ele>526</ele>
        <time>2025-08-26T14:45:22.000Z</time>
      </trkpt>
      <trkpt lat="43.75435" lon="2.29527">
        <ele>525</ele>
        <time>2025-08-26T14:45:27.000Z</time>
      </trkpt>
      <trkpt lat="43.75437" lon="2.29521">
        <ele>524</ele>
        <time>2025-08-26T14:45:32.000Z</time>
      </trkpt>
      <trkpt lat="43.75439" lon="2.29513">
        <ele>525</ele>
        <time>2025-08-26T14:45:37.000Z</time>
      </trkpt>
      <trkpt lat="43.7544" lon="2.29506">
        <ele>525</ele>
        <time>2025-08-26T14:45:42.000Z</time>
      </trkpt>
      <trkpt lat="43.75442" lon="2.29499">
        <ele>525</ele>
        <time>2025-08-26T14:45:47.000Z</time>
      </trkpt>
      <trkpt lat="43.75442" lon="2.29492">
        <ele>524</ele>
        <time>2025-08-26T14:45:52.000Z</time>
      </trkpt>
      <trkpt lat="43.75444" lon="2.29485">
        <ele>525</ele>
        <time>2025-08-26T14:45:57.000Z</time>
      </trkpt>
      <trkpt lat="43.75445" lon="2.29478">
        <ele>527</ele>
        <time>2025-08-26T14:46:02.000Z</time>
      </trkpt>
      <trkpt lat="43.75447" lon="2.29471">
        <ele>527</ele>
        <time>2025-08-26T14:46:07.000Z</time>
      </trkpt>
      <trkpt lat="43.75447" lon="2.29462">
        <ele>527</ele>
        <time>2025-08-26T14:46:12.000Z</time>
      </trkpt>
      <trkpt lat="43.75448" lon="2.29454">
        <ele>528</ele>
        <time>2025-08-26T14:46:17.000Z</time>
      </trkpt>
      <trkpt lat="43.75449" lon="2.29446">
        <ele>528</ele>
        <time>2025-08-26T14:46:22.000Z</time>
      </trkpt>
      <trkpt lat="43.7545" lon="2.29439">
        <ele>528</ele>
        <time>2025-08-26T14:46:27.000Z</time>
      </trkpt>
      <trkpt lat="43.75452" lon="2.2943">
        <ele>528</ele>
        <time>2025-08-26T14:46:32.000Z</time>
      </trkpt>
      <trkpt lat="43.75455" lon="2.29421">
        <ele>529</ele>
        <time>2025-08-26T14:46:37.000Z</time>
      </trkpt>
      <trkpt lat="43.75457" lon="2.29415">
        <ele>529</ele>
        <time>2025-08-26T14:46:42.000Z</time>
      </trkpt>
      <trkpt lat="43.75458" lon="2.29408">
        <ele>530</ele>
        <time>2025-08-26T14:46:47.000Z</time>
      </trkpt>
      <trkpt lat="43.7546" lon="2.294">
        <ele>530</ele>
        <time>2025-08-26T14:46:52.000Z</time>
      </trkpt>
      <trkpt lat="43.75461" lon="2.29396">
        <ele>530</ele>
        <time>2025-08-26T14:46:57.000Z</time>
      </trkpt>
      <trkpt lat="43.75463" lon="2.29389">
        <ele>530</ele>
        <time>2025-08-26T14:47:02.000Z</time>
      </trkpt>
      <trkpt lat="43.75465" lon="2.29382">
        <ele>530</ele>
        <time>2025-08-26T14:47:07.000Z</time>
      </trkpt>
      <trkpt lat="43.75467" lon="2.29374">
        <ele>529</ele>
        <time>2025-08-26T14:47:12.000Z</time>
      </trkpt>
      <trkpt lat="43.7547" lon="2.29367">
        <ele>530</ele>
        <time>2025-08-26T14:47:17.000Z</time>
      </trkpt>
      <trkpt lat="43.75472" lon="2.2936">
        <ele>529</ele>
        <time>2025-08-26T14:47:22.000Z</time>
      </trkpt>
      <trkpt lat="43.75473" lon="2.29351">
        <ele>530</ele>
        <time>2025-08-26T14:47:27.000Z</time>
      </trkpt>
      <trkpt lat="43.75476" lon="2.29342">
        <ele>530</ele>
        <time>2025-08-26T14:47:32.000Z</time>
      </trkpt>
      <trkpt lat="43.75478" lon="2.29335">
        <ele>529</ele>
        <time>2025-08-26T14:47:37.000Z</time>
      </trkpt>
      <trkpt lat="43.7548" lon="2.29328">
        <ele>529</ele>
        <time>2025-08-26T14:47:42.000Z</time>
      </trkpt>
      <trkpt lat="43.75482" lon="2.29321">
        <ele>527</ele>
        <time>2025-08-26T14:47:47.000Z</time>
      </trkpt>
      <trkpt lat="43.75485" lon="2.29315">
        <ele>527</ele>
        <time>2025-08-26T14:47:52.000Z</time>
      </trkpt>
      <trkpt lat="43.75487" lon="2.29307">
        <ele>526</ele>
        <time>2025-08-26T14:47:57.000Z</time>
      </trkpt>
      <trkpt lat="43.7549" lon="2.29298">
        <ele>526</ele>
        <time>2025-08-26T14:48:02.000Z</time>
      </trkpt>
      <trkpt lat="43.75492" lon="2.29291">
        <ele>523</ele>
        <time>2025-08-26T14:48:07.000Z</time>
      </trkpt>
      <trkpt lat="43.75496" lon="2.29284">
        <ele>522</ele>
        <time>2025-08-26T14:48:12.000Z</time>
      </trkpt>
      <trkpt lat="43.75499" lon="2.29278">
        <ele>523</ele>
        <time>2025-08-26T14:48:17.000Z</time>
      </trkpt>
      <trkpt lat="43.75503" lon="2.29272">
        <ele>522</ele>
        <time>2025-08-26T14:48:22.000Z</time>
      </trkpt>
      <trkpt lat="43.75505" lon="2.29265">
        <ele>523</ele>
        <time>2025-08-26T14:48:27.000Z</time>
      </trkpt>
      <trkpt lat="43.75507" lon="2.29257">
        <ele>522</ele>
        <time>2025-08-26T14:48:32.000Z</time>
      </trkpt>
      <trkpt lat="43.7551" lon="2.29249">
        <ele>521</ele>
        <time>2025-08-26T14:48:37.000Z</time>
      </trkpt>
      <trkpt lat="43.75514" lon="2.29242">
        <ele>520</ele>
        <time>2025-08-26T14:48:42.000Z</time>
      </trkpt>
      <trkpt lat="43.75516" lon="2.29235">
        <ele>520</ele>
        <time>2025-08-26T14:48:47.000Z</time>
      </trkpt>
      <trkpt lat="43.75518" lon="2.29228">
        <ele>519</ele>
        <time>2025-08-26T14:48:52.000Z</time>
      </trkpt>
      <trkpt lat="43.75521" lon="2.29222">
        <ele>517</ele>
        <time>2025-08-26T14:48:57.000Z</time>
      </trkpt>
      <trkpt lat="43.75523" lon="2.29214">
        <ele>516</ele>
        <time>2025-08-26T14:49:02.000Z</time>
      </trkpt>
      <trkpt lat="43.75525" lon="2.29206">
        <ele>515</ele>
        <time>2025-08-26T14:49:07.000Z</time>
      </trkpt>
      <trkpt lat="43.75528" lon="2.292">
        <ele>515</ele>
        <time>2025-08-26T14:49:12.000Z</time>
      </trkpt>
      <trkpt lat="43.7553" lon="2.29194">
        <ele>515</ele>
        <time>2025-08-26T14:49:17.000Z</time>
      </trkpt>
      <trkpt lat="43.75533" lon="2.29188">
        <ele>514</ele>
        <time>2025-08-26T14:49:22.000Z</time>
      </trkpt>
      <trkpt lat="43.75536" lon="2.2918">
        <ele>512</ele>
        <time>2025-08-26T14:49:27.000Z</time>
      </trkpt>
      <trkpt lat="43.75539" lon="2.29173">
        <ele>511</ele>
        <time>2025-08-26T14:49:32.000Z</time>
      </trkpt>
      <trkpt lat="43.75543" lon="2.29167">
        <ele>510</ele>
        <time>2025-08-26T14:49:37.000Z</time>
      </trkpt>
      <trkpt lat="43.75547" lon="2.29161">
        <ele>510</ele>
        <time>2025-08-26T14:49:42.000Z</time>
      </trkpt>
      <trkpt lat="43.7555" lon="2.29154">
        <ele>509</ele>
        <time>2025-08-26T14:49:47.000Z</time>
      </trkpt>
      <trkpt lat="43.75554" lon="2.29146">
        <ele>510</ele>
        <time>2025-08-26T14:49:52.000Z</time>
      </trkpt>
      <trkpt lat="43.75556" lon="2.2914">
        <ele>510</ele>
        <time>2025-08-26T14:49:57.000Z</time>
      </trkpt>
      <trkpt lat="43.75557" lon="2.29133">
        <ele>509</ele>
        <time>2025-08-26T14:50:02.000Z</time>
      </trkpt>
      <trkpt lat="43.7556" lon="2.29125">
        <ele>508</ele>
        <time>2025-08-26T14:50:07.000Z</time>
      </trkpt>
      <trkpt lat="43.75562" lon="2.29118">
        <ele>508</ele>
        <time>2025-08-26T14:50:12.000Z</time>
      </trkpt>
      <trkpt lat="43.75564" lon="2.29109">
        <ele>506</ele>
        <time>2025-08-26T14:50:17.000Z</time>
      </trkpt>
      <trkpt lat="43.75564" lon="2.29101">
        <ele>505</ele>
        <time>2025-08-26T14:50:22.000Z</time>
      </trkpt>
      <trkpt lat="43.75566" lon="2.29095">
        <ele>505</ele>
        <time>2025-08-26T14:50:27.000Z</time>
      </trkpt>
      <trkpt lat="43.75567" lon="2.29088">
        <ele>505</ele>
        <time>2025-08-26T14:50:32.000Z</time>
      </trkpt>
      <trkpt lat="43.75569" lon="2.29084">
        <ele>504</ele>
        <time>2025-08-26T14:50:37.000Z</time>
      </trkpt>
      <trkpt lat="43.75571" lon="2.29077">
        <ele>504</ele>
        <time>2025-08-26T14:50:42.000Z</time>
      </trkpt>
      <trkpt lat="43.75573" lon="2.2907">
        <ele>503</ele>
        <time>2025-08-26T14:50:47.000Z</time>
      </trkpt>
      <trkpt lat="43.75574" lon="2.29063">
        <ele>502</ele>
        <time>2025-08-26T14:50:52.000Z</time>
      </trkpt>
      <trkpt lat="43.75574" lon="2.29055">
        <ele>501</ele>
        <time>2025-08-26T14:50:57.000Z</time>
      </trkpt>
      <trkpt lat="43.75575" lon="2.29048">
        <ele>501</ele>
        <time>2025-08-26T14:51:02.000Z</time>
      </trkpt>
      <trkpt lat="43.75577" lon="2.2904">
        <ele>502</ele>
        <time>2025-08-26T14:51:07.000Z</time>
      </trkpt>
      <trkpt lat="43.75579" lon="2.29032">
        <ele>501</ele>
        <time>2025-08-26T14:51:12.000Z</time>
      </trkpt>
      <trkpt lat="43.7558" lon="2.29025">
        <ele>499</ele>
        <time>2025-08-26T14:51:17.000Z</time>
      </trkpt>
      <trkpt lat="43.75581" lon="2.29018">
        <ele>497</ele>
        <time>2025-08-26T14:51:22.000Z</time>
      </trkpt>
      <trkpt lat="43.75584" lon="2.29011">
        <ele>498</ele>
        <time>2025-08-26T14:51:27.000Z</time>
      </trkpt>
      <trkpt lat="43.75586" lon="2.29003">
        <ele>497</ele>
        <time>2025-08-26T14:51:32.000Z</time>
      </trkpt>
      <trkpt lat="43.75588" lon="2.28996">
        <ele>496</ele>
        <time>2025-08-26T14:51:37.000Z</time>
      </trkpt>
      <trkpt lat="43.75589" lon="2.28989">
        <ele>496</ele>
        <time>2025-08-26T14:51:42.000Z</time>
      </trkpt>
      <trkpt lat="43.75591" lon="2.28982">
        <ele>496</ele>
        <time>2025-08-26T14:51:47.000Z</time>
      </trkpt>
      <trkpt lat="43.75593" lon="2.28974">
        <ele>494</ele>
        <time>2025-08-26T14:51:52.000Z</time>
      </trkpt>
      <trkpt lat="43.75595" lon="2.28967">
        <ele>493</ele>
        <time>2025-08-26T14:51:57.000Z</time>
      </trkpt>
      <trkpt lat="43.75598" lon="2.2896">
        <ele>492</ele>
        <time>2025-08-26T14:52:02.000Z</time>
      </trkpt>
      <trkpt lat="43.75602" lon="2.28954">
        <ele>491</ele>
        <time>2025-08-26T14:52:07.000Z</time>
      </trkpt>
      <trkpt lat="43.75605" lon="2.28946">
        <ele>490</ele>
        <time>2025-08-26T14:52:12.000Z</time>
      </trkpt>
      <trkpt lat="43.75608" lon="2.2894">
        <ele>489</ele>
        <time>2025-08-26T14:52:17.000Z</time>
      </trkpt>
      <trkpt lat="43.75611" lon="2.28934">
        <ele>488</ele>
        <time>2025-08-26T14:52:22.000Z</time>
      </trkpt>
      <trkpt lat="43.75614" lon="2.28927">
        <ele>487</ele>
        <time>2025-08-26T14:52:27.000Z</time>
      </trkpt>
      <trkpt lat="43.75617" lon="2.28919">
        <ele>486</ele>
        <time>2025-08-26T14:52:32.000Z</time>
      </trkpt>
      <trkpt lat="43.75619" lon="2.28911">
        <ele>487</ele>
        <time>2025-08-26T14:52:37.000Z</time>
      </trkpt>
      <trkpt lat="43.75623" lon="2.28904">
        <ele>486</ele>
        <time>2025-08-26T14:52:42.000Z</time>
      </trkpt>
      <trkpt lat="43.75625" lon="2.28899">
        <ele>486</ele>
        <time>2025-08-26T14:52:47.000Z</time>
      </trkpt>
      <trkpt lat="43.75628" lon="2.28894">
        <ele>485</ele>
        <time>2025-08-26T14:52:52.000Z</time>
      </trkpt>
      <trkpt lat="43.75631" lon="2.28887">
        <ele>485</ele>
        <time>2025-08-26T14:52:57.000Z</time>
      </trkpt>
      <trkpt lat="43.75634" lon="2.28878">
        <ele>485</ele>
        <time>2025-08-26T14:53:02.000Z</time>
      </trkpt>
      <trkpt lat="43.75637" lon="2.2887">
        <ele>485</ele>
        <time>2025-08-26T14:53:07.000Z</time>
      </trkpt>
      <trkpt lat="43.7564" lon="2.28862">
        <ele>483</ele>
        <time>2025-08-26T14:53:12.000Z</time>
      </trkpt>
      <trkpt lat="43.75642" lon="2.28855">
        <ele>483</ele>
        <time>2025-08-26T14:53:17.000Z</time>
      </trkpt>
      <trkpt lat="43.75644" lon="2.28848">
        <ele>483</ele>
        <time>2025-08-26T14:53:22.000Z</time>
      </trkpt>
      <trkpt lat="43.75646" lon="2.28842">
        <ele>482</ele>
        <time>2025-08-26T14:53:27.000Z</time>
      </trkpt>
      <trkpt lat="43.75649" lon="2.28833">
        <ele>481</ele>
        <time>2025-08-26T14:53:32.000Z</time>
      </trkpt>
      <trkpt lat="43.75649" lon="2.28826">
        <ele>482</ele>
        <time>2025-08-26T14:53:37.000Z</time>
      </trkpt>
      <trkpt lat="43.75651" lon="2.2882">
        <ele>480</ele>
        <time>2025-08-26T14:53:42.000Z</time>
      </trkpt>
      <trkpt lat="43.75654" lon="2.28813">
        <ele>478</ele>
        <time>2025-08-26T14:53:47.000Z</time>
      </trkpt>
      <trkpt lat="43.75656" lon="2.28805">
        <ele>477</ele>
        <time>2025-08-26T14:53:52.000Z</time>
      </trkpt>
      <trkpt lat="43.75658" lon="2.28799">
        <ele>475</ele>
        <time>2025-08-26T14:53:57.000Z</time>
      </trkpt>
      <trkpt lat="43.75659" lon="2.28791">
        <ele>475</ele>
        <time>2025-08-26T14:54:02.000Z</time>
      </trkpt>
      <trkpt lat="43.75657" lon="2.28782">
        <ele>476</ele>
        <time>2025-08-26T14:54:07.000Z</time>
      </trkpt>
      <trkpt lat="43.75655" lon="2.28773">
        <ele>475</ele>
        <time>2025-08-26T14:54:12.000Z</time>
      </trkpt>
      <trkpt lat="43.75654" lon="2.28764">
        <ele>476</ele>
        <time>2025-08-26T14:54:17.000Z</time>
      </trkpt>
      <trkpt lat="43.75654" lon="2.28756">
        <ele>477</ele>
        <time>2025-08-26T14:54:22.000Z</time>
      </trkpt>
      <trkpt lat="43.75656" lon="2.28748">
        <ele>477</ele>
        <time>2025-08-26T14:54:27.000Z</time>
      </trkpt>
      <trkpt lat="43.75656" lon="2.2874">
        <ele>476</ele>
        <time>2025-08-26T14:54:32.000Z</time>
      </trkpt>
      <trkpt lat="43.75656" lon="2.28733">
        <ele>476</ele>
        <time>2025-08-26T14:54:37.000Z</time>
      </trkpt>
      <trkpt lat="43.75657" lon="2.28727">
        <ele>477</ele>
        <time>2025-08-26T14:54:42.000Z</time>
      </trkpt>
      <trkpt lat="43.75657" lon="2.28718">
        <ele>478</ele>
        <time>2025-08-26T14:54:47.000Z</time>
      </trkpt>
      <trkpt lat="43.75658" lon="2.28712">
        <ele>479</ele>
        <time>2025-08-26T14:54:52.000Z</time>
      </trkpt>
      <trkpt lat="43.75658" lon="2.28706">
        <ele>480</ele>
        <time>2025-08-26T14:54:57.000Z</time>
      </trkpt>
      <trkpt lat="43.7566" lon="2.28699">
        <ele>480</ele>
        <time>2025-08-26T14:55:02.000Z</time>
      </trkpt>
      <trkpt lat="43.75662" lon="2.28693">
        <ele>480</ele>
        <time>2025-08-26T14:55:07.000Z</time>
      </trkpt>
      <trkpt lat="43.75664" lon="2.28688">
        <ele>479</ele>
        <time>2025-08-26T14:55:12.000Z</time>
      </trkpt>
      <trkpt lat="43.75667" lon="2.28683">
        <ele>479</ele>
        <time>2025-08-26T14:55:17.000Z</time>
      </trkpt>
      <trkpt lat="43.7567" lon="2.28679">
        <ele>478</ele>
        <time>2025-08-26T14:55:22.000Z</time>
      </trkpt>
      <trkpt lat="43.75673" lon="2.28674">
        <ele>479</ele>
        <time>2025-08-26T14:55:27.000Z</time>
      </trkpt>
      <trkpt lat="43.75676" lon="2.28669">
        <ele>479</ele>
        <time>2025-08-26T14:55:32.000Z</time>
      </trkpt>
      <trkpt lat="43.75679" lon="2.28665">
        <ele>478</ele>
        <time>2025-08-26T14:55:37.000Z</time>
      </trkpt>
      <trkpt lat="43.75683" lon="2.28662">
        <ele>478</ele>
        <time>2025-08-26T14:55:42.000Z</time>
      </trkpt>
      <trkpt lat="43.75689" lon="2.28657">
        <ele>479</ele>
        <time>2025-08-26T14:55:47.000Z</time>
      </trkpt>
      <trkpt lat="43.75691" lon="2.28651">
        <ele>481</ele>
        <time>2025-08-26T14:55:52.000Z</time>
      </trkpt>
      <trkpt lat="43.75695" lon="2.28646">
        <ele>482</ele>
        <time>2025-08-26T14:55:57.000Z</time>
      </trkpt>
      <trkpt lat="43.75697" lon="2.28642">
        <ele>484</ele>
        <time>2025-08-26T14:56:02.000Z</time>
      </trkpt>
      <trkpt lat="43.75699" lon="2.28637">
        <ele>487</ele>
        <time>2025-08-26T14:56:07.000Z</time>
      </trkpt>
      <trkpt lat="43.75701" lon="2.28631">
        <ele>488</ele>
        <time>2025-08-26T14:56:12.000Z</time>
      </trkpt>
      <trkpt lat="43.75704" lon="2.28625">
        <ele>490</ele>
        <time>2025-08-26T14:56:17.000Z</time>
      </trkpt>
      <trkpt lat="43.75705" lon="2.28618">
        <ele>491</ele>
        <time>2025-08-26T14:56:22.000Z</time>
      </trkpt>
      <trkpt lat="43.75707" lon="2.28611">
        <ele>491</ele>
        <time>2025-08-26T14:56:27.000Z</time>
      </trkpt>
      <trkpt lat="43.7571" lon="2.28604">
        <ele>492</ele>
        <time>2025-08-26T14:56:32.000Z</time>
      </trkpt>
      <trkpt lat="43.75711" lon="2.28597">
        <ele>493</ele>
        <time>2025-08-26T14:56:37.000Z</time>
      </trkpt>
      <trkpt lat="43.75715" lon="2.28591">
        <ele>494</ele>
        <time>2025-08-26T14:56:42.000Z</time>
      </trkpt>
      <trkpt lat="43.75717" lon="2.28585">
        <ele>493</ele>
        <time>2025-08-26T14:56:47.000Z</time>
      </trkpt>
      <trkpt lat="43.7572" lon="2.28579">
        <ele>492</ele>
        <time>2025-08-26T14:56:52.000Z</time>
      </trkpt>
      <trkpt lat="43.75723" lon="2.28573">
        <ele>491</ele>
        <time>2025-08-26T14:56:57.000Z</time>
      </trkpt>
      <trkpt lat="43.75724" lon="2.28564">
        <ele>491</ele>
        <time>2025-08-26T14:57:02.000Z</time>
      </trkpt>
      <trkpt lat="43.75723" lon="2.28558">
        <ele>490</ele>
        <time>2025-08-26T14:57:07.000Z</time>
      </trkpt>
      <trkpt lat="43.75721" lon="2.2855">
        <ele>491</ele>
        <time>2025-08-26T14:57:12.000Z</time>
      </trkpt>
      <trkpt lat="43.75721" lon="2.28543">
        <ele>490</ele>
        <time>2025-08-26T14:57:17.000Z</time>
      </trkpt>
      <trkpt lat="43.75718" lon="2.28536">
        <ele>490</ele>
        <time>2025-08-26T14:57:22.000Z</time>
      </trkpt>
      <trkpt lat="43.75716" lon="2.28528">
        <ele>491</ele>
        <time>2025-08-26T14:57:27.000Z</time>
      </trkpt>
      <trkpt lat="43.75716" lon="2.2852">
        <ele>491</ele>
        <time>2025-08-26T14:57:32.000Z</time>
      </trkpt>
      <trkpt lat="43.75716" lon="2.28512">
        <ele>491</ele>
        <time>2025-08-26T14:57:37.000Z</time>
      </trkpt>
      <trkpt lat="43.75716" lon="2.28504">
        <ele>489</ele>
        <time>2025-08-26T14:57:42.000Z</time>
      </trkpt>
      <trkpt lat="43.75719" lon="2.28496">
        <ele>490</ele>
        <time>2025-08-26T14:57:47.000Z</time>
      </trkpt>
      <trkpt lat="43.75722" lon="2.28489">
        <ele>490</ele>
        <time>2025-08-26T14:57:52.000Z</time>
      </trkpt>
      <trkpt lat="43.75725" lon="2.28481">
        <ele>492</ele>
        <time>2025-08-26T14:57:57.000Z</time>
      </trkpt>
      <trkpt lat="43.75728" lon="2.28476">
        <ele>491</ele>
        <time>2025-08-26T14:58:02.000Z</time>
      </trkpt>
      <trkpt lat="43.75732" lon="2.2847">
        <ele>492</ele>
        <time>2025-08-26T14:58:07.000Z</time>
      </trkpt>
      <trkpt lat="43.75736" lon="2.28463">
        <ele>491</ele>
        <time>2025-08-26T14:58:12.000Z</time>
      </trkpt>
      <trkpt lat="43.7574" lon="2.28458">
        <ele>491</ele>
        <time>2025-08-26T14:58:17.000Z</time>
      </trkpt>
      <trkpt lat="43.75745" lon="2.28451">
        <ele>490</ele>
        <time>2025-08-26T14:58:22.000Z</time>
      </trkpt>
      <trkpt lat="43.75749" lon="2.28445">
        <ele>489</ele>
        <time>2025-08-26T14:58:27.000Z</time>
      </trkpt>
      <trkpt lat="43.75753" lon="2.28441">
        <ele>488</ele>
        <time>2025-08-26T14:58:32.000Z</time>
      </trkpt>
      <trkpt lat="43.75758" lon="2.28435">
        <ele>487</ele>
        <time>2025-08-26T14:58:37.000Z</time>
      </trkpt>
      <trkpt lat="43.75761" lon="2.28427">
        <ele>487</ele>
        <time>2025-08-26T14:58:42.000Z</time>
      </trkpt>
      <trkpt lat="43.75766" lon="2.28421">
        <ele>487</ele>
        <time>2025-08-26T14:58:47.000Z</time>
      </trkpt>
      <trkpt lat="43.7577" lon="2.28416">
        <ele>486</ele>
        <time>2025-08-26T14:58:52.000Z</time>
      </trkpt>
      <trkpt lat="43.75774" lon="2.28409">
        <ele>487</ele>
        <time>2025-08-26T14:58:57.000Z</time>
      </trkpt>
      <trkpt lat="43.75778" lon="2.28403">
        <ele>488</ele>
        <time>2025-08-26T14:59:02.000Z</time>
      </trkpt>
      <trkpt lat="43.75782" lon="2.28398">
        <ele>486</ele>
        <time>2025-08-26T14:59:07.000Z</time>
      </trkpt>
      <trkpt lat="43.75786" lon="2.28392">
        <ele>486</ele>
        <time>2025-08-26T14:59:12.000Z</time>
      </trkpt>
      <trkpt lat="43.7579" lon="2.28385">
        <ele>485</ele>
        <time>2025-08-26T14:59:17.000Z</time>
      </trkpt>
      <trkpt lat="43.75793" lon="2.28379">
        <ele>483</ele>
        <time>2025-08-26T14:59:22.000Z</time>
      </trkpt>
      <trkpt lat="43.75797" lon="2.28372">
        <ele>484</ele>
        <time>2025-08-26T14:59:27.000Z</time>
      </trkpt>
      <trkpt lat="43.75801" lon="2.28366">
        <ele>484</ele>
        <time>2025-08-26T14:59:32.000Z</time>
      </trkpt>
      <trkpt lat="43.75806" lon="2.28359">
        <ele>483</ele>
        <time>2025-08-26T14:59:37.000Z</time>
      </trkpt>
      <trkpt lat="43.75808" lon="2.28355">
        <ele>483</ele>
        <time>2025-08-26T14:59:42.000Z</time>
      </trkpt>
      <trkpt lat="43.75812" lon="2.28347">
        <ele>483</ele>
        <time>2025-08-26T14:59:47.000Z</time>
      </trkpt>
      <trkpt lat="43.75816" lon="2.2834">
        <ele>482</ele>
        <time>2025-08-26T14:59:52.000Z</time>
      </trkpt>
      <trkpt lat="43.7582" lon="2.28334">
        <ele>482</ele>
        <time>2025-08-26T14:59:57.000Z</time>
      </trkpt>
      <trkpt lat="43.75824" lon="2.28327">
        <ele>480</ele>
        <time>2025-08-26T15:00:02.000Z</time>
      </trkpt>
      <trkpt lat="43.75827" lon="2.28321">
        <ele>479</ele>
        <time>2025-08-26T15:00:07.000Z</time>
      </trkpt>
      <trkpt lat="43.7583" lon="2.28315">
        <ele>478</ele>
        <time>2025-08-26T15:00:12.000Z</time>
      </trkpt>
      <trkpt lat="43.75832" lon="2.28308">
        <ele>479</ele>
        <time>2025-08-26T15:00:17.000Z</time>
      </trkpt>
      <trkpt lat="43.75837" lon="2.28299">
        <ele>478</ele>
        <time>2025-08-26T15:00:22.000Z</time>
      </trkpt>
      <trkpt lat="43.75841" lon="2.28293">
        <ele>478</ele>
        <time>2025-08-26T15:00:27.000Z</time>
      </trkpt>
      <trkpt lat="43.75845" lon="2.28286">
        <ele>477</ele>
        <time>2025-08-26T15:00:32.000Z</time>
      </trkpt>
      <trkpt lat="43.75848" lon="2.28277">
        <ele>477</ele>
        <time>2025-08-26T15:00:37.000Z</time>
      </trkpt>
      <trkpt lat="43.75851" lon="2.28271">
        <ele>476</ele>
        <time>2025-08-26T15:00:42.000Z</time>
      </trkpt>
      <trkpt lat="43.75854" lon="2.28265">
        <ele>475</ele>
        <time>2025-08-26T15:00:47.000Z</time>
      </trkpt>
      <trkpt lat="43.75857" lon="2.28258">
        <ele>476</ele>
        <time>2025-08-26T15:00:52.000Z</time>
      </trkpt>
      <trkpt lat="43.7586" lon="2.28253">
        <ele>475</ele>
        <time>2025-08-26T15:00:57.000Z</time>
      </trkpt>
      <trkpt lat="43.75863" lon="2.28245">
        <ele>474</ele>
        <time>2025-08-26T15:01:02.000Z</time>
      </trkpt>
      <trkpt lat="43.75866" lon="2.28237">
        <ele>472</ele>
        <time>2025-08-26T15:01:07.000Z</time>
      </trkpt>
      <trkpt lat="43.75868" lon="2.28229">
        <ele>471</ele>
        <time>2025-08-26T15:01:12.000Z</time>
      </trkpt>
      <trkpt lat="43.75873" lon="2.28223">
        <ele>470</ele>
        <time>2025-08-26T15:01:17.000Z</time>
      </trkpt>
      <trkpt lat="43.75876" lon="2.28215">
        <ele>471</ele>
        <time>2025-08-26T15:01:22.000Z</time>
      </trkpt>
      <trkpt lat="43.75878" lon="2.28207">
        <ele>471</ele>
        <time>2025-08-26T15:01:27.000Z</time>
      </trkpt>
      <trkpt lat="43.75882" lon="2.28199">
        <ele>470</ele>
        <time>2025-08-26T15:01:32.000Z</time>
      </trkpt>
      <trkpt lat="43.75884" lon="2.28192">
        <ele>468</ele>
        <time>2025-08-26T15:01:37.000Z</time>
      </trkpt>
      <trkpt lat="43.75888" lon="2.28185">
        <ele>467</ele>
        <time>2025-08-26T15:01:42.000Z</time>
      </trkpt>
      <trkpt lat="43.7589" lon="2.28179">
        <ele>467</ele>
        <time>2025-08-26T15:01:47.000Z</time>
      </trkpt>
      <trkpt lat="43.75892" lon="2.28172">
        <ele>466</ele>
        <time>2025-08-26T15:01:52.000Z</time>
      </trkpt>
      <trkpt lat="43.75895" lon="2.28166">
        <ele>465</ele>
        <time>2025-08-26T15:01:57.000Z</time>
      </trkpt>
      <trkpt lat="43.75898" lon="2.28157">
        <ele>465</ele>
        <time>2025-08-26T15:02:02.000Z</time>
      </trkpt>
      <trkpt lat="43.75902" lon="2.28149">
        <ele>463</ele>
        <time>2025-08-26T15:02:07.000Z</time>
      </trkpt>
      <trkpt lat="43.75904" lon="2.28141">
        <ele>463</ele>
        <time>2025-08-26T15:02:12.000Z</time>
      </trkpt>
      <trkpt lat="43.75906" lon="2.28134">
        <ele>463</ele>
        <time>2025-08-26T15:02:17.000Z</time>
      </trkpt>
      <trkpt lat="43.75911" lon="2.28126">
        <ele>463</ele>
        <time>2025-08-26T15:02:22.000Z</time>
      </trkpt>
      <trkpt lat="43.75914" lon="2.2812">
        <ele>462</ele>
        <time>2025-08-26T15:02:27.000Z</time>
      </trkpt>
      <trkpt lat="43.75917" lon="2.28113">
        <ele>463</ele>
        <time>2025-08-26T15:02:32.000Z</time>
      </trkpt>
      <trkpt lat="43.7592" lon="2.28104">
        <ele>464</ele>
        <time>2025-08-26T15:02:37.000Z</time>
      </trkpt>
      <trkpt lat="43.75923" lon="2.28097">
        <ele>462</ele>
        <time>2025-08-26T15:02:42.000Z</time>
      </trkpt>
      <trkpt lat="43.75927" lon="2.28091">
        <ele>462</ele>
        <time>2025-08-26T15:02:47.000Z</time>
      </trkpt>
      <trkpt lat="43.7593" lon="2.28084">
        <ele>463</ele>
        <time>2025-08-26T15:02:52.000Z</time>
      </trkpt>
      <trkpt lat="43.75932" lon="2.28076">
        <ele>461</ele>
        <time>2025-08-26T15:02:57.000Z</time>
      </trkpt>
      <trkpt lat="43.75935" lon="2.28069">
        <ele>461</ele>
        <time>2025-08-26T15:03:02.000Z</time>
      </trkpt>
      <trkpt lat="43.75939" lon="2.28066">
        <ele>459</ele>
        <time>2025-08-26T15:03:07.000Z</time>
      </trkpt>
      <trkpt lat="43.75946" lon="2.28067">
        <ele>458</ele>
        <time>2025-08-26T15:03:12.000Z</time>
      </trkpt>
      <trkpt lat="43.7595" lon="2.28072">
        <ele>458</ele>
        <time>2025-08-26T15:03:17.000Z</time>
      </trkpt>
      <trkpt lat="43.75954" lon="2.28079">
        <ele>457</ele>
        <time>2025-08-26T15:03:22.000Z</time>
      </trkpt>
      <trkpt lat="43.75957" lon="2.28085">
        <ele>458</ele>
        <time>2025-08-26T15:03:27.000Z</time>
      </trkpt>
      <trkpt lat="43.75957" lon="2.28092">
        <ele>457</ele>
        <time>2025-08-26T15:03:32.000Z</time>
      </trkpt>
      <trkpt lat="43.75959" lon="2.281">
        <ele>457</ele>
        <time>2025-08-26T15:03:37.000Z</time>
      </trkpt>
      <trkpt lat="43.75961" lon="2.28107">
        <ele>456</ele>
        <time>2025-08-26T15:03:42.000Z</time>
      </trkpt>
      <trkpt lat="43.75964" lon="2.28115">
        <ele>456</ele>
        <time>2025-08-26T15:03:47.000Z</time>
      </trkpt>
      <trkpt lat="43.75967" lon="2.28123">
        <ele>456</ele>
        <time>2025-08-26T15:03:52.000Z</time>
      </trkpt>
      <trkpt lat="43.75968" lon="2.28131">
        <ele>457</ele>
        <time>2025-08-26T15:03:57.000Z</time>
      </trkpt>
      <trkpt lat="43.7597" lon="2.28137">
        <ele>457</ele>
        <time>2025-08-26T15:04:02.000Z</time>
      </trkpt>
      <trkpt lat="43.7597" lon="2.28138">
        <ele>458</ele>
        <time>2025-08-26T15:04:07.000Z</time>
      </trkpt>
      <trkpt lat="43.75971" lon="2.28142">
        <ele>457</ele>
        <time>2025-08-26T15:04:12.000Z</time>
      </trkpt>
      <trkpt lat="43.75971" lon="2.28143">
        <ele>457</ele>
        <time>2025-08-26T15:04:17.000Z</time>
      </trkpt>
      <trkpt lat="43.75973" lon="2.2815">
        <ele>456</ele>
        <time>2025-08-26T15:04:22.000Z</time>
      </trkpt>
      <trkpt lat="43.75975" lon="2.28156">
        <ele>454</ele>
        <time>2025-08-26T15:04:27.000Z</time>
      </trkpt>
      <trkpt lat="43.75977" lon="2.28165">
        <ele>453</ele>
        <time>2025-08-26T15:04:32.000Z</time>
      </trkpt>
      <trkpt lat="43.75978" lon="2.28172">
        <ele>451</ele>
        <time>2025-08-26T15:04:37.000Z</time>
      </trkpt>
      <trkpt lat="43.75979" lon="2.28179">
        <ele>452</ele>
        <time>2025-08-26T15:04:42.000Z</time>
      </trkpt>
      <trkpt lat="43.7598" lon="2.28188">
        <ele>451</ele>
        <time>2025-08-26T15:04:47.000Z</time>
      </trkpt>
      <trkpt lat="43.75981" lon="2.28196">
        <ele>452</ele>
        <time>2025-08-26T15:04:52.000Z</time>
      </trkpt>
      <trkpt lat="43.75981" lon="2.28204">
        <ele>452</ele>
        <time>2025-08-26T15:04:57.000Z</time>
      </trkpt>
      <trkpt lat="43.75982" lon="2.28212">
        <ele>453</ele>
        <time>2025-08-26T15:05:02.000Z</time>
      </trkpt>
      <trkpt lat="43.75983" lon="2.28219">
        <ele>451</ele>
        <time>2025-08-26T15:05:07.000Z</time>
      </trkpt>
      <trkpt lat="43.75985" lon="2.28227">
        <ele>450</ele>
        <time>2025-08-26T15:05:12.000Z</time>
      </trkpt>
      <trkpt lat="43.75984" lon="2.28236">
        <ele>450</ele>
        <time>2025-08-26T15:05:17.000Z</time>
      </trkpt>
      <trkpt lat="43.75986" lon="2.28243">
        <ele>449</ele>
        <time>2025-08-26T15:05:22.000Z</time>
      </trkpt>
      <trkpt lat="43.75987" lon="2.28251">
        <ele>450</ele>
        <time>2025-08-26T15:05:27.000Z</time>
      </trkpt>
      <trkpt lat="43.75987" lon="2.28259">
        <ele>449</ele>
        <time>2025-08-26T15:05:32.000Z</time>
      </trkpt>
      <trkpt lat="43.75988" lon="2.28267">
        <ele>448</ele>
        <time>2025-08-26T15:05:37.000Z</time>
      </trkpt>
      <trkpt lat="43.75988" lon="2.28275">
        <ele>449</ele>
        <time>2025-08-26T15:05:42.000Z</time>
      </trkpt>
      <trkpt lat="43.75988" lon="2.2828">
        <ele>448</ele>
        <time>2025-08-26T15:05:47.000Z</time>
      </trkpt>
      <trkpt lat="43.75986" lon="2.2829">
        <ele>448</ele>
        <time>2025-08-26T15:05:52.000Z</time>
      </trkpt>
      <trkpt lat="43.75984" lon="2.28298">
        <ele>445</ele>
        <time>2025-08-26T15:05:57.000Z</time>
      </trkpt>
      <trkpt lat="43.75982" lon="2.28306">
        <ele>445</ele>
        <time>2025-08-26T15:06:02.000Z</time>
      </trkpt>
      <trkpt lat="43.75982" lon="2.28315">
        <ele>446</ele>
        <time>2025-08-26T15:06:07.000Z</time>
      </trkpt>
      <trkpt lat="43.7598" lon="2.28323">
        <ele>446</ele>
        <time>2025-08-26T15:06:12.000Z</time>
      </trkpt>
      <trkpt lat="43.75979" lon="2.28329">
        <ele>446</ele>
        <time>2025-08-26T15:06:17.000Z</time>
      </trkpt>
      <trkpt lat="43.75979" lon="2.28334">
        <ele>446</ele>
        <time>2025-08-26T15:06:22.000Z</time>
      </trkpt>
      <trkpt lat="43.75978" lon="2.28342">
        <ele>446</ele>
        <time>2025-08-26T15:06:27.000Z</time>
      </trkpt>
      <trkpt lat="43.75978" lon="2.28351">
        <ele>446</ele>
        <time>2025-08-26T15:06:32.000Z</time>
      </trkpt>
      <trkpt lat="43.75977" lon="2.28358">
        <ele>445</ele>
        <time>2025-08-26T15:06:37.000Z</time>
      </trkpt>
      <trkpt lat="43.75976" lon="2.28366">
        <ele>443</ele>
        <time>2025-08-26T15:06:42.000Z</time>
      </trkpt>
      <trkpt lat="43.75975" lon="2.28373">
        <ele>443</ele>
        <time>2025-08-26T15:06:47.000Z</time>
      </trkpt>
      <trkpt lat="43.75975" lon="2.28381">
        <ele>442</ele>
        <time>2025-08-26T15:06:52.000Z</time>
      </trkpt>
      <trkpt lat="43.75975" lon="2.28389">
        <ele>442</ele>
        <time>2025-08-26T15:06:57.000Z</time>
      </trkpt>
      <trkpt lat="43.75974" lon="2.28397">
        <ele>442</ele>
        <time>2025-08-26T15:07:02.000Z</time>
      </trkpt>
      <trkpt lat="43.75975" lon="2.28404">
        <ele>443</ele>
        <time>2025-08-26T15:07:07.000Z</time>
      </trkpt>
      <trkpt lat="43.75974" lon="2.2841">
        <ele>441</ele>
        <time>2025-08-26T15:07:12.000Z</time>
      </trkpt>
      <trkpt lat="43.75974" lon="2.28419">
        <ele>441</ele>
        <time>2025-08-26T15:07:17.000Z</time>
      </trkpt>
      <trkpt lat="43.75975" lon="2.28429">
        <ele>441</ele>
        <time>2025-08-26T15:07:22.000Z</time>
      </trkpt>
      <trkpt lat="43.75978" lon="2.28436">
        <ele>441</ele>
        <time>2025-08-26T15:07:27.000Z</time>
      </trkpt>
      <trkpt lat="43.75981" lon="2.28442">
        <ele>441</ele>
        <time>2025-08-26T15:07:32.000Z</time>
      </trkpt>
      <trkpt lat="43.75985" lon="2.28446">
        <ele>439</ele>
        <time>2025-08-26T15:07:37.000Z</time>
      </trkpt>
      <trkpt lat="43.75986" lon="2.28451">
        <ele>437</ele>
        <time>2025-08-26T15:07:42.000Z</time>
      </trkpt>
      <trkpt lat="43.7599" lon="2.28454">
        <ele>436</ele>
        <time>2025-08-26T15:07:47.000Z</time>
      </trkpt>
      <trkpt lat="43.75994" lon="2.28459">
        <ele>436</ele>
        <time>2025-08-26T15:07:52.000Z</time>
      </trkpt>
      <trkpt lat="43.75999" lon="2.28463">
        <ele>436</ele>
        <time>2025-08-26T15:07:57.000Z</time>
      </trkpt>
      <trkpt lat="43.76004" lon="2.28467">
        <ele>435</ele>
        <time>2025-08-26T15:08:02.000Z</time>
      </trkpt>
      <trkpt lat="43.76008" lon="2.28472">
        <ele>434</ele>
        <time>2025-08-26T15:08:07.000Z</time>
      </trkpt>
      <trkpt lat="43.76011" lon="2.28476">
        <ele>435</ele>
        <time>2025-08-26T15:08:12.000Z</time>
      </trkpt>
      <trkpt lat="43.76015" lon="2.28482">
        <ele>434</ele>
        <time>2025-08-26T15:08:17.000Z</time>
      </trkpt>
      <trkpt lat="43.7602" lon="2.28488">
        <ele>434</ele>
        <time>2025-08-26T15:08:22.000Z</time>
      </trkpt>
      <trkpt lat="43.76025" lon="2.28493">
        <ele>434</ele>
        <time>2025-08-26T15:08:27.000Z</time>
      </trkpt>
      <trkpt lat="43.76029" lon="2.28499">
        <ele>436</ele>
        <time>2025-08-26T15:08:32.000Z</time>
      </trkpt>
      <trkpt lat="43.76033" lon="2.28505">
        <ele>435</ele>
        <time>2025-08-26T15:08:37.000Z</time>
      </trkpt>
      <trkpt lat="43.76037" lon="2.28512">
        <ele>434</ele>
        <time>2025-08-26T15:08:42.000Z</time>
      </trkpt>
      <trkpt lat="43.76042" lon="2.28518">
        <ele>433</ele>
        <time>2025-08-26T15:08:47.000Z</time>
      </trkpt>
      <trkpt lat="43.76047" lon="2.28525">
        <ele>434</ele>
        <time>2025-08-26T15:08:52.000Z</time>
      </trkpt>
      <trkpt lat="43.76052" lon="2.28531">
        <ele>433</ele>
        <time>2025-08-26T15:08:57.000Z</time>
      </trkpt>
      <trkpt lat="43.76056" lon="2.28536">
        <ele>433</ele>
        <time>2025-08-26T15:09:02.000Z</time>
      </trkpt>
      <trkpt lat="43.76059" lon="2.28543">
        <ele>433</ele>
        <time>2025-08-26T15:09:07.000Z</time>
      </trkpt>
      <trkpt lat="43.76062" lon="2.2855">
        <ele>433</ele>
        <time>2025-08-26T15:09:12.000Z</time>
      </trkpt>
      <trkpt lat="43.76067" lon="2.28555">
        <ele>433</ele>
        <time>2025-08-26T15:09:17.000Z</time>
      </trkpt>
      <trkpt lat="43.76071" lon="2.28562">
        <ele>432</ele>
        <time>2025-08-26T15:09:22.000Z</time>
      </trkpt>
      <trkpt lat="43.76075" lon="2.28569">
        <ele>432</ele>
        <time>2025-08-26T15:09:27.000Z</time>
      </trkpt>
      <trkpt lat="43.76079" lon="2.28575">
        <ele>432</ele>
        <time>2025-08-26T15:09:32.000Z</time>
      </trkpt>
      <trkpt lat="43.76084" lon="2.28581">
        <ele>431</ele>
        <time>2025-08-26T15:09:37.000Z</time>
      </trkpt>
      <trkpt lat="43.76087" lon="2.28588">
        <ele>433</ele>
        <time>2025-08-26T15:09:42.000Z</time>
      </trkpt>
      <trkpt lat="43.7609" lon="2.28592">
        <ele>433</ele>
        <time>2025-08-26T15:09:47.000Z</time>
      </trkpt>
      <trkpt lat="43.7609" lon="2.28592">
        <ele>433</ele>
        <time>2025-08-26T15:09:52.000Z</time>
      </trkpt>
      <trkpt lat="43.76092" lon="2.28598">
        <ele>433</ele>
        <time>2025-08-26T15:09:57.000Z</time>
      </trkpt>
      <trkpt lat="43.76094" lon="2.28605">
        <ele>434</ele>
        <time>2025-08-26T15:10:02.000Z</time>
      </trkpt>
      <trkpt lat="43.76096" lon="2.28612">
        <ele>433</ele>
        <time>2025-08-26T15:10:07.000Z</time>
      </trkpt>
      <trkpt lat="43.76097" lon="2.28619">
        <ele>434</ele>
        <time>2025-08-26T15:10:12.000Z</time>
      </trkpt>
      <trkpt lat="43.761" lon="2.28626">
        <ele>433</ele>
        <time>2025-08-26T15:10:17.000Z</time>
      </trkpt>
      <trkpt lat="43.76102" lon="2.28634">
        <ele>432</ele>
        <time>2025-08-26T15:10:22.000Z</time>
      </trkpt>
      <trkpt lat="43.76104" lon="2.2864">
        <ele>431</ele>
        <time>2025-08-26T15:10:27.000Z</time>
      </trkpt>
      <trkpt lat="43.76106" lon="2.28647">
        <ele>430</ele>
        <time>2025-08-26T15:10:32.000Z</time>
      </trkpt>
      <trkpt lat="43.76107" lon="2.28655">
        <ele>429</ele>
        <time>2025-08-26T15:10:37.000Z</time>
      </trkpt>
      <trkpt lat="43.76105" lon="2.28664">
        <ele>429</ele>
        <time>2025-08-26T15:10:42.000Z</time>
      </trkpt>
      <trkpt lat="43.76102" lon="2.28671">
        <ele>429</ele>
        <time>2025-08-26T15:10:47.000Z</time>
      </trkpt>
      <trkpt lat="43.76099" lon="2.28676">
        <ele>428</ele>
        <time>2025-08-26T15:10:52.000Z</time>
      </trkpt>
      <trkpt lat="43.76095" lon="2.2868">
        <ele>427</ele>
        <time>2025-08-26T15:10:57.000Z</time>
      </trkpt>
      <trkpt lat="43.76092" lon="2.28681">
        <ele>427</ele>
        <time>2025-08-26T15:11:02.000Z</time>
      </trkpt>
      <trkpt lat="43.76087" lon="2.28683">
        <ele>428</ele>
        <time>2025-08-26T15:11:07.000Z</time>
      </trkpt>
      <trkpt lat="43.76082" lon="2.28686">
        <ele>427</ele>
        <time>2025-08-26T15:11:12.000Z</time>
      </trkpt>
      <trkpt lat="43.76076" lon="2.28688">
        <ele>426</ele>
        <time>2025-08-26T15:11:17.000Z</time>
      </trkpt>
      <trkpt lat="43.76071" lon="2.28691">
        <ele>425</ele>
        <time>2025-08-26T15:11:22.000Z</time>
      </trkpt>
      <trkpt lat="43.76066" lon="2.28693">
        <ele>425</ele>
        <time>2025-08-26T15:11:27.000Z</time>
      </trkpt>
      <trkpt lat="43.7606" lon="2.28695">
        <ele>423</ele>
        <time>2025-08-26T15:11:32.000Z</time>
      </trkpt>
      <trkpt lat="43.76056" lon="2.28699">
        <ele>423</ele>
        <time>2025-08-26T15:11:37.000Z</time>
      </trkpt>
      <trkpt lat="43.76055" lon="2.28705">
        <ele>423</ele>
        <time>2025-08-26T15:11:42.000Z</time>
      </trkpt>
      <trkpt lat="43.76057" lon="2.28712">
        <ele>422</ele>
        <time>2025-08-26T15:11:47.000Z</time>
      </trkpt>
      <trkpt lat="43.7606" lon="2.28717">
        <ele>422</ele>
        <time>2025-08-26T15:11:52.000Z</time>
      </trkpt>
      <trkpt lat="43.76063" lon="2.28722">
        <ele>422</ele>
        <time>2025-08-26T15:11:57.000Z</time>
      </trkpt>
      <trkpt lat="43.76068" lon="2.28724">
        <ele>421</ele>
        <time>2025-08-26T15:12:02.000Z</time>
      </trkpt>
      <trkpt lat="43.76073" lon="2.28728">
        <ele>420</ele>
        <time>2025-08-26T15:12:07.000Z</time>
      </trkpt>
      <trkpt lat="43.76079" lon="2.28732">
        <ele>420</ele>
        <time>2025-08-26T15:12:12.000Z</time>
      </trkpt>
      <trkpt lat="43.76083" lon="2.28737">
        <ele>420</ele>
        <time>2025-08-26T15:12:17.000Z</time>
      </trkpt>
      <trkpt lat="43.76086" lon="2.2874">
        <ele>420</ele>
        <time>2025-08-26T15:12:22.000Z</time>
      </trkpt>
      <trkpt lat="43.7609" lon="2.28743">
        <ele>418</ele>
        <time>2025-08-26T15:12:27.000Z</time>
      </trkpt>
      <trkpt lat="43.76095" lon="2.28749">
        <ele>417</ele>
        <time>2025-08-26T15:12:32.000Z</time>
      </trkpt>
      <trkpt lat="43.76099" lon="2.28756">
        <ele>415</ele>
        <time>2025-08-26T15:12:37.000Z</time>
      </trkpt>
      <trkpt lat="43.76104" lon="2.28763">
        <ele>414</ele>
        <time>2025-08-26T15:12:42.000Z</time>
      </trkpt>
      <trkpt lat="43.76108" lon="2.28769">
        <ele>413</ele>
        <time>2025-08-26T15:12:47.000Z</time>
      </trkpt>
      <trkpt lat="43.76112" lon="2.28776">
        <ele>413</ele>
        <time>2025-08-26T15:12:52.000Z</time>
      </trkpt>
      <trkpt lat="43.76116" lon="2.28781">
        <ele>412</ele>
        <time>2025-08-26T15:12:57.000Z</time>
      </trkpt>
      <trkpt lat="43.76121" lon="2.28788">
        <ele>411</ele>
        <time>2025-08-26T15:13:02.000Z</time>
      </trkpt>
      <trkpt lat="43.76125" lon="2.28795">
        <ele>409</ele>
        <time>2025-08-26T15:13:07.000Z</time>
      </trkpt>
      <trkpt lat="43.76127" lon="2.28801">
        <ele>409</ele>
        <time>2025-08-26T15:13:12.000Z</time>
      </trkpt>
      <trkpt lat="43.7613" lon="2.28807">
        <ele>407</ele>
        <time>2025-08-26T15:13:17.000Z</time>
      </trkpt>
      <trkpt lat="43.76132" lon="2.28815">
        <ele>407</ele>
        <time>2025-08-26T15:13:22.000Z</time>
      </trkpt>
      <trkpt lat="43.76134" lon="2.28823">
        <ele>407</ele>
        <time>2025-08-26T15:13:27.000Z</time>
      </trkpt>
      <trkpt lat="43.76138" lon="2.28829">
        <ele>406</ele>
        <time>2025-08-26T15:13:32.000Z</time>
      </trkpt>
      <trkpt lat="43.76143" lon="2.28832">
        <ele>404</ele>
        <time>2025-08-26T15:13:37.000Z</time>
      </trkpt>
      <trkpt lat="43.76145" lon="2.28833">
        <ele>404</ele>
        <time>2025-08-26T15:13:42.000Z</time>
      </trkpt>
      <trkpt lat="43.76146" lon="2.28833">
        <ele>404</ele>
        <time>2025-08-26T15:13:47.000Z</time>
      </trkpt>
      <trkpt lat="43.76146" lon="2.28833">
        <ele>404</ele>
        <time>2025-08-26T15:13:52.000Z</time>
      </trkpt>
      <trkpt lat="43.76146" lon="2.28833">
        <ele>404</ele>
        <time>2025-08-26T15:13:57.000Z</time>
      </trkpt>
      <trkpt lat="43.76146" lon="2.28833">
        <ele>404</ele>
        <time>2025-08-26T15:14:02.000Z</time>
      </trkpt>
      <trkpt lat="43.76146" lon="2.28833">
        <ele>404</ele>
        <time>2025-08-26T15:14:07.000Z</time>
      </trkpt>
      <trkpt lat="43.76147" lon="2.28833">
        <ele>404</ele>
        <time>2025-08-26T15:14:12.000Z</time>
      </trkpt>
      <trkpt lat="43.76147" lon="2.28833">
        <ele>404</ele>
        <time>2025-08-26T15:14:17.000Z</time>
      </trkpt>
      <trkpt lat="43.76147" lon="2.28833">
        <ele>404</ele>
        <time>2025-08-26T15:14:22.000Z</time>
      </trkpt>
      <trkpt lat="43.76147" lon="2.28833">
        <ele>404</ele>
        <time>2025-08-26T15:14:27.000Z</time>
      </trkpt>
      <trkpt lat="43.76146" lon="2.28833">
        <ele>404</ele>
        <time>2025-08-26T15:14:32.000Z</time>
      </trkpt>
      <trkpt lat="43.76146" lon="2.28832">
        <ele>405</ele>
        <time>2025-08-26T15:14:37.000Z</time>
      </trkpt>
      <trkpt lat="43.76147" lon="2.28833">
        <ele>404</ele>
        <time>2025-08-26T15:14:42.000Z</time>
      </trkpt>
      <trkpt lat="43.76147" lon="2.28833">
        <ele>404</ele>
        <time>2025-08-26T15:14:47.000Z</time>
      </trkpt>
      <trkpt lat="43.76147" lon="2.28833">
        <ele>404</ele>
        <time>2025-08-26T15:14:52.000Z</time>
      </trkpt>
      <trkpt lat="43.76148" lon="2.28833">
        <ele>404</ele>
        <time>2025-08-26T15:14:57.000Z</time>
      </trkpt>
      <trkpt lat="43.76148" lon="2.28833">
        <ele>404</ele>
        <time>2025-08-26T15:15:02.000Z</time>
      </trkpt>
      <trkpt lat="43.76168" lon="2.28821">
        <ele>415</ele>
        <time>2025-08-26T15:18:04.997Z</time>
      </trkpt>
      <trkpt lat="43.7617" lon="2.28819">
        <ele>407</ele>
        <time>2025-08-26T15:18:10.000Z</time>
      </trkpt>
      <trkpt lat="43.76171" lon="2.28814">
        <ele>408</ele>
        <time>2025-08-26T15:18:15.000Z</time>
      </trkpt>
      <trkpt lat="43.76173" lon="2.2881">
        <ele>407</ele>
        <time>2025-08-26T15:18:20.000Z</time>
      </trkpt>
      <trkpt lat="43.76174" lon="2.2881">
        <ele>406</ele>
        <time>2025-08-26T15:18:25.000Z</time>
      </trkpt>
      <trkpt lat="43.76174" lon="2.2881">
        <ele>407</ele>
        <time>2025-08-26T15:18:30.000Z</time>
      </trkpt>
      <trkpt lat="43.76174" lon="2.2881">
        <ele>407</ele>
        <time>2025-08-26T15:18:35.000Z</time>
      </trkpt>
    </trkseg>
  </trk>
</gpx>